[[{"header":{"parameterUnit":"m.s-1","parameterCategory":1,"la1":31.0,"la2":29.5877,"lo1":-88.7671,"lo2":-86.6584,"dx":0.0162,"dy":0.0185,"nx":115,"ny":88,"refTime":"2022-11-17T18:00:00:Z","depth":0,"parameterNumber":2,"parameterNumberName":"U-component_of_WINDS"},"data":[0.0,0.0,0.0,0.0,0.0,0.0,0.0,0.0,0.0,0.0,0.0,0.0,0.0,0.0,0.0,0.0,0.0,0.0,0.0,0.0,0.0,0.0,0.0,0.0,0.0,0.0,0.0,0.0,0.0,0.0,0.0,0.0,0.0,0.0,0.0,0.0,0.0,0.0,0.0,0.0,0.0,0.0,0.0,0.0,0.0,0.0,0.0,0.0,0.0,0.0,0.0,0.0,0.0,0.0,0.0,0.0,0.0,0.0,0.0,0.0,0.0,0.0,0.0,0.0,0.0,0.0,0.0,0.0,0.0,0.0,0.0,0.0,0.0,0.0,0.0,0.0,0.0,0.0,0.0,0.0,0.0,0.0,0.0,0.0,0.0,0.0,0.0,0.0,0.0,0.0,0.0,0.0,0.0,0.0,0.0,0.0,0.0,0.0,0.0,0.0,0.0,0.0,0.0,0.0,0.0,0.0,0.0,0.0,0.0,0.0,0.0,0.0,0.0,0.0,0.0,0.0,0.0,0.0,0.0,0.0,0.0,0.0,0.0,0.0,0.0,0.0,0.0,0.0,0.0,0.0,0.0,0.0,0.0,0.0,0.0,0.0,0.0,0.0,0.0,0.0,0.0,0.0,0.0,0.0,0.0,0.0,0.0,0.0,0.0,0.0,0.0,0.0,0.0,0.0,0.0,0.0,0.0,0.0,0.0,0.0,0.0,0.0,0.0,0.0,0.0,0.0,0.0,0.0,0.0,0.0,0.0,0.0,0.0,0.0,0.0,0.0,0.0,0.0,0.0,0.0,0.0,0.0,0.0,0.0,0.0,0.0,0.0,0.0,0.0,0.0,0.0,0.0,0.0,0.0,0.0,0.0,0.0,0.0,0.0,0.0,0.0,0.0,0.0,0.0,0.0,0.0,0.0,0.0,0.0,0.0,0.0,0.0,0.0,0.0,0.0,0.0,0.0,0.0,0.0,0.0,0.0,0.0,0.0,0.0,0.0,0.0,0.0,0.0,0.0,0.0,0.0,0.0,0.0,0.0,0.0,0.0,0.0,0.0,0.0,0.0,0.0,0.0,0.0,0.0,0.0,0.0,0.0,0.0,0.0,0.0,0.0,0.0,0.0,0.0,0.0,0.0,0.0,0.0,0.0,0.0,0.0,0.0,0.0,0.0,0.0,0.0,0.0,0.0,0.0,0.0,0.0,0.0,0.0,0.0,0.0,0.0,0.0,0.0,0.0,0.0,0.0,0.0,0.0,0.0,0.0,0.0,0.0,0.0,0.0,0.0,0.0,0.0,0.0,0.0,0.0,0.0,0.0,0.0,0.0,0.0,0.0,0.0,0.0,0.0,0.0,0.0,0.0,0.0,0.0,0.0,0.0,0.0,0.0,0.0,0.0,0.0,0.0,0.0,0.0,0.0,0.0,0.0,0.0,0.0,0.0,0.0,0.0,0.0,0.0,0.0,0.0,0.0,0.0,0.0,0.0,0.0,0.0,0.0,0.0,0.0,0.0,0.0,0.0,0.0,0.0,0.0,0.0,0.0,0.0,0.0,0.0,0.0,0.0,0.0,0.0,0.0,0.0,0.0,0.0,0.0,0.0,0.0,0.0,0.0,0.0,0.0,0.0,0.0,0.0,0.0,0.0,0.0,0.0,0.0,0.0,0.0,0.0,0.0,0.0,0.0,0.0,0.0,0.0,0.0,0.0,0.0,0.0,0.0,0.0,0.0,0.0,0.0,0.0,0.0,0.0,0.0,0.0,0.0,0.0,0.0,0.0,0.0,0.0,0.0,0.0,0.0,0.0,0.0,0.0,0.0,0.0,0.0,0.0,0.0,0.0,0.0,0.0,0.0,0.0,0.0,0.0,0.0,0.0,0.0,0.0,0.0,0.0,0.0,0.0,0.0,0.0,0.0,0.0,0.0,0.0,0.0,0.0,0.0,0.0,0.0,0.0,0.0,0.0,0.0,0.0,0.0,0.0,0.0,0.0,0.0,0.0,0.0,0.0,0.0,0.0,0.0,0.0,0.0,0.0,0.0,0.0,0.0,0.0,0.0,0.0,0.0,0.0,0.0,0.0,0.0,0.0,0.0,0.0,0.0,0.0,0.0,0.0,0.0,0.0,0.0,0.0,0.0,0.0,0.0,0.0,0.0,0.0,0.0,0.0,0.0,0.0,0.0,0.0,0.0,0.0,0.0,0.0,0.0,0.0,0.0,0.0,0.0,0.0,0.0,0.0,0.0,0.0,0.0,0.0,0.0,0.0,0.0,0.0,0.0,0.0,0.0,0.0,0.0,0.0,0.0,0.0,0.0,0.0,0.0,0.0,0.0,0.0,0.0,0.0,0.0,0.0,0.0,0.0,0.0,0.0,0.0,0.0,0.0,0.0,0.0,0.0,0.0,0.0,0.0,0.0,0.0,0.0,0.0,0.0,0.0,0.0,0.0,0.0,0.0,0.0,0.0,0.0,0.0,0.0,0.0,0.0,0.0,0.0,0.0,0.0,0.0,0.0,0.0,0.0,0.0,0.0,0.0,0.0,0.0,0.0,0.0,0.0,0.0,0.0,0.0,0.0,0.0,0.0,0.0,0.0,0.0,0.0,0.0,0.0,0.0,0.0,0.0,0.0,0.0,0.0,0.0,0.0,0.0,0.0,0.0,0.0,0.0,0.0,0.0,0.0,0.0,0.0,0.0,0.0,0.0,0.0,0.0,0.0,0.0,0.0,0.0,0.0,0.0,0.0,0.0,0.0,0.0,0.0,0.0,0.0,0.0,0.0,0.0,0.0,0.0,0.0,0.0,0.0,0.0,0.0,0.0,0.0,0.0,0.0,0.0,0.0,0.0,0.0,0.0,0.0,0.0,0.0,0.0,0.0,0.0,0.0,0.0,0.0,0.0,0.0,0.0,0.0,0.0,0.0,0.0,0.0,0.0,0.0,0.0,0.0,0.0,0.0,0.0,0.0,0.0,0.0,0.0,0.0,0.0,0.0,0.0,0.0,0.0,0.0,0.0,0.0,0.0,0.0,0.0,0.0,0.0,0.0,0.0,0.0,0.0,0.0,0.0,0.0,0.0,0.0,0.0,0.0,0.0,0.0,0.0,0.0,0.0,0.0,0.0,0.0,0.0,0.0,0.0,0.0,0.0,0.0,0.0,0.0,0.0,0.0,0.0,0.0,0.0,0.0,0.0,0.0,0.0,0.0,0.0,0.0,0.0,0.0,0.0,0.0,0.0,0.0,0.0,0.0,0.0,0.0,0.0,0.0,0.0,0.0,0.0,0.0,0.0,0.0,0.0,0.0,0.0,0.0,0.0,0.0,0.0,0.0,0.0,0.0,0.0,0.0,0.0,0.0,0.0,0.0,0.0,0.0,0.0,0.0,0.0,0.0,0.0,0.0,0.0,0.0,0.0,0.0,0.0,0.0,0.0,0.0,0.0,0.0,0.0,0.0,0.0,0.0,0.0,0.0,0.0,0.0,0.0,0.0,0.0,0.0,0.0,0.0,0.0,0.0,0.0,0.0,0.0,0.0,0.0,0.0,0.0,0.0,0.0,0.0,0.0,0.0,0.0,0.0,0.0,0.0,0.0,0.0,0.0,0.0,0.0,0.0,0.0,0.0,0.0,0.0,0.0,0.0,0.0,0.0,0.0,0.0,0.0,0.0,0.0,0.0,0.0,0.0,0.0,0.0,0.0,0.0,0.0,0.0,0.0,0.0,0.0,0.0,0.0,0.0,0.0,0.0,0.0,0.0,0.0,0.0,0.0,0.0,0.0,0.0,0.0,0.0,0.0,0.0,0.0,0.0,0.0,0.0,0.0,0.0,0.0,0.0,0.0,0.0,0.0,0.0,0.0,0.0,0.0,0.0,0.0,0.0,0.0,0.0,0.0,0.0,0.0,0.0,0.0,0.0,0.0,0.0,0.0,0.0,0.0,0.0,0.0,0.0,0.0,0.0,0.0,0.0,0.0,0.0,0.0,0.0,0.0,0.0,0.0,0.0,0.0,0.0,0.0,0.0,0.0,0.0,0.0,0.0,0.0,0.0,0.0,0.0,0.0,0.0,0.0,0.0,0.0,0.0,0.0,0.0,0.0,0.0,0.0,0.0,0.0,0.0,0.0,0.0,0.0,0.0,0.0,0.0,0.0,0.0,0.0,0.0,0.0,0.0,0.0,0.0,0.0,0.0,0.0,0.0,0.0,0.0,0.0,0.0,0.0,0.0,0.0,0.0,0.0,0.0,0.0,0.0,0.0,0.0,0.0,2.0119,0.0,0.0,0.0,1.4287,0.0,0.0,0.0,0.0,0.0,0.0,0.0,0.0,0.0,0.0,0.0,0.0,0.0,0.0,0.0,0.0,0.0,0.0,0.0,0.0,0.0,0.0,0.0,0.0,0.0,0.0,0.0,0.0,0.0,0.0,0.0,0.0,0.0,0.0,0.0,0.0,0.0,0.0,0.0,0.0,0.0,0.0,0.0,0.0,0.0,0.0,0.0,0.0,0.0,0.0,0.0,0.0,0.0,0.0,0.0,0.0,0.0,0.0,0.0,0.0,0.0,0.0,0.0,0.0,0.0,0.0,0.0,0.0,0.0,0.0,0.0,0.0,0.0,0.0,0.0,0.0,0.0,0.0,0.0,0.0,0.0,0.0,0.0,0.0,0.0,0.0,0.0,0.0,0.0,0.0,0.0,0.0,0.0,0.0,0.0,0.0,0.0,0.0,0.0,0.0,0.0,0.0,0.0,0.0,0.0,0.0,0.0,0.0,0.0,0.0,2.0251,1.7781,1.9204,1.8217,1.4416,0.0,0.0,0.0,0.0,0.0,0.0,0.0,0.0,0.0,0.0,0.0,0.0,0.0,0.0,0.0,0.0,0.0,0.0,0.0,0.0,0.0,0.0,0.0,0.0,0.0,0.0,0.0,0.0,0.0,0.0,0.0,0.0,0.0,0.0,0.0,0.0,0.0,0.0,0.0,0.0,0.0,0.0,0.0,0.0,0.0,0.0,0.0,0.0,0.0,0.0,0.0,0.0,0.0,0.0,0.0,0.0,0.0,0.0,0.0,0.0,0.0,0.0,0.0,0.0,0.0,0.0,0.0,0.0,0.0,0.0,0.0,0.0,0.0,0.0,0.0,0.0,0.0,0.0,0.0,0.0,0.0,0.0,0.0,0.0,0.0,0.0,0.0,0.0,0.0,0.0,0.0,0.0,0.0,0.0,0.0,0.0,0.0,0.0,0.0,0.0,0.0,0.0,0.0,0.0,0.0,0.0,0.0,0.0,0.0,0.0,0.0,0.0,1.9724,1.898,1.5285,0.0,0.0,0.0,0.0,0.0,0.0,0.0,0.0,0.0,0.0,0.0,0.0,0.0,0.0,0.0,0.0,0.0,0.0,0.0,0.0,0.0,0.0,0.0,0.0,0.0,0.0,0.0,0.0,0.0,0.0,0.0,0.0,0.0,0.0,0.0,0.0,0.0,0.0,0.0,0.0,0.0,0.0,0.0,0.0,0.0,0.0,0.0,0.0,0.0,0.0,0.0,0.0,0.0,0.0,0.0,0.0,0.0,0.0,0.0,0.0,0.0,0.0,0.0,0.0,0.0,0.0,0.0,0.0,0.0,0.0,0.0,0.0,0.0,0.0,0.0,0.0,0.0,0.0,0.0,0.0,0.0,0.0,0.0,0.0,0.0,0.0,0.0,0.0,0.0,0.0,0.0,0.0,0.0,0.0,0.0,0.0,0.0,0.0,0.0,0.0,0.0,0.0,0.0,0.0,0.0,0.0,0.0,0.0,0.0,0.0,1.8934,1.8719,1.9343,0.0,1.6415,0.0,0.0,0.0,0.0,0.0,0.0,0.0,0.0,0.0,0.0,0.0,0.0,0.0,0.0,0.0,0.0,0.0,0.0,0.0,0.0,0.0,0.0,0.0,0.0,0.0,0.0,0.0,0.0,0.0,0.0,0.0,0.0,0.0,0.0,0.0,0.0,0.0,0.0,0.0,0.0,0.0,0.0,0.0,0.0,0.0,0.0,0.0,0.0,0.0,0.0,0.0,0.0,0.0,0.0,0.0,0.0,0.0,0.0,0.0,0.0,0.0,0.0,0.0,0.0,0.0,0.0,0.0,0.0,0.0,0.0,0.0,0.0,0.0,0.0,0.0,0.0,0.0,0.0,0.0,0.0,0.0,0.0,0.0,0.0,0.0,0.0,0.0,0.0,0.0,0.0,0.0,0.0,0.0,0.0,0.0,0.0,0.0,0.0,0.0,0.0,0.0,0.0,0.0,0.0,0.0,0.0,0.0,0.0,0.0,0.0,1.9692,1.856,1.8203,1.7735,0.0,0.0,0.0,0.0,0.0,0.0,0.0,0.0,0.0,0.0,0.0,0.0,0.0,0.0,0.0,0.0,0.0,0.0,0.0,0.0,0.0,0.0,0.0,0.0,0.0,0.0,0.0,0.0,0.0,0.0,0.0,0.0,0.0,0.0,0.0,0.0,0.0,0.0,0.0,0.0,0.0,0.0,0.0,0.0,0.0,0.0,0.0,0.0,0.0,0.0,0.0,0.0,0.0,0.0,0.0,0.0,0.0,0.0,0.0,0.0,0.0,0.0,0.0,0.0,0.0,0.0,0.0,0.0,0.0,0.0,0.0,0.0,0.0,0.0,0.0,0.0,0.0,0.0,0.0,0.0,0.0,0.0,0.0,0.0,0.0,0.0,0.0,0.0,0.0,0.0,0.0,0.0,0.0,0.0,0.0,0.0,0.0,0.0,0.0,0.0,0.0,0.0,0.0,0.0,0.0,0.0,0.0,0.0,0.0,0.0,2.0039,2.0337,1.9362,1.8102,1.7286,1.6941,0.0,0.0,0.0,0.0,0.0,0.0,0.0,0.0,0.0,0.0,0.0,0.0,0.0,0.0,0.0,0.0,0.0,0.0,0.0,0.0,0.0,0.0,0.0,0.0,0.0,0.0,0.0,0.0,0.0,0.0,0.0,0.0,0.0,0.0,0.0,0.0,0.0,0.0,0.0,0.0,0.0,0.0,0.0,0.0,0.0,0.0,0.0,0.0,0.0,0.0,0.0,0.0,0.0,0.0,0.0,0.0,0.0,0.0,0.0,0.0,0.0,0.0,0.0,0.0,0.0,0.0,0.0,0.0,0.0,0.0,0.0,0.0,0.0,0.0,0.0,0.0,0.0,0.0,0.0,0.0,0.0,0.0,0.0,0.0,0.0,0.0,0.0,0.0,0.0,0.0,0.0,0.0,0.0,0.0,0.0,0.0,0.0,0.0,0.0,0.0,0.0,0.0,0.0,0.0,0.0,0.0,0.0,0.0,2.0741,2.0174,2.0358,2.155,1.9795,1.7728,0.0,0.0,0.0,0.0,0.0,0.0,0.0,0.0,0.0,0.0,0.0,0.0,0.0,0.0,0.0,0.0,0.0,0.0,0.0,0.0,0.0,0.0,0.0,0.0,0.0,0.0,0.0,0.0,0.0,0.0,0.0,0.0,0.0,0.0,0.0,0.0,0.0,0.0,0.0,0.0,0.0,0.0,0.0,0.0,0.0,0.0,0.0,0.0,0.0,0.0,0.0,0.0,0.0,0.0,0.0,0.0,0.0,0.0,0.0,0.0,0.0,0.0,0.0,0.0,0.0,0.0,0.0,0.0,0.0,0.0,0.0,0.0,0.0,0.0,0.0,0.0,0.0,0.0,0.0,0.0,0.0,0.0,0.0,0.0,0.0,0.0,0.0,0.0,0.0,0.0,0.0,0.0,0.0,0.0,0.0,0.0,0.0,0.0,0.0,0.0,0.0,0.0,0.0,0.0,0.0,0.0,0.0,0.0,0.0,1.7101,1.7654,1.9896,2.3724,1.9773,1.7715,0.0,0.0,0.0,0.0,0.0,0.0,0.0,0.0,0.0,0.0,0.0,0.0,0.0,0.0,0.0,0.0,0.0,0.0,0.0,0.0,0.0,0.0,0.0,0.0,0.0,0.0,0.0,0.0,0.0,0.0,0.0,0.0,0.0,0.0,0.0,0.0,0.0,0.0,0.0,0.0,0.0,0.0,0.0,0.0,0.0,0.0,0.0,0.0,0.0,0.0,0.0,0.0,0.0,0.0,0.0,0.0,0.0,0.0,0.0,0.0,0.0,0.0,0.0,0.0,0.0,0.0,0.0,0.0,0.0,0.0,0.0,0.0,0.0,0.0,0.0,0.0,0.0,0.0,0.0,0.0,0.0,0.0,0.0,0.0,0.0,0.0,0.0,0.0,0.0,0.0,0.0,0.0,0.0,0.0,0.0,0.0,0.0,0.0,0.0,0.0,0.0,0.0,0.0,0.0,0.0,0.0,0.0,0.0,0.0,1.7585,1.9453,2.1775,2.4197,2.0452,1.8028,0.0,0.0,0.0,0.0,0.0,0.0,0.0,0.0,0.0,0.0,0.0,0.0,0.0,0.0,0.0,0.0,0.0,0.0,0.0,0.0,0.0,0.0,0.0,0.0,0.0,0.0,0.0,0.0,0.0,0.0,0.0,0.0,0.0,0.0,0.0,0.0,0.0,0.0,0.0,0.0,0.0,0.0,0.0,0.0,0.0,0.0,0.0,0.0,0.0,0.0,0.0,0.0,0.0,0.0,0.0,0.0,0.0,0.0,0.0,0.0,0.0,0.0,0.0,0.0,0.0,0.0,0.0,0.0,0.0,0.0,0.0,0.0,0.0,0.0,0.0,0.0,0.0,0.0,0.0,0.0,0.0,0.0,0.0,0.0,0.0,0.0,0.0,0.0,0.0,0.0,0.0,0.0,0.0,0.0,0.0,0.0,0.0,0.0,0.0,0.0,0.0,0.0,0.0,0.0,0.0,0.0,0.0,0.0,1.795,2.2987,2.5943,2.5892,2.288,2.1839,1.8696,0.0,0.0,0.0,0.0,0.0,0.0,0.0,0.0,0.0,0.0,0.0,0.0,0.0,0.0,0.0,0.0,0.0,0.0,0.0,0.0,0.0,0.0,0.0,0.0,0.0,0.0,0.0,0.0,0.0,0.0,0.0,0.0,0.0,0.0,0.0,0.0,0.0,0.0,0.0,0.0,0.0,0.0,0.0,0.0,0.0,0.0,0.0,0.0,0.0,0.0,0.0,0.0,0.0,0.0,0.0,0.0,0.0,0.0,0.0,0.0,0.0,0.0,0.0,0.0,0.0,0.0,0.0,0.0,0.0,0.0,0.0,0.0,0.0,0.0,0.0,0.0,0.0,0.0,0.0,0.0,0.0,0.0,0.0,0.0,0.0,0.0,0.0,0.0,0.0,0.0,0.0,0.0,0.0,0.0,0.0,0.0,0.0,0.0,0.0,0.0,0.0,0.0,0.0,0.0,0.0,0.0,0.0,0.0,0.0,2.0658,2.4361,2.5936,2.4881,2.2135,1.9862,0.0,0.0,0.0,0.0,0.0,0.0,0.0,0.0,0.0,0.0,0.0,0.0,0.0,0.0,0.0,0.0,0.0,0.0,0.0,0.0,0.0,0.0,0.0,0.0,0.0,0.0,0.0,0.0,0.0,0.0,0.0,0.0,0.0,0.0,0.0,0.0,0.0,0.0,0.0,0.0,0.0,0.0,0.0,0.0,0.0,0.0,0.0,0.0,0.0,0.0,0.0,0.0,0.0,0.0,0.0,0.0,0.0,0.0,0.0,0.0,0.0,0.0,0.0,0.0,0.0,0.0,0.0,0.0,0.0,0.0,0.0,0.0,0.0,0.0,0.0,0.0,0.0,0.0,0.0,0.0,0.0,0.0,0.0,0.0,0.0,0.0,0.0,0.0,0.0,0.0,0.0,0.0,0.0,0.0,0.0,0.0,0.0,0.0,0.0,0.0,0.0,0.0,0.0,0.0,0.0,0.0,0.0,0.0,0.0,2.5079,2.836,2.9412,2.7734,2.4595,2.2127,2.0378,0.0,0.0,0.0,0.0,0.0,0.0,0.0,0.0,0.0,0.0,0.0,0.0,0.0,0.0,0.0,0.0,0.0,0.0,0.0,0.0,0.0,0.0,0.0,0.0,0.0,0.0,0.0,0.0,0.0,0.0,0.0,0.0,0.0,0.0,0.0,0.0,0.0,0.0,0.0,0.0,0.0,0.0,0.0,0.0,0.0,0.0,0.0,0.0,0.0,0.0,0.0,0.0,0.0,0.0,0.0,0.0,0.0,0.0,0.0,0.0,0.0,0.0,0.0,0.0,0.0,0.0,0.0,0.0,0.0,0.0,0.0,0.0,0.0,0.0,0.0,0.0,0.0,0.0,0.0,0.0,0.0,0.0,0.0,0.0,0.0,0.0,0.0,0.0,0.0,0.0,0.0,0.0,0.0,0.0,0.0,0.0,0.0,0.0,0.0,0.0,0.0,0.0,0.0,0.0,0.0,0.0,0.0,0.0,3.4229,3.6834,3.5896,3.1211,2.876,2.5285,0.0,0.0,0.0,0.0,0.0,0.0,0.0,0.0,0.0,0.0,0.0,0.0,0.0,0.0,0.0,0.0,0.0,0.0,0.0,0.0,0.0,0.0,0.0,0.0,0.0,0.0,0.0,0.0,0.0,0.0,0.0,0.0,0.0,0.0,0.0,0.0,0.0,0.0,0.0,0.0,0.0,0.0,0.0,0.0,0.0,0.0,0.0,0.0,0.0,0.0,0.0,0.0,0.0,0.0,0.0,0.0,0.0,0.0,0.0,0.0,0.0,0.0,0.0,0.0,0.0,0.0,0.0,0.0,0.0,0.0,0.0,0.0,0.0,0.0,0.0,0.0,0.0,0.0,0.0,0.0,0.0,0.0,0.0,0.0,0.0,0.0,0.0,0.0,0.0,0.0,0.0,0.0,0.0,0.0,0.0,0.0,0.0,0.0,0.0,0.0,0.0,0.0,0.0,0.0,0.0,0.0,0.0,0.0,0.0,3.7222,4.1243,4.0913,3.5737,3.1557,2.7734,0.0,0.0,0.0,0.0,0.0,0.0,0.0,0.0,0.0,0.0,0.0,0.0,0.0,0.0,0.0,0.0,0.0,0.0,0.0,0.0,0.0,0.0,0.0,0.0,0.0,0.0,0.0,0.0,0.0,0.0,0.0,0.0,0.0,0.0,0.0,0.0,0.0,0.0,0.0,0.0,0.0,0.0,0.0,0.0,0.0,0.0,0.0,0.0,0.0,0.0,0.0,0.0,0.0,0.0,0.0,0.0,0.0,0.0,0.0,0.0,0.0,0.0,0.0,0.0,0.0,0.0,0.0,0.0,0.0,0.0,0.0,0.0,0.0,0.0,0.0,0.0,0.0,0.0,0.0,0.0,0.0,0.0,0.0,0.0,0.0,0.0,0.0,0.0,0.0,0.0,0.0,0.0,0.0,0.0,0.0,0.0,0.0,0.0,0.0,0.0,0.0,0.0,0.0,0.0,0.0,0.0,0.0,0.0,3.7276,4.0741,4.4478,4.4646,4.0945,3.5693,3.106,0.0,0.0,0.0,0.0,0.0,0.0,0.0,0.0,0.0,0.0,0.0,0.0,0.0,0.0,0.0,0.0,0.0,0.0,0.0,0.0,0.0,0.0,0.0,0.0,0.0,0.0,0.0,0.0,0.0,0.0,0.0,0.0,0.0,0.0,0.0,0.0,0.0,0.0,0.0,0.0,0.0,0.0,0.0,0.0,0.0,0.0,0.0,0.0,0.0,0.0,0.0,0.0,0.0,0.0,0.0,0.0,0.0,0.0,0.0,0.0,0.0,0.0,0.0,0.0,0.0,0.0,0.0,0.0,0.0,0.0,0.0,0.0,0.0,0.0,0.0,0.0,0.0,0.0,0.0,0.0,0.0,0.0,0.0,0.0,0.0,0.0,0.0,0.0,0.0,0.0,0.0,0.0,0.0,0.0,0.0,0.0,0.0,0.0,0.0,0.0,0.0,0.0,0.0,0.0,0.0,0.0,0.0,0.0,4.0169,4.4367,4.6803,4.7319,4.573,4.01,3.459,0.0,0.0,0.0,0.0,0.0,0.0,0.0,0.0,0.0,0.0,0.0,0.0,0.0,0.0,0.0,0.0,0.0,0.0,0.0,0.0,0.0,0.0,0.0,0.0,0.0,0.0,0.0,0.0,0.0,0.0,0.0,0.0,0.0,0.0,0.0,0.0,0.0,0.0,0.0,0.0,0.0,0.0,0.0,0.0,0.0,0.0,0.0,0.0,0.0,0.0,0.0,0.0,0.0,0.0,0.0,0.0,0.0,0.0,0.0,0.0,0.0,0.0,0.0,0.0,0.0,0.0,0.0,0.0,0.0,0.0,0.0,0.0,0.0,0.0,0.0,0.0,0.0,0.0,0.0,0.0,0.0,0.0,0.0,0.0,0.0,0.0,0.0,0.0,0.0,0.0,0.0,0.0,0.0,0.0,0.0,0.0,0.0,0.0,0.0,0.0,0.0,0.0,0.0,0.0,0.0,0.0,0.0,0.0,4.2046,4.6141,4.7894,4.8063,4.6583,4.1352,3.6073,0.0,0.0,0.0,0.0,0.0,0.0,0.0,0.0,0.0,0.0,0.0,0.0,0.0,0.0,0.0,0.0,0.0,0.0,0.0,0.0,0.0,0.0,0.0,0.0,0.0,0.0,0.0,0.0,0.0,0.0,0.0,0.0,0.0,0.0,0.0,0.0,0.0,0.0,0.0,0.0,0.0,0.0,0.0,0.0,0.0,0.0,0.0,0.0,2.2719,0.0,0.0,0.0,0.0,0.0,0.0,0.0,0.0,0.0,0.0,0.0,0.0,0.0,0.0,0.0,0.0,0.0,0.0,0.0,0.0,0.0,0.0,0.0,0.0,0.0,0.0,0.0,0.0,0.0,0.0,0.0,0.0,0.0,0.0,0.0,0.0,0.0,0.0,0.0,0.0,0.0,0.0,0.0,0.0,0.0,0.0,0.0,0.0,0.0,0.0,0.0,0.0,0.0,0.0,0.0,0.0,0.0,0.0,0.0,4.3644,4.7688,4.9281,4.9304,4.7643,4.3695,3.861,0.0,0.0,0.0,0.0,0.0,0.0,0.0,0.0,0.0,0.0,0.0,0.0,0.0,0.0,0.0,0.0,0.0,0.0,0.0,0.0,0.0,0.0,0.0,0.0,0.0,0.0,0.0,0.0,0.0,0.0,0.0,0.0,0.0,0.0,0.0,0.0,0.0,0.0,0.0,0.0,0.0,0.0,0.0,0.0,0.0,0.0,0.0,0.0,0.0,0.0,0.0,0.0,0.0,0.0,0.0,0.0,0.0,0.0,0.0,0.0,0.0,0.0,0.0,0.0,0.0,0.0,0.0,0.0,0.0,0.0,0.0,0.0,0.0,0.0,0.0,0.0,0.0,0.0,0.0,0.0,0.0,0.0,0.0,0.0,0.0,0.0,0.0,0.0,0.0,0.0,0.0,0.0,0.0,0.0,0.0,0.0,0.0,0.0,0.0,0.0,0.0,0.0,0.0,0.0,0.0,0.0,0.0,4.0046,4.5104,4.9507,5.0795,5.0566,4.8917,4.6208,4.1196,3.3728,0.0,0.0,0.0,0.0,0.0,0.0,0.0,0.0,0.0,0.0,0.0,0.0,0.0,0.0,0.0,0.0,0.0,0.0,0.0,0.0,0.0,0.0,0.0,0.0,0.0,0.0,0.0,0.0,0.0,0.0,0.0,0.0,0.0,0.0,0.0,0.0,0.0,0.0,1.8797,2.2453,0.0,0.0,0.0,0.0,0.0,0.0,0.0,0.0,2.4934,0.0,0.0,0.0,0.0,0.0,0.0,0.0,0.0,0.0,0.0,0.0,0.0,0.0,0.0,0.0,0.0,0.0,0.0,0.0,0.0,0.0,0.0,0.0,0.0,0.0,0.0,0.0,0.0,0.0,0.0,0.0,0.0,0.0,0.0,0.0,0.0,0.0,0.0,0.0,0.0,0.0,0.0,0.0,0.0,0.0,0.0,0.0,0.0,0.0,0.0,0.0,0.0,0.0,0.0,0.0,0.0,4.0418,4.2375,4.6363,5.2536,5.2325,5.1321,4.9628,4.755,4.2362,3.4067,0.0,0.0,0.0,0.0,0.0,0.0,0.0,0.0,0.0,0.0,0.0,0.0,0.0,0.0,0.0,0.0,0.0,0.0,0.0,0.0,0.0,0.0,0.0,0.0,0.0,0.0,0.0,0.0,0.0,0.0,0.0,0.0,0.0,0.0,0.0,0.0,0.0,0.0,0.0,2.7555,2.9104,0.0,0.0,0.0,0.0,0.0,0.0,0.0,0.0,2.5599,0.0,0.0,0.0,0.0,0.0,0.0,0.0,0.0,0.0,0.0,0.0,0.0,0.0,0.0,0.0,0.0,0.0,0.0,0.0,0.0,0.0,0.0,0.0,0.0,0.0,0.0,0.0,0.0,0.0,0.0,0.0,0.0,0.0,0.0,0.0,0.0,0.0,0.0,0.0,0.0,0.0,0.0,0.0,0.0,0.0,0.0,0.0,0.0,0.0,0.0,0.0,0.0,0.0,0.0,0.0,4.0569,4.5905,5.0318,5.3639,5.434,5.3112,4.9948,4.7777,4.262,0.0,0.0,0.0,0.0,0.0,0.0,0.0,0.0,0.0,0.0,0.0,0.0,0.0,0.0,0.0,0.0,0.0,0.0,0.0,0.0,0.0,0.0,0.0,0.0,0.0,0.0,0.0,0.0,0.0,0.0,0.0,0.0,0.0,0.0,0.0,0.0,0.0,0.0,0.0,0.0,3.0133,3.149,3.4281,0.0,0.0,0.0,0.0,0.0,0.0,2.8503,2.671,0.0,0.0,0.0,0.0,0.0,0.0,0.0,0.0,0.0,0.0,0.0,0.0,0.0,0.0,0.0,0.0,0.0,0.0,0.0,0.0,0.0,0.0,0.0,0.0,0.0,0.0,0.0,0.0,0.0,0.0,0.0,0.0,0.0,0.0,0.0,0.0,0.0,0.0,0.0,0.0,0.0,0.0,0.0,0.0,0.0,0.0,0.0,0.0,0.0,0.0,0.0,0.0,0.0,0.0,0.0,3.9824,4.814,5.3108,5.4481,5.5676,5.434,5.0227,4.7734,4.2385,0.0,0.0,0.0,0.0,0.0,0.0,0.0,0.0,0.0,0.0,0.0,0.0,0.0,0.0,0.0,0.0,0.0,0.0,0.0,0.0,0.0,0.0,0.0,0.0,0.0,0.0,0.0,0.0,0.0,0.0,0.0,0.0,0.0,0.0,0.0,0.0,0.0,0.0,0.0,0.0,0.0,3.3774,3.666,3.3869,0.0,0.0,0.0,0.0,3.1786,3.0585,0.0,0.0,0.0,0.0,0.0,0.0,0.0,0.0,0.0,0.0,0.0,0.0,0.0,0.0,0.0,0.0,0.0,0.0,0.0,0.0,0.0,0.0,0.0,0.0,0.0,0.0,0.0,0.0,0.0,0.0,0.0,0.0,0.0,0.0,0.0,0.0,0.0,0.0,0.0,0.0,0.0,0.0,0.0,0.0,0.0,0.0,0.0,0.0,0.0,0.0,0.0,0.0,0.0,0.0,0.0,0.0,4.0314,4.6003,5.1285,5.5868,5.5225,5.3437,5.0827,4.7719,4.1861,0.0,0.0,0.0,0.0,0.0,0.0,0.0,0.0,0.0,0.0,0.0,0.0,0.0,0.0,0.0,0.0,0.0,0.0,0.0,0.0,0.0,0.0,0.0,0.0,0.0,0.0,0.0,0.0,0.0,0.0,0.0,0.0,0.0,0.0,0.0,0.0,0.0,0.0,0.0,0.0,0.0,3.6638,3.5239,3.4116,3.3267,0.0,0.0,3.3118,3.6025,3.6582,0.0,0.0,0.0,0.0,0.0,0.0,0.0,0.0,0.0,0.0,0.0,0.0,0.0,0.0,0.0,0.0,0.0,0.0,0.0,0.0,0.0,0.0,0.0,0.0,0.0,0.0,0.0,0.0,0.0,0.0,0.0,0.0,0.0,0.0,0.0,0.0,0.0,0.0,0.0,0.0,0.0,0.0,0.0,0.0,0.0,0.0,0.0,0.0,0.0,0.0,0.0,0.0,0.0,0.0,0.0,3.6995,4.1794,4.8814,5.345,5.5485,5.5672,5.4035,5.0606,4.8016,4.2521,0.0,0.0,0.0,0.0,0.0,0.0,0.0,0.0,0.0,0.0,0.0,0.0,0.0,0.0,0.0,0.0,0.0,0.0,0.0,0.0,0.0,0.0,0.0,0.0,0.0,0.0,0.0,0.0,0.0,0.0,0.0,0.0,0.0,0.0,0.0,0.0,0.0,0.0,0.0,0.0,0.0,0.0,3.9408,3.8209,0.0,0.0,0.0,3.5413,3.6488,0.0,0.0,0.0,0.0,0.0,0.0,0.0,0.0,0.0,0.0,0.0,0.0,0.0,0.0,0.0,0.0,0.0,0.0,0.0,0.0,0.0,0.0,0.0,0.0,0.0,0.0,0.0,0.0,0.0,0.0,0.0,0.0,0.0,0.0,0.0,0.0,0.0,0.0,0.0,0.0,0.0,0.0,0.0,0.0,0.0,0.0,0.0,0.0,0.0,0.0,0.0,0.0,0.0,0.0,0.0,0.0,0.0,4.2872,5.1098,5.5409,5.5454,5.6021,5.4608,5.1041,4.8687,0.0,0.0,0.0,0.0,0.0,0.0,0.0,0.0,0.0,0.0,0.0,0.0,0.0,0.0,0.0,0.0,0.0,0.0,0.0,0.0,0.0,0.0,0.0,0.0,0.0,0.0,0.0,1.2612,0.0,0.0,0.0,0.0,0.0,0.0,0.0,0.0,0.0,0.0,0.0,0.0,0.0,0.0,3.9909,4.2362,4.1899,4.1482,0.0,0.0,3.8268,3.8551,3.9913,3.9309,0.0,0.0,0.0,0.0,0.0,0.0,0.0,0.0,0.0,0.0,0.0,0.0,0.0,0.0,0.0,0.0,0.0,0.0,0.0,0.0,0.0,0.0,0.0,0.0,0.0,0.0,0.0,0.0,0.0,0.0,0.0,0.0,0.0,0.0,0.0,0.0,0.0,0.0,0.0,0.0,0.0,0.0,0.0,0.0,0.0,0.0,0.0,0.0,0.0,0.0,0.0,0.0,0.0,0.0,0.0,4.3177,5.0786,5.5471,5.6826,5.5874,5.4557,5.2989,4.9881,4.4076,0.0,0.0,0.0,0.0,0.0,0.0,0.0,0.0,0.0,0.0,0.0,0.0,0.0,0.0,0.0,0.0,0.0,0.0,0.0,0.0,0.0,0.0,0.0,0.0,0.0,0.0,0.0,0.0,0.0,0.0,0.0,0.0,0.0,0.0,0.0,0.0,0.0,0.0,0.0,0.0,0.0,4.0258,4.1226,4.3564,4.5247,0.0,0.0,4.2646,4.4748,4.5692,4.3579,3.5729,0.0,0.0,0.0,0.0,0.0,0.0,0.0,0.0,0.0,0.0,0.0,0.0,0.0,0.0,0.0,0.0,0.0,0.0,0.0,0.0,0.0,0.0,0.0,0.0,0.0,0.0,0.0,0.0,0.0,0.0,0.0,0.0,0.0,0.0,0.0,0.0,0.0,0.0,0.0,0.0,0.0,0.0,0.0,0.0,0.0,0.0,0.0,0.0,0.0,0.0,0.0,0.0,0.0,3.9203,4.2632,5.0784,5.551,5.6475,5.5671,5.4576,5.3228,5.0014,4.5233,0.0,0.0,0.0,0.0,0.0,0.0,0.0,0.0,0.0,0.0,0.0,0.0,0.0,0.0,0.0,0.0,0.0,0.0,0.0,0.0,0.0,0.0,0.0,0.0,0.0,0.0,0.0,0.0,2.3083,2.388,2.3228,0.0,0.0,0.0,0.0,0.0,0.0,0.0,0.0,0.0,0.0,4.3798,4.5726,4.7322,0.0,0.0,4.7188,4.6215,4.7531,4.6027,4.3166,3.8685,3.6406,0.0,0.0,0.0,0.0,0.0,0.0,0.0,0.0,0.0,0.0,0.0,0.0,0.0,0.0,0.0,0.0,0.0,0.0,0.0,0.0,0.0,0.0,0.0,0.0,0.0,0.0,0.0,0.0,0.0,0.0,0.0,0.0,0.0,0.0,0.0,0.0,0.0,0.0,0.0,0.0,0.0,0.0,0.0,0.0,0.0,0.0,0.0,0.0,0.0,0.0,0.0,0.0,3.9436,4.2901,5.1229,5.591,5.6748,5.6119,5.5222,5.4067,5.0882,4.6832,0.0,0.0,0.0,0.0,0.0,0.0,0.0,0.0,0.0,0.0,0.0,0.0,0.0,0.0,0.0,0.0,0.0,0.0,0.0,0.0,0.0,0.0,0.0,0.0,0.0,0.0,0.0,0.0,2.5724,2.6044,2.4499,0.0,0.0,0.0,0.0,0.0,0.0,0.0,0.0,0.0,0.0,4.7185,4.9368,5.0068,5.04,5.0508,4.8655,4.7411,4.7944,4.6146,4.3836,4.1189,0.0,0.0,0.0,0.0,0.0,0.0,0.0,0.0,0.0,0.0,0.0,0.0,0.0,0.0,0.0,0.0,0.0,0.0,0.0,0.0,0.0,0.0,0.0,0.0,0.0,0.0,0.0,0.0,0.0,0.0,1.7006,0.0,0.0,0.0,0.0,0.0,0.0,0.0,0.0,0.0,0.0,0.0,0.0,0.0,0.0,0.0,0.0,0.0,0.0,0.0,0.0,0.0,0.0,3.9866,4.4263,5.2091,5.6778,5.7979,5.7423,5.6718,5.6042,5.2905,4.8848,4.4004,0.0,0.0,0.0,0.0,0.0,0.0,0.0,0.0,0.0,0.0,0.0,0.0,0.0,0.0,0.0,0.0,0.0,0.0,0.0,0.0,0.0,0.0,0.0,0.0,0.0,0.0,2.0864,2.3825,2.5708,0.0,0.0,0.0,0.0,0.0,0.0,0.0,0.0,0.0,0.0,4.6604,4.9911,5.1028,5.1178,5.0801,4.9473,4.7376,4.5888,4.6082,4.6966,4.6568,0.0,0.0,0.0,0.0,0.0,0.0,0.0,0.0,0.0,0.0,0.0,0.0,0.0,0.0,0.0,0.0,0.0,0.0,0.0,0.0,0.0,0.0,0.0,0.0,0.0,0.0,0.0,2.3816,2.2868,0.0,0.0,0.0,0.0,0.0,0.0,0.0,0.0,0.0,0.0,0.0,3.7525,3.8307,0.0,0.0,0.0,0.0,0.0,0.0,0.0,0.0,0.0,0.0,0.0,0.0,4.0812,4.4499,5.2534,5.7214,5.8055,5.7453,5.6808,5.6192,5.3815,4.9629,4.3518,0.0,0.0,0.0,0.0,0.0,0.0,0.0,0.0,0.0,0.0,0.0,0.0,0.0,0.0,0.0,0.0,0.0,0.0,0.0,0.0,0.0,0.0,0.0,0.0,0.0,2.4972,0.0,0.0,0.0,0.0,0.0,0.0,0.0,0.0,0.0,0.0,0.0,4.1281,4.5266,4.8581,5.1336,5.3196,5.3467,5.377,0.0,0.0,0.0,0.0,0.0,0.0,0.0,0.0,0.0,0.0,0.0,0.0,0.0,0.0,4.0966,3.5921,3.3621,3.2822,3.3837,0.0,0.0,0.0,0.0,0.0,0.0,0.0,0.0,0.0,0.0,0.0,0.0,0.0,0.0,2.8741,0.0,2.7615,0.0,0.0,0.0,0.0,0.0,0.0,0.0,0.0,3.9266,4.1552,4.2136,4.2911,4.2615,0.0,4.0,3.6844,0.0,0.0,0.0,0.0,0.0,0.0,0.0,0.0,4.201,4.5855,5.3204,5.7304,5.7709,5.7334,5.6808,5.6192,5.4024,5.0541,4.5677,4.2737,3.9747,0.0,0.0,0.0,0.0,0.0,0.0,0.0,0.0,0.0,0.0,0.0,0.0,0.0,0.0,0.0,0.0,0.0,0.0,0.0,0.0,0.0,0.0,0.0,2.7738,0.0,0.0,0.0,0.0,0.0,0.0,0.0,0.0,0.0,3.4712,4.0544,4.6028,4.9391,5.1971,5.389,5.4837,0.0,0.0,0.0,0.0,0.0,0.0,0.0,4.7842,4.8334,4.6467,4.4647,4.4049,4.6014,4.7424,4.6655,0.0,0.0,4.1711,3.9289,3.8684,3.9955,4.0781,4.155,4.2312,4.3627,4.4759,0.0,0.0,0.0,0.0,0.0,0.0,0.0,0.0,3.3807,3.345,0.0,3.3426,0.0,0.0,0.0,0.0,0.0,3.647,0.0,0.0,4.6323,4.8353,4.8008,4.7292,4.7686,4.8866,4.681,4.4646,4.2322,3.8565,0.0,0.0,0.0,0.0,0.0,0.0,4.358,4.845,5.4264,5.7214,5.7257,5.7197,5.6868,5.6162,5.3665,5.1636,5.017,4.5839,4.265,4.0931,3.3972,0.0,0.0,0.0,0.0,0.0,0.0,0.0,0.0,0.0,0.0,0.0,0.0,0.0,0.0,0.0,0.0,0.0,0.0,0.0,0.0,2.8841,0.0,0.0,0.0,0.0,0.0,0.0,0.0,0.0,0.0,0.0,4.1186,4.5466,5.0093,5.3932,0.0,0.0,0.0,0.0,5.5277,5.3991,5.1819,5.0247,4.9645,5.1725,5.3441,5.3577,0.0,0.0,5.2113,5.3779,5.4417,5.1023,5.3226,5.4163,4.9091,4.6166,4.4763,4.5497,4.6202,4.7152,4.9201,5.1282,5.3372,3.7192,0.0,0.0,0.0,0.0,3.5029,3.6903,3.961,3.9787,3.933,3.8455,3.8769,0.0,0.0,0.0,0.0,0.0,0.0,4.1053,4.4628,4.673,4.8597,5.0234,4.9582,4.9604,5.0237,4.8918,4.8148,4.7929,4.7273,4.1771,3.2006,0.0,0.0,0.0,0.0,4.7947,5.1827,5.6718,5.9232,5.9232,5.877,5.7766,5.6252,5.4533,5.2995,5.1678,4.9851,4.6873,4.2671,3.9896,0.0,0.0,0.0,0.0,0.0,0.0,0.0,0.0,0.0,0.0,0.0,0.0,0.0,0.0,0.0,0.0,0.0,0.0,0.0,2.8055,3.2042,3.367,0.0,0.0,0.0,0.0,0.0,0.0,0.0,0.0,0.0,4.8776,5.0757,5.2278,0.0,0.0,5.5809,5.4355,5.5474,5.6704,5.7349,5.6421,0.0,0.0,5.5446,5.4812,5.6402,5.735,5.7439,5.6193,5.6696,5.6925,5.5806,5.6534,5.6733,5.5401,5.4032,5.3385,5.4051,5.4379,5.4674,5.5365,5.6114,5.6834,4.2933,3.909,3.7795,3.8036,3.9379,4.0053,4.1827,4.4302,4.4575,4.4256,4.3653,4.4091,4.2481,3.9366,3.8404,0.0,0.0,0.0,4.4458,4.7748,4.8408,4.9459,5.0722,5.0411,5.0442,5.0911,5.0061,5.0122,5.0996,5.1279,4.7186,3.9081,0.0,0.0,4.106,4.6516,5.1127,5.4725,5.8274,5.998,5.9697,5.8813,5.7633,5.6252,5.5162,5.3982,5.2648,5.1696,4.9569,4.606,4.3935,4.1243,0.0,0.0,0.0,0.0,0.0,0.0,0.0,0.0,0.0,0.0,0.0,2.2012,0.0,0.0,0.0,0.0,3.0763,3.2744,3.4974,3.7748,0.0,0.0,0.0,0.0,0.0,0.0,0.0,4.419,4.8365,5.1631,5.3276,5.4175,5.465,5.4677,5.5899,5.6274,5.4864,0.0,5.8847,5.9141,5.8813,5.8731,5.9282,5.7836,5.7227,5.9047,5.9367,5.9462,5.9633,5.9669,5.9804,6.0005,6.0135,6.0202,6.051,6.0193,5.9432,5.8546,5.8346,5.8524,5.9109,5.9257,5.9552,4.8188,4.7368,4.4477,4.3842,4.481,4.5434,4.6386,4.7559,4.8128,4.8147,4.7907,4.8914,4.737,4.3944,4.2674,0.0,4.7255,4.7937,4.9223,5.1053,5.1053,5.0914,5.0589,5.0626,5.0936,5.1517,5.0907,5.1236,5.2384,5.2269,5.1333,4.979,4.9217,4.8736,4.8488,5.0509,5.3473,5.7214,5.9172,5.9877,5.9279,5.7902,5.6898,5.6372,5.57,5.4713,5.3408,5.2145,5.1086,5.0219,4.6614,4.4276,4.3388,0.0,0.0,0.0,0.0,0.0,0.0,0.0,0.0,0.0,0.0,0.0,0.0,0.0,0.0,0.0,4.1015,0.0,4.5628,4.4573,0.0,0.0,0.0,4.0572,4.2559,4.6168,4.8746,4.9335,0.0,0.0,5.5538,5.6097,5.701,5.8268,5.8538,5.8086,5.6662,5.9328,6.113,5.9881,5.9755,5.9511,5.9143,5.9224,5.9822,6.0996,6.1548,6.1515,6.1888,6.2021,6.2471,6.2799,6.322,6.3276,6.4107,6.3768,6.3235,5.9706,5.9395,5.996,6.1221,6.1433,6.164,5.041,5.0253,4.9997,4.923,4.8153,4.8293,4.8803,4.9471,4.9206,4.928,4.9576,4.9872,4.9734,4.9356,4.9505,5.0093,5.0921,5.1084,5.1992,5.3344,5.3405,5.3609,5.4024,5.4012,5.4102,5.4234,5.4102,5.4192,5.4486,5.4927,5.4686,5.3857,5.4127,5.278,4.9997,5.3247,5.6209,5.862,6.0103,6.0791,6.0581,5.8816,5.7799,5.7663,5.7004,5.606,5.4773,5.3922,5.2713,5.1026,4.9535,4.8529,4.7988,4.0011,0.0,0.0,0.0,0.0,0.0,0.0,0.0,0.0,0.0,3.0673,2.4715,0.0,3.4472,0.0,4.6711,4.9619,4.6075,4.6887,0.0,0.0,4.4523,4.4385,5.032,5.0132,5.0631,5.3467,5.561,5.7097,5.7683,5.7561,5.7971,5.9331,5.9379,5.8751,5.7413,5.9661,6.151,6.1221,6.1536,6.1708,6.1016,6.0642,6.0566,6.0868,6.0933,6.0931,6.1105,6.1124,6.1142,6.1351,6.1351,6.1431,6.1746,6.1607,6.1462,6.0651,6.1848,6.3362,6.3758,6.3007,6.2453,5.2982,5.3025,5.3384,5.3067,5.23,5.1432,5.1211,5.1487,5.1193,5.1211,5.1558,5.1517,5.1905,5.2552,5.2923,5.3276,5.3545,5.3545,5.3922,5.464,5.464,5.485,5.5192,5.5222,5.5222,5.5222,5.5222,5.5341,5.5671,5.6299,5.6718,5.6944,5.7616,5.6808,5.4777,5.6256,5.7603,5.8667,6.0282,6.1239,6.1479,5.9877,5.8278,5.6885,5.6735,5.5521,5.3072,5.3192,5.2127,4.9632,4.9112,4.8867,4.8708,4.3505,4.0888,0.0,0.0,0.0,0.0,0.0,0.0,0.0,0.0,0.0,0.0,0.0,4.0149,0.0,4.919,5.2013,4.7807,4.9234,5.079,5.1735,5.0045,5.0743,5.5464,5.4939,5.4791,5.6252,5.7427,5.8287,5.8707,5.8543,5.8996,6.065,6.1019,6.059,5.955,6.1355,6.3009,6.2738,6.3013,6.3063,6.2425,6.1988,6.1756,6.1699,6.1696,6.1669,6.1614,6.1586,6.1687,6.2005,6.2089,6.2209,6.2515,6.2566,6.2597,6.2768,6.3682,6.415,6.3144,6.2288,6.1947,5.5461,5.5461,5.5461,5.579,5.6162,5.4443,5.3635,5.3588,5.3486,5.3456,5.3468,5.3558,5.3905,5.4448,5.4538,5.491,5.5418,5.5431,5.5491,5.5581,5.5568,5.5671,5.582,5.5807,5.588,5.5957,5.5957,5.6269,5.6821,5.7377,5.8171,5.9219,5.9831,6.001,5.9801,5.8846,5.8354,5.8367,6.0013,6.1104,6.1553,6.028,5.8185,5.5401,5.591,5.4653,5.1206,5.1935,5.1098,4.8267,4.7897,4.7951,4.8317,4.6894,4.5484,0.0,4.2624,0.0,0.0,0.0,0.0,0.0,0.0,0.0,0.0,4.6274,4.6847,4.4543,5.0486,5.3404,5.0956,5.2103,5.3732,5.5559,5.6244,5.7066,5.8262,5.8919,5.8943,5.806,5.8541,5.9001,5.9325,5.9368,6.0086,6.1711,6.2502,6.2557,6.2028,6.3448,6.4632,6.4201,6.4053,6.3722,6.3295,6.3117,6.2946,6.2788,6.2649,6.2721,6.2393,6.2397,6.2631,6.3156,6.3157,6.3467,6.432,6.4284,6.4273,6.4013,6.4106,6.3634,6.2121,6.1439,6.1404,5.6735,5.6735,5.6748,5.6808,5.6898,5.6539,5.609,5.5593,5.5042,5.4803,5.4862,5.5414,5.5726,5.585,5.6316,5.6615,5.6748,5.6735,5.7034,5.7547,5.756,5.8141,5.9129,5.9172,5.9458,5.9953,5.9997,6.0043,6.0176,6.0296,6.0206,5.9921,6.0054,5.9548,5.8577,0.0,0.0,0.0,5.9578,5.9279,5.8816,5.7616,5.6389,5.5281,5.6329,0.0,5.5132,5.4281,5.3282,5.2139,5.1038,0.0,0.0,0.0,0.0,0.0,0.0,0.0,0.0,0.0,0.0,0.0,4.4411,4.522,4.6189,5.0566,5.2258,4.9816,5.3895,5.6797,5.6829,5.7092,5.747,5.7841,5.7691,5.7655,5.7911,5.775,5.7842,5.878,5.8981,5.9516,6.0501,6.0731,6.106,6.2032,6.2704,6.3422,6.4171,6.4681,6.4949,6.4785,6.4486,6.4052,6.3857,6.3482,6.315,6.2429,6.2232,6.2115,6.1709,6.1537,6.1458,6.1781,6.1615,6.1769,6.1928,6.1815,6.2099,6.186,6.1905,6.2269,6.3709,6.3255,6.2656,5.9056,0.0,5.9069,5.9056,0.0,5.9069,5.8876,5.8514,5.6855,5.6149,5.6149,5.6479,5.7017,5.7646,5.7975,5.8441,5.9056,5.9099,5.9235,5.9564,5.958,5.9953,6.0609,6.0595,6.0775,6.109,6.109,6.109,6.112,6.1419,6.1433,6.1074,6.0563,6.052,6.1032,6.2017,6.2032,6.1088,6.0745,6.0595,6.0535,5.9621,5.8304,5.6765,0.0,0.0,0.0,0.0,0.0,0.0,0.0,0.0,0.0,0.0,0.0,4.897,4.7151,4.6008,4.6044,4.6351,4.7659,5.0241,5.1426,5.1884,5.1585,5.5052,5.6509,5.4836,5.655,5.7828,5.8119,5.7952,5.8084,5.8702,5.8882,5.9058,5.9344,5.9218,5.9338,5.9937,6.0103,6.0462,6.1449,6.1583,6.2002,6.2899,6.3617,6.4485,6.5682,6.5712,6.5577,6.5936,6.5742,6.5503,6.5443,6.5278,6.4605,6.3827,6.3558,6.3244,6.2646,6.2526,6.2643,6.292,6.3036,6.292,6.2595,6.2519,6.2443,6.218,6.2094,6.2541,6.4063,6.3193,6.2171,6.0936,6.0681,6.0978,6.109,6.109,6.109,6.109,6.0954,0.0,0.0,0.0,5.7812,5.8411,5.9428,5.9458,6.0073,6.109,6.109,6.109,6.109,6.109,6.1136,6.1269,6.1269,6.1329,6.1463,6.1449,6.1449,6.1465,6.1716,6.1885,6.1845,6.0768,6.1349,6.361,6.4561,6.4231,6.269,6.2151,6.2076,6.2375,6.1732,6.0296,5.7965,5.8667,5.7842,5.5209,5.6,5.5209,5.2414,5.1505,5.1185,5.1368,5.0768,5.1248,5.3122,5.3795,5.4132,5.4196,5.469,5.5437,5.6363,5.7287,5.741,5.6611,5.8415,5.9399,5.8817,5.8632,5.8497,5.8378,5.8049,5.8231,5.9368,5.9937,6.0489,6.0984,6.109,6.103,6.1239,6.1239,6.1539,6.2151,6.2391,6.278,6.3797,6.447,6.5413,6.6475,6.6551,6.6581,6.7,6.6879,6.6879,6.6939,6.6849,6.6475,6.5278,6.5099,6.4919,6.4381,6.4186,6.4407,6.4696,6.5001,6.4675,6.4255,6.4107,6.4017,6.3527,6.3453,6.3573,6.3887,6.2959,6.2177,6.024,5.8987,6.0468,6.109,6.109,6.109,6.109,6.106,6.0687,6.0521,6.0521,6.0521,6.0641,6.0821,6.0821,6.091,6.109,6.109,6.109,6.109,6.109,6.1389,6.1942,6.1942,6.2255,6.2794,6.281,6.2824,6.268,6.138,6.097,6.1159,5.9817,6.0246,6.2485,6.4156,6.4874,6.4545,6.2406,6.0731,5.9697,5.8996,5.8218,5.7363,5.8501,5.8919,5.8427,5.8038,5.7363,5.6316,5.5119,5.4278,5.3753,5.3122,5.2881,5.3175,5.3307,5.338,5.3361,5.3452,5.4298,5.6098,5.7855,5.8355,5.7186,5.8704,5.9809,5.9874,6.0253,6.0647,6.062,6.0496,6.0521,6.0791,6.088,6.103,6.1239,6.121,6.1449,6.1972,6.1986,6.2255,6.2914,6.3422,6.3737,6.4066,6.477,6.5368,6.6251,6.7059,6.7658,6.7748,6.7343,6.7029,6.6999,6.6999,6.664,6.5996,6.5832,6.5577,6.4979,6.4845,6.4948,6.502,6.5142,6.5024,6.4875,6.4872,6.4755,6.4606,6.4591,6.4696,6.483,6.4516,6.4396,5.8969,5.8349,5.909,5.9576,5.9907,6.0819,6.1776,6.2601,6.2345,6.1762,6.112,6.109,6.1299,6.1642,6.1642,6.1852,6.2181,6.2195,6.2195,6.2181,6.2181,6.2345,6.2528,6.1673,6.1541,6.2038,6.0878,6.0625,6.1058,6.0105,5.9858,6.0305,5.9933,6.0364,6.1534,6.3573,6.4919,6.5503,6.4007,6.29,6.2316,6.2017,6.1539,6.0878,6.1463,6.1433,6.0745,6.0446,5.9953,5.9295,5.8022,5.7184,5.6885,5.6213,5.5538,5.4905,5.5478,5.5688,5.5341,5.6,5.6958,5.8228,5.9142,5.9727,5.9831,6.0244,6.0536,6.0634,6.094,6.1239,6.1583,6.1642,6.1912,6.2616,6.2391,6.248,6.3034,6.2855,6.2959,6.3543,6.3663,6.3782,6.4082,6.4381,6.453,6.462,6.5398,6.6295,6.6954,6.7553,6.7868,6.7508,6.7194,6.7029,6.6999,6.6999,6.67,6.6116,6.6011,6.5877,6.5577,6.5547,6.5697,6.6027,6.6087,6.5921,6.5664,6.553,6.5412,6.5024,6.5009,6.5114,6.5413,6.5817,6.5817,5.7767,5.7432,5.7968,5.8426,5.8905,6.0191,6.1693,6.3076,6.2263,6.1892,6.1765,6.1628,6.1852,6.2271,6.2315,6.2398,6.2481,6.2496,6.2292,6.1983,6.2086,6.2145,6.2012,6.0839,6.0512,6.0695,5.9153,5.8792,5.945,5.8811,5.8483,5.8781,5.9685,6.0254,6.0405,6.2568,6.4306,6.549,6.5123,6.4903,6.5024,6.4994,6.4755,6.4276,6.4216,6.3767,6.2839,6.2735,6.2391,6.1583,6.0402,5.9638,5.9338,5.8697,5.7902,5.7077,5.7769,5.8098,5.7693,5.88,5.9757,6.031,6.0759,6.1403,6.2331,6.2211,6.1883,6.1778,6.1987,6.2287,6.272,6.281,6.3169,6.4066,6.3797,6.3887,6.4725,6.453,6.4425,6.4904,6.4994,6.4964,6.5024,6.5114,6.5293,6.5607,6.637,6.7194,6.7643,6.7778,6.7523,6.7194,6.6999,6.6999,6.6999,6.6999,6.6789,6.6281,6.6251,6.6281,6.6221,6.6221,6.637,6.6805,6.6924,6.6728,6.6321,6.6219,6.6056,6.5682,6.5622,6.5697,6.6146,6.655,6.667,5.7064,5.6074,5.7792,5.8765,5.8827,5.8992,5.9808,6.0636,5.9192,6.0524,6.3251,6.3139,6.2842,6.3003,6.2917,6.2101,6.0853,6.075,6.0007,5.8793,5.8999,5.9189,5.9432,5.9536,5.9711,5.9734,5.9362,5.9145,5.9292,5.799,5.6799,5.6175,5.7973,5.9077,5.933,6.0927,6.2699,6.4432,6.4406,6.458,6.4964,6.4994,6.4964,6.4904,6.4904,6.4874,6.4605,6.4725,6.4186,6.3003,6.2211,6.1268,6.0146,5.9398,5.8979,5.886,5.8996,5.8979,5.9039,6.0162,6.1,6.112,6.263,6.3588,6.3797,6.4291,6.4351,6.3902,6.4261,6.447,6.4725,6.465,6.4635,6.4829,6.4785,6.4889,6.5039,6.4964,6.4949,6.4964,6.5144,6.5024,6.5218,6.5607,6.6116,6.655,6.6789,6.7029,6.7148,6.7194,6.7178,6.7029,6.6999,6.6999,6.6999,6.6999,6.6909,6.6849,6.6879,6.6819,6.6789,6.6819,6.6954,6.6909,6.6999,6.6908,6.6908,6.6894,6.6864,6.6775,6.6729,6.6864,6.6909,6.7059,6.7014,5.5596,5.5057,5.6262,5.7599,5.8751,5.8822,5.945,6.0402,5.943,5.9926,6.1219,6.1129,6.1601,6.2545,6.1524,6.0624,5.9981,5.9965,5.9631,5.8985,5.9185,5.9444,5.9693,5.8575,5.8456,5.8892,5.7462,5.6981,5.7372,5.6886,5.6336,5.5994,5.6876,5.7806,5.885,5.9626,6.0886,6.2689,6.3752,6.4402,6.4671,6.5629,6.5996,6.5622,6.5607,6.5383,6.5054,6.4994,6.477,6.4231,6.3588,6.3003,6.2421,6.2151,6.1822,6.1537,6.1792,6.2002,6.2002,6.2885,6.3409,6.3409,6.4111,6.459,6.462,6.5174,6.5458,6.5248,6.5099,6.4994,6.5024,6.4994,6.5144,6.5443,6.5233,6.5308,6.6101,6.5817,6.5727,6.6086,6.6191,6.6161,6.6221,6.643,6.67,6.6939,6.6999,6.6999,6.6999,6.6999,6.6999,6.6999,6.6999,6.6999,6.6999,6.6999,6.6999,6.6999,6.6999,6.6999,6.7029,6.6999,6.6999,6.7014,6.7089,6.7089,6.6954,6.7029,6.7059,6.7403,6.7986,6.8166,6.8166,6.8166,6.8196,5.4597,5.4697,5.5182,5.6374,5.791,5.79,5.8566,5.9432,5.8637,5.8823,5.9737,5.8892,5.9566,6.1025,6.0097,5.9391,5.8946,5.8896,5.8631,5.8318,5.8386,5.8648,5.8895,5.7649,5.7267,5.7652,5.6081,5.5512,5.6143,5.6219,5.6219,5.6219,5.6219,5.6859,5.802,5.8179,5.906,6.0784,6.2197,6.328,6.4297,6.5592,6.6269,6.625,6.6281,6.6026,6.5562,6.5547,6.5458,6.5263,6.48,6.4455,6.4306,6.4261,6.4096,6.3707,6.4006,6.4261,6.4261,6.474,6.4994,6.5024,6.5144,6.5263,6.5398,6.5877,6.6236,6.6221,6.5817,6.5577,6.5532,6.5547,6.5787,6.6191,6.5817,6.6011,6.6805,6.652,6.646,6.6909,6.6879,6.6999,6.6969,6.6969,6.6969,6.6969,6.6999,6.6999,6.6999,6.6999,6.6999,6.6999,6.7119,6.7194,6.7059,6.6999,6.6999,6.6999,6.6999,6.7059,6.7194,6.7284,6.7467,6.7785,6.7586,6.7583,6.7807,6.7717,6.7627,6.8151,6.866,6.9004,6.8824,6.8974,6.8974,5.4597,5.468,5.52,5.5573,5.5602,5.5707,5.6261,5.7357,5.5723,5.7007,5.9612,5.7154,5.6944,5.9031,5.9267,5.8675,5.7367,5.7267,5.6548,5.5352,5.5588,5.5663,5.5667,5.6019,5.6307,5.659,5.6257,5.6068,5.6219,5.6219,5.6219,5.6219,5.6219,5.6273,5.6485,5.6496,5.7249,5.8868,5.9375,6.0852,6.3813,6.4345,6.5342,6.6726,6.6954,6.6879,6.6849,6.6894,6.661,6.5966,6.5906,6.5607,6.5054,6.4964,6.4964,6.4949,6.4979,6.4964,6.5009,6.5099,6.5114,6.5144,6.5637,6.5936,6.5996,6.649,6.6819,6.6909,6.6789,6.6759,6.6759,6.667,6.6759,6.6849,6.6879,6.6879,6.6969,6.6909,6.6939,6.6999,6.6999,6.6999,6.6999,6.6999,6.6999,6.6999,6.6999,6.7029,6.7104,6.7059,6.7074,6.7254,6.7524,6.7762,6.7193,6.7298,6.7238,6.7268,6.7478,6.7313,6.7688,6.802,6.8327,6.857,6.8561,6.863,6.884,6.89,6.8824,6.9004,6.9093,6.9273,6.9482,6.9137,6.9197,5.5842,5.6125,5.6351,5.6426,5.6426,5.6426,5.6475,5.6446,5.5897,5.6387,5.7407,5.6428,5.6374,5.7187,5.7339,5.7105,5.6527,5.6509,5.6177,5.5659,5.5817,5.6075,5.6401,5.6276,5.6401,5.6627,5.6376,5.6219,5.6219,5.6219,5.6219,5.6219,5.6219,5.6219,5.6219,5.6219,5.6551,5.7213,5.8268,6.0127,6.2413,6.3716,6.5168,6.6846,6.6999,6.6999,6.6999,6.6999,6.6894,6.664,6.664,6.652,6.6311,6.6281,6.6281,6.6281,6.6281,6.6265,6.6281,6.6265,6.6265,6.6281,6.649,6.661,6.6685,6.6849,6.6999,6.6999,6.6999,6.6999,6.6999,6.6999,6.6999,6.6999,6.6999,6.6999,6.6999,6.6999,6.6999,6.6999,6.6999,6.6999,6.6999,6.6999,6.6999,6.6999,6.6999,6.7224,6.7523,6.7658,6.7751,6.8162,6.8459,6.8549,6.8393,6.8322,6.8286,6.8286,6.8345,6.8375,6.86,6.862,6.8869,6.903,6.9169,6.9236,6.9277,6.9509,6.9554,6.9678,6.9752,6.9915,7.0231,6.9945,7.0005,5.6401,5.6709,5.6753,5.6753,5.6753,5.6753,5.6508,5.6219,5.6219,5.6219,5.6219,5.6219,5.6219,5.6219,5.6219,5.6219,5.6219,5.6212,5.6219,5.6219,5.6219,5.642,5.6627,5.6376,5.6376,5.6652,5.6401,5.6219,5.6219,5.6219,5.6219,5.6219,5.6219,5.6219,5.6219,5.6219,5.6219,5.6485,5.7421,5.8885,6.0682,6.2496,6.4281,6.5905,6.6677,6.6999,6.6999,6.6999,6.6999,6.6999,6.6999,6.6999,6.6999,6.6999,6.6999,6.6999,6.6969,6.6999,6.6999,6.6999,6.6969,6.6999,6.6999,6.6999,6.6999,6.6999,6.6999,6.6999,6.6999,6.6999,6.6999,6.6999,6.6999,6.6999,6.6999,6.6999,6.6999,6.6999,6.6999,6.6999,6.6999,6.6999,6.7029,6.7223,6.7193,6.7059,6.7327,6.782,6.7926,6.8227,6.8425,6.8917,6.9134,6.9279,6.9308,6.9365,6.9048,6.8974,6.8914,6.9064,6.9305,6.9311,6.9387,6.9514,6.9564,6.9613,6.9762,7.004,7.018,7.029,7.038,7.0514,7.0693,7.0783,7.0663,5.6219,5.6269,5.6219,5.6269,5.6294,5.6294,5.6226,5.6219,5.6219,5.6219,5.6219,5.6219,5.6219,5.6219,5.6219,5.6219,5.6219,5.6219,5.6219,5.6219,5.6219,5.6219,5.6269,5.6244,5.6219,5.6276,5.6244,5.6219,5.6219,5.6219,5.6219,5.6219,5.6269,5.6294,5.6219,5.6251,5.6244,5.6273,5.6481,5.731,5.8912,6.0907,6.2778,6.4454,6.6091,6.6999,6.6999,6.6999,6.6999,6.6999,6.6999,6.6999,6.6999,6.6999,6.6999,6.6999,6.6999,6.6999,6.6999,6.6999,6.6999,6.6999,6.6999,6.6999,6.6999,6.6999,6.6999,6.6999,6.6999,6.6999,6.6999,6.7059,6.7059,6.6999,6.6999,6.6999,6.7059,6.7059,6.7029,6.7148,6.7238,6.7059,6.7178,6.7642,6.7791,6.7596,6.8071,6.8666,6.8419,6.872,6.896,6.9231,6.962,6.9969,7.0203,7.0366,6.9881,6.9467,6.9393,6.9423,6.9828,6.9967,7.0103,7.0231,7.0304,7.0338,7.0292,7.0555,7.0601,7.0709,7.0873,7.0903,7.0903,7.0903,7.0903,5.6219,5.6219,5.6219,5.6219,5.6219,5.6219,5.6219,5.6219,5.6219,5.6219,5.6219,5.6219,5.6219,5.6219,5.6219,5.6219,5.6219,5.6219,5.6219,5.6219,5.6219,5.6219,5.6219,5.6219,5.6219,5.6219,5.6219,5.6219,5.6219,5.6219,5.6219,5.6269,5.6577,5.6527,5.6251,5.6552,5.6602,5.6276,5.6577,5.7477,5.8956,6.1031,6.2827,6.4307,6.6044,6.6999,6.6999,6.6999,6.6999,6.6999,6.6999,6.6999,6.6999,6.6999,6.6999,6.6999,6.6999,6.6999,6.6999,6.6999,6.6999,6.6999,6.6999,6.6999,6.6999,6.6999,6.6999,6.6999,6.6999,6.6999,6.7059,6.7433,6.7463,6.7059,6.6999,6.7254,6.7643,6.8062,6.8345,6.8391,6.8375,6.8375,6.8377,6.8602,6.8543,6.8375,6.8772,6.9009,6.9331,6.9468,6.9887,7.026,7.053,7.0544,7.0615,7.0656,7.0405,7.0125,7.0005,6.9931,7.0306,7.0486,7.0682,7.0755,7.0859,7.0903,7.0903,7.0903,7.0903,7.0903,7.0903,7.0903,7.0903,7.0903,7.0903,5.6219,5.6219,5.6219,5.6219,5.6219,5.6219,5.6219,5.6219,5.6219,5.6219,5.6219,5.6219,5.6219,5.6219,5.6219,5.6219,5.6219,5.6219,5.6219,5.6219,5.6219,5.6219,5.6219,5.6219,5.6219,5.6219,5.6219,5.6219,5.6219,5.6219,5.6219,5.6294,5.6552,5.6677,5.6527,5.6809,5.6878,5.6853,5.7154,5.7721,5.8789,6.0633,6.245,6.3923,6.5475,6.66,6.7235,6.7119,6.6999,6.6999,6.6999,6.6999,6.6999,6.6999,6.6999,6.6999,6.6999,6.6999,6.6999,6.6999,6.6999,6.6999,6.6999,6.6999,6.6999,6.6999,6.6999,6.6999,6.6999,6.6999,6.7089,6.7583,6.7732,6.7433,6.7657,6.7912,6.8361,6.8734,6.8944,6.8914,6.8944,6.9004,6.9005,6.9262,6.9206,6.9093,6.9433,6.9624,7.0035,7.0157,7.053,7.0799,7.0799,7.0813,7.0843,7.0873,7.0873,7.0783,7.0693,7.0603,7.0739,7.0739,7.0829,7.0829,7.0903,7.0903,7.0903,7.0903,7.0903,7.0903,7.0903,7.0903,7.0903,7.0903,7.0903,5.6219,5.6219,5.6219,5.6219,5.6219,5.6219,5.6219,5.6219,5.6219,5.6219,5.6219,5.6219,5.6219,5.6219,5.6219,5.6219,5.6219,5.6219,5.6219,5.6219,5.6219,5.6219,5.6219,5.6219,5.6219,5.6219,5.6219,5.6219,5.6219,5.6219,5.6219,5.6219,5.6326,5.6502,5.686,5.7029,5.7305,5.7575,5.7826,5.797,5.8018,5.9796,6.1443,6.3108,6.4362,6.5838,6.7255,6.7293,6.7089,6.6999,6.6999,6.6999,6.6999,6.6999,6.6999,6.6999,6.6999,6.6999,6.6999,6.6999,6.6999,6.6999,6.6999,6.6999,6.6999,6.6999,6.6999,6.6999,6.6999,6.6892,6.6889,6.7641,6.8031,6.8287,6.869,6.8974,6.9034,6.9123,6.9317,6.9273,6.9123,6.9153,6.9303,6.9754,6.9678,6.9602,7.0125,7.038,7.035,7.047,7.0799,7.0903,7.0903,7.0903,7.0903,7.0903,7.0903,7.0903,7.0903,7.0903,7.0903,7.0903,7.0903,7.0903,7.0903,7.0903,7.0903,7.0903,7.0903,7.0903,7.0903,7.0903,7.0903,7.0903,7.0903,5.6219,5.6219,5.6219,5.6219,5.6219,5.6219,5.6219,5.6219,5.6219,5.6219,5.6219,5.6219,5.6219,5.6219,5.6219,5.6219,5.6244,5.6219,5.6219,5.6219,5.6219,5.6219,5.6219,5.6219,5.6219,5.6219,5.6219,5.6219,5.6219,5.6219,5.6219,5.6219,5.6577,5.6835,5.7035,5.743,5.7455,5.7405,5.8133,5.8058,5.783,5.9861,6.1166,6.1381,6.2934,6.4634,6.6467,6.7344,6.7478,6.7029,6.6999,6.6999,6.6999,6.6999,6.6999,6.6999,6.6999,6.6999,6.6999,6.6999,6.6999,6.6999,6.6999,6.6999,6.6999,6.6999,6.6999,6.6999,6.6983,6.6384,6.5752,6.7141,6.8722,6.9947,6.9491,6.9468,6.9766,7.0141,7.0394,7.041,7.035,7.029,7.032,7.041,7.053,7.0424,7.059,7.0859,7.0679,7.0649,7.0903,7.0903,7.0903,7.0903,7.0903,7.0903,7.0903,7.0903,7.0903,7.0903,7.0903,7.0903,7.0903,7.0903,7.0903,7.0903,7.0903,7.0903,7.0903,7.0903,7.0903,7.0903,7.0903,7.0903,7.0903,5.6219,5.6219,5.6219,5.6219,5.6219,5.6219,5.6219,5.6219,5.6219,5.6219,5.6219,5.6219,5.6219,5.6219,5.6219,5.6351,5.6502,5.6301,5.6326,5.6502,5.6301,5.6219,5.6219,5.6219,5.6219,5.6219,5.6219,5.6219,5.6219,5.6219,5.6219,5.6319,5.6753,5.7111,5.743,5.7675,5.8001,5.8108,5.8535,5.8409,5.8309,5.9645,6.0669,6.0911,6.1889,6.29,6.4148,6.4904,6.5691,6.6597,6.6999,6.6999,6.6999,6.6999,6.6999,6.6999,6.6999,6.6999,6.6999,6.6999,6.6999,6.6999,6.6999,6.6999,6.6999,6.6983,6.6877,6.5919,6.5903,6.4917,6.3997,6.5302,6.7049,6.7904,6.8205,6.8647,7.0076,7.0633,7.0843,7.0903,7.0903,7.0903,7.0903,7.0903,7.0903,7.0873,7.0783,7.0873,7.0843,7.0903,7.0903,7.0903,7.0903,7.0903,7.0903,7.0903,7.0903,7.0903,7.0514,7.058,7.0642,7.0691,7.0903,7.0903,7.0903,7.0835,7.0683,7.0669,7.0903,7.0903,7.0903,7.0726,7.0629,7.0091,7.0202,5.6219,5.6219,5.6219,5.6219,5.6219,5.6219,5.6219,5.6219,5.6219,5.6219,5.6219,5.6219,5.6219,5.62,5.647,5.6652,5.696,5.6696,5.6646,5.6627,5.6426,5.6219,5.6219,5.6219,5.6219,5.6219,5.6219,5.6219,5.6219,5.6219,5.6219,5.6344,5.6753,5.723,5.7556,5.7801,5.8378,5.8685,5.871,5.866,5.873,5.9242,5.9863,6.0453,6.0856,6.1068,6.1607,6.2075,6.3352,6.6333,6.6689,6.6746,6.6823,6.6916,6.7119,6.7089,6.7089,6.6999,6.6999,6.6999,6.6999,6.6999,6.6999,6.6815,6.6615,6.6384,6.5749,6.4153,6.4011,6.3394,6.2716,6.2969,6.4097,6.5411,6.5531,6.7002,6.9307,7.0468,7.0678,7.0903,7.0903,7.0903,7.0903,7.0903,7.0903,7.0903,7.0903,7.0903,7.0903,7.0903,7.0903,7.0903,7.0903,7.0903,7.0903,7.0903,7.0903,7.0824,7.0173,6.9976,7.013,7.0295,7.0707,7.0903,7.0903,7.0548,7.006,7.0251,7.0331,6.9636,6.8776,6.9341,6.99,6.8964,6.8665,5.6219,5.6219,5.6219,5.6219,5.6219,5.6219,5.6219,5.6219,5.6219,5.6219,5.6219,5.6219,5.6219,5.6244,5.6928,5.7355,5.7111,5.7248,5.7179,5.6326,5.6301,5.6219,5.6219,5.6244,5.6219,5.6219,5.6219,5.6219,5.6226,5.6319,5.6219,5.6301,5.6803,5.7079,5.7255,5.7631,5.7706,5.7738,5.8259,5.8259,5.7983,5.851,5.8851,5.8964,5.9862,6.0329,6.0464,6.1596,6.2703,6.3558,6.4749,6.5647,6.6187,6.6987,6.7358,6.7254,6.7021,6.6875,6.6937,6.6781,6.6922,6.669,6.6564,6.64,6.4994,6.4957,6.4065,6.264,6.2175,6.2297,6.2289,6.1706,6.2462,6.3936,6.4739,6.5212,6.6464,6.7867,6.9337,7.0354,7.0824,7.0903,7.0903,7.0903,7.0903,7.0903,7.0886,7.0903,7.0903,7.0903,7.0645,7.0514,7.0295,7.0097,6.9486,6.9435,6.9411,6.9407,6.8973,6.8687,6.8876,6.9286,6.9468,7.012,7.0903,7.0236,6.8835,6.8619,6.8452,6.7539,6.6777,6.7221,6.7479,6.709,6.7227,5.6219,5.6219,5.6219,5.6219,5.6219,5.6219,5.6219,5.6219,5.6219,5.6219,5.6219,5.6219,5.6219,5.6244,5.6846,5.7123,5.7474,5.7725,5.76,5.6972,5.657,5.6219,5.6276,5.6401,5.6477,5.6344,5.6796,5.6828,5.6702,5.6821,5.6922,5.6634,5.7129,5.7255,5.7054,5.733,5.7481,5.7506,5.7681,5.7681,5.7606,5.7957,5.8033,5.758,5.8232,5.8471,5.8562,5.9274,6.0126,6.098,6.2466,6.3909,6.4663,6.5402,6.577,6.5733,6.5515,6.5268,6.5252,6.5239,6.5055,6.4936,6.5099,6.4553,6.3867,6.3647,6.2927,6.1592,6.086,6.074,6.0385,5.9727,6.0284,6.1427,6.2185,6.2595,6.3993,6.6318,6.8383,6.9582,7.0305,7.071,7.0903,7.0387,7.0629,7.0501,7.0629,7.0661,7.0873,7.0759,7.0058,6.9744,6.9512,6.903,6.8129,6.7722,6.7531,6.7334,6.6946,6.6773,6.6807,6.7362,6.7911,6.8427,6.8749,6.7937,6.6821,6.6711,6.661,6.6168,6.5692,6.5311,6.5265,6.5621,6.5823,5.6219,5.6219,5.6219,5.6219,5.6219,5.6219,5.6219,5.6219,5.6219,5.6219,5.6219,5.6219,5.6219,5.6294,5.6671,5.7273,5.8077,5.8303,5.8328,5.765,5.6997,5.652,5.6451,5.6728,5.6903,5.6502,5.7273,5.7481,5.738,5.7556,5.7399,5.7161,5.76,5.738,5.7004,5.7004,5.7129,5.733,5.723,5.7204,5.7449,5.7606,5.743,5.6984,5.6706,5.6914,5.7174,5.7498,5.7742,5.8699,6.0244,6.1523,6.247,6.3324,6.3445,6.3574,6.3736,6.3717,6.3719,6.3462,6.3161,6.2432,6.2894,6.2753,6.2323,6.2266,6.1707,6.0605,5.955,5.8727,5.7263,5.7394,5.7799,5.8612,5.8788,5.9699,6.1815,6.508,6.6695,6.773,6.8292,6.8776,6.9157,6.9044,6.9652,7.0078,7.0111,7.0144,7.0209,6.991,6.8798,6.8193,6.777,6.7632,6.6838,6.6419,6.6154,6.5644,6.5213,6.4854,6.4634,6.4316,6.4705,6.5737,6.5854,6.5339,6.5026,6.4795,6.471,6.4654,6.4012,6.3072,6.3393,6.4228,6.4192,5.6219,5.6219,5.6219,5.6219,5.6219,5.6219,5.6219,5.6219,5.6219,5.6219,5.6219,5.6219,5.6219,5.652,5.7725,5.8824,5.9357,5.9489,5.9012,5.8177,5.7549,5.7148,5.6451,5.7154,5.733,5.7179,5.7675,5.7926,5.7801,5.7826,5.7675,5.728,5.7575,5.7355,5.6753,5.6728,5.6778,5.6771,5.6803,5.6853,5.6753,5.6928,5.7022,5.6527,5.6351,5.6627,5.696,5.7085,5.7531,5.8598,5.9003,5.9579,6.0634,6.2542,6.3488,6.3484,6.3133,6.2775,6.2727,6.2638,6.2505,6.2432,6.2329,6.16,6.0828,6.0677,6.0375,5.9146,5.8137,5.7424,5.7078,5.7104,5.7311,5.7932,5.8516,5.8926,5.9907,6.1826,6.4111,6.5125,6.5816,6.6604,6.7123,6.7381,6.7496,6.7616,6.7582,6.7496,6.7427,6.7067,6.6348,6.5946,6.5711,6.567,6.5484,6.5241,6.495,6.4316,6.3731,6.2921,6.2381,6.1108,6.1267,6.2992,6.3943,6.3984,6.3591,6.302,6.2421,6.2059,6.1342,6.0672,6.1347,6.2007,6.1459,5.6219,5.6219,5.6219,5.6219,5.6219,5.6219,5.6219,5.6219,5.6219,5.6219,5.6219,5.6219,5.6376,5.6702,5.7022,5.8278,5.9608,5.9885,5.9408,5.8704,5.8152,5.7298,5.6451,5.7374,5.765,5.7757,5.8278,5.8504,5.8328,5.8328,5.7957,5.7556,5.7524,5.7004,5.6445,5.6426,5.6451,5.6319,5.6426,5.6477,5.6244,5.6502,5.652,5.6652,5.6677,5.7054,5.7713,5.7863,5.8284,5.8956,5.9151,5.9282,5.9877,6.0706,6.1846,6.1803,6.1592,6.1237,6.1095,6.0796,6.0634,6.0137,6.0545,6.0371,5.9706,5.9581,5.9498,5.8637,5.8133,5.7738,5.7531,5.7455,5.7606,5.7901,5.8378,5.8635,5.8996,6.015,6.1348,6.2732,6.4265,6.5186,6.5541,6.5612,6.5346,6.5186,6.5062,6.4919,6.4758,6.4591,6.4253,6.3722,6.3456,6.3062,6.3115,6.318,6.3219,6.2767,6.2357,6.1551,6.098,6.0117,6.0188,6.1188,6.1819,6.2389,6.1715,6.096,6.0224,5.9783,5.9958,6.0016,5.9753,5.9541,5.9527,5.6219,5.6219,5.6219,5.6219,5.6219,5.6219,5.6219,5.6219,5.6219,5.6219,5.6219,5.6244,5.6477,5.6885,5.723,5.8052,5.9784,6.001,5.9929,5.9282,5.8679,5.765,5.6953,5.7298,5.7951,5.8202,5.8679,5.9131,5.871,5.8635,5.8309,5.7681,5.7136,5.6753,5.6326,5.6269,5.6219,5.6219,5.6219,5.6219,5.6219,5.6244,5.6451,5.6935,5.7029,5.7506,5.8434,5.8541,5.8836,5.9257,5.9477,5.9502,5.9502,5.9527,5.9502,5.9527,5.9527,5.9257,5.9196,5.9179,5.9281,5.876,5.9021,5.9007,5.9045,5.9186,5.9322,5.8836,5.8616,5.8359,5.7882,5.7876,5.7876,5.7951,5.8234,5.8585,5.8761,5.9255,5.9609,6.1092,6.2861,6.3411,6.3375,6.3137,6.2722,6.2722,6.2593,6.2722,6.264,6.2933,6.2598,6.1726,6.1129,6.045,6.0399,6.066,6.0805,6.0862,6.071,6.0335,5.9989,5.9605,5.9959,6.0278,6.017,6.0533,5.972,5.9527,5.9591,5.961,5.9547,5.9527,5.9527,5.9527,5.9527,5.6219,5.6219,5.6219,5.6219,5.6219,5.6219,5.6219,5.6219,5.6219,5.6219,5.6219,5.6244,5.6502,5.7136,5.8485,5.9684,6.0663,6.114,6.0663,5.9684,5.9357,5.8453,5.7186,5.76,5.8127,5.8378,5.8635,5.8761,5.8736,5.8716,5.8158,5.738,5.7111,5.6778,5.6394,5.6244,5.6219,5.6219,5.6219,5.6219,5.6219,5.6219,5.6502,5.6903,5.7154,5.7631,5.861,5.8811,5.9012,5.9408,5.9527,5.9527,5.9527,5.9527,5.9527,5.9527,5.9502,5.9477,5.9282,5.9131,5.8886,5.8585,5.8811,5.8761,5.8911,5.9156,5.9282,5.8742,5.8716,5.8585,5.8227,5.8001,5.7926,5.8001,5.8227,5.8459,5.8635,5.9012,5.9257,5.9479,6.1264,6.0938,6.0615,6.0336,6.0093,6.015,6.024,6.0507,6.076,6.1214,6.1353,6.0633,6.0323,5.9714,5.9527,5.9527,5.9527,5.9527,5.9527,5.9527,5.9527,5.9527,5.9527,5.9695,5.9527,5.9527,5.9527,5.9527,5.9527,5.9527,5.9527,5.9527,5.9527,5.9527,5.9527,5.6219,5.6219,5.6219,5.6219,5.6219,5.6219,5.6219,5.6219,5.6219,5.6219,5.6219,5.6219,5.6502,5.7286,5.8755,5.9709,6.0362,6.114,6.1014,6.0261,6.006,5.9377,5.8033,5.8033,5.8453,5.8378,5.8334,5.873,5.8761,5.8535,5.7882,5.7556,5.7179,5.6935,5.6527,5.6344,5.6244,5.6219,5.6219,5.6219,5.6219,5.6269,5.6646,5.7449,5.7506,5.8127,5.8855,5.9162,5.9238,5.9483,5.9527,5.9527,5.9527,5.9527,5.9527,5.9527,5.9527,5.9357,5.9062,5.9131,5.8987,5.8861,5.8936,5.9162,5.9207,5.9332,5.9433,5.9207,5.9137,5.9006,5.883,5.8805,5.8604,5.8529,5.8529,5.856,5.8786,5.9037,5.9332,5.9408,5.9527,5.9552,5.9552,5.9599,5.9734,5.9792,5.9849,5.9959,5.9997,6.0074,6.0087,5.9837,5.9695,5.9541,5.9527,5.9527,5.9527,5.9527,5.9527,5.9527,5.9527,5.9527,5.9527,5.9527,5.9527,5.9527,5.9527,5.9527,5.9527,5.9527,5.9527,5.9527,5.9527,5.9527,5.9527,5.6219,5.6219,5.6219,5.6219,5.6219,5.6219,5.6219,5.6219,5.6219,5.6276,5.6477,5.6728,5.7054,5.7481,5.8755,5.9633,5.9809,6.0607,6.0638,6.0593,6.0537,5.996,5.9131,5.8961,5.9037,5.8679,5.888,5.9131,5.9257,5.9031,5.8529,5.7901,5.7054,5.6803,5.6659,5.6426,5.6269,5.6477,5.6477,5.6451,5.6451,5.6426,5.6997,5.76,5.8083,5.8529,5.9351,5.9483,5.9483,5.9483,5.9527,5.9527,5.9527,5.9527,5.9527,5.9527,5.9527,5.9357,5.9212,5.9232,5.9232,5.9182,5.9182,5.9408,5.9477,5.9527,5.9502,5.9433,5.9433,5.9458,5.9502,5.9433,5.9232,5.9106,5.9156,5.9106,5.9087,5.9388,5.9533,5.9508,5.9583,5.9633,5.9608,5.9552,5.9547,5.9527,5.9527,5.9527,5.9527,5.9527,5.9527,5.9527,5.9527,5.9527,5.9527,5.9527,5.9527,5.9527,5.9527,5.9527,5.9527,5.9527,5.9527,5.9527,5.9527,5.9527,5.9527,5.9527,5.9527,5.9527,5.9527,5.9527,5.9527,5.9527,5.9527,5.6219,5.6219,5.6219,5.6219,5.6219,5.6219,5.6219,5.6219,5.6219,5.6451,5.6885,5.7832,5.7932,5.8152,5.883,5.9684,6.0166,6.0317,6.0417,6.0417,6.0317,6.0392,6.0041,6.0066,6.0267,6.0462,5.9935,5.9834,6.0141,5.9885,5.9031,5.8008,5.76,5.6702,5.6577,5.6928,5.6796,5.6979,5.701,5.696,5.691,5.696,5.7298,5.7851,5.8384,5.8911,5.9477,5.9527,5.9527,5.9527,5.9527,5.9527,5.9527,5.9527,5.9527,5.9527,5.9527,5.9408,5.9408,5.9382,5.9477,5.9477,5.9477,5.9527,5.9527,5.9527,5.9527,5.9527,5.9527,5.9527,5.9527,5.9502,5.9433,5.9408,5.9408,5.9483,5.9539,5.9865,5.9915,5.9709,5.9709,5.9834,5.9709,5.9633,5.9527,5.9527,5.9527,5.9527,5.9527,5.9527,5.9527,5.9527,5.9527,5.9527,5.9527,5.9527,5.9527,5.9527,5.9527,5.9527,5.9527,5.9527,5.9527,5.9527,5.9527,5.9527,5.9527,5.9527,5.9527,5.9527,5.9527,5.9527,5.9527,5.9527,5.9527,5.6219,5.6219,5.6219,5.6219,5.6219,5.6219,5.6219,5.6219,5.6219,5.6301,5.6577,5.7286,5.7757,5.8058,5.8604,5.9307,5.9885,6.0613,6.0738,6.114,6.1391,6.1391,6.119,6.0839,6.0788,6.0663,6.0211,6.0537,6.1266,6.0588,6.0236,5.9508,5.8981,5.8886,5.8685,5.8108,5.7957,5.7675,5.7763,5.7788,5.7111,5.7405,5.7675,5.7901,5.8428,5.8936,5.9408,5.9502,5.9527,5.9527,5.9527,5.9527,5.9527,5.9527,5.9527,5.9527,5.9527,5.9527,5.9527,5.9527,5.9527,5.9527,5.9502,5.9527,5.9527,5.9527,5.9527,5.9527,5.9527,5.9527,5.9527,5.9527,5.9502,5.9502,5.9603,5.9709,5.9935,6.0217,6.0367,6.0166,6.0116,6.0141,5.994,5.9734,5.9608,5.9527,5.9527,5.9527,5.9527,5.9527,5.9527,5.9527,5.9527,5.9527,5.9527,5.9527,5.9527,5.9527,5.9527,5.9527,5.9527,5.9527,5.9527,5.9527,5.9527,5.9527,5.9527,5.9527,5.9527,5.9527,5.9527,5.9527,5.9527,5.9527,5.9527,5.6219,5.6219,5.6219,5.6219,5.6219,5.6219,5.6219,5.6219,5.6219,5.6319,5.6477,5.7029,5.7581,5.8127,5.8529,5.9031,5.9659,6.0387,6.0914,6.1391,6.1818,6.2119,6.1868,6.1667,6.1592,6.097,6.0819,6.1316,6.2074,6.1014,6.109,6.1316,6.124,6.0744,5.9815,5.984,5.9313,5.8905,5.8679,5.866,5.7907,5.7976,5.8127,5.8252,5.871,5.9106,5.9408,5.9527,5.9527,5.9527,5.9527,5.9527,5.9527,5.9527,5.9527,5.9527,5.9527,5.9527,5.9527,5.9527,5.9527,5.9527,5.9527,5.9527,5.9527,5.9527,5.9527,5.9527,5.9527,5.9527,5.9527,5.9527,5.9527,5.9527,5.9809,5.9985,6.0186,6.0417,6.0593,6.0643,6.0693,6.0769,6.0066,5.979,5.9583,5.9527,5.9527,5.9527,5.9527,5.9527,5.9527,5.9527,5.9527,5.9527,5.9527,5.9527,5.9527,5.9527,5.9527,5.9527,5.9527,5.9527,5.9527,5.9527,5.9527,5.9527,5.9527,5.9527,5.9527,5.9527,5.9527,5.9527,5.9527,5.9527,5.9527,5.6219,5.6219,5.6219,5.6219,5.6219,5.6219,5.6219,5.6219,5.6269,5.6502,5.6935,5.7531,5.8108,5.8535,5.8685,5.8987,5.9533,6.0136,6.0688,6.1291,6.1843,6.2225,6.2501,6.2526,6.235,6.2676,6.2375,6.2275,6.2701,6.23,6.245,6.2425,6.2099,6.1522,5.9809,6.0111,6.0267,6.0166,5.9759,5.9558,5.9106,5.8855,5.8805,5.8679,5.9081,5.9408,5.9458,5.9527,5.9527,5.9527,5.9527,5.9527,5.9527,5.9527,5.9527,5.9527,5.9527,5.9527,5.9527,5.9527,5.9527,5.9527,5.9527,5.9527,5.9527,5.9527,5.9527,5.9527,5.9527,5.9527,5.9527,5.9527,5.9527,5.9603,5.9859,6.0211,6.0412,6.0668,6.0889,6.1271,6.1567,6.1567,6.0593,5.989,5.9608,5.9527,5.9527,5.9527,5.9527,5.9527,5.9527,5.9527,5.9527,5.9527,5.9527,5.9527,5.9527,5.9527,5.9527,5.9527,5.9527,5.9527,5.9527,5.9527,5.9527,5.9527,5.9527,5.9527,5.9527,5.9527,5.9527,5.9527,5.9527,5.9527,5.9527,5.6219,5.6219,5.6219,5.6219,5.6219,5.6219,5.6219,5.6269,5.6577,5.6853,5.7104,5.765,5.8202,5.856,5.8742,5.8987,5.9533,6.006,6.0638,6.1215,6.1743,6.2275,6.2651,6.2802,6.2802,6.2802,6.2802,6.2802,6.2777,6.2752,6.2501,6.2375,6.2245,6.1893,6.1517,6.1572,6.1718,6.109,6.0914,6.0713,5.9684,5.9608,5.9408,5.8811,5.9257,5.9502,5.9527,5.9527,5.9527,5.9527,5.9527,5.9527,5.9527,5.9527,5.9527,5.9527,5.9527,5.9527,5.9527,5.9527,5.9527,5.9527,5.9527,5.9527,5.9527,5.9527,5.9527,5.9527,5.9527,5.9527,5.9527,5.9527,5.9527,5.9527,5.9784,6.0281,6.0563,6.0964,6.1316,6.1873,6.225,6.1542,6.0643,5.9935,5.9583,5.9527,5.9527,5.9527,5.9527,5.9527,5.9527,5.9527,5.9527,5.9527,5.9527,5.9527,5.9527,5.9527,5.9527,5.9527,5.9527,5.9527,5.9527,5.9527,5.9527,5.9527,5.9527,5.9527,5.9527,5.9527,5.9527,5.9527,5.9527,5.9527,5.9527,5.6219,5.6219,5.6219,5.6219,5.6219,5.6219,5.6219,5.6251,5.6602,5.691,5.7305,5.7556,5.8133,5.8704,5.8855,5.8987,5.9533,6.006,6.0638,6.121,6.1768,6.2275,6.2651,6.2802,6.2802,6.2802,6.2777,6.2752,6.2476,6.2501,6.222,6.1843,6.1743,6.1793,6.1943,6.2225,6.2425,6.1893,6.1773,6.1316,6.0512,6.0111,5.9815,5.9338,5.9307,5.9527,5.9527,5.9527,5.9527,5.9527,5.9527,5.9527,5.9527,5.9527,5.9527,5.9527,5.9527,5.9527,5.9527,5.9527,5.9527,5.9527,5.9527,5.9527,5.9527,5.9527,5.9527,5.9527,5.9527,5.9527,5.9527,5.9527,5.9527,5.9527,5.9859,6.0337,6.0688,6.1065,6.1642,6.2199,6.235,6.1547,6.0744,6.006,5.9527,5.9527,5.9527,5.9527,5.9527,5.9527,5.9527,5.9527,5.9527,5.9527,5.9527,5.9527,5.9527,5.9527,5.9527,5.9527,5.9527,5.9527,5.9527,5.9527,5.9527,5.9527,5.9527,5.9527,5.9527,5.9527,5.9527,5.9527,5.9527,5.9527,5.9527,5.6219,5.6219,5.6219,5.6219,5.6219,5.6219,5.6219,5.6269,5.6301,5.6972,5.792,5.7455,5.8133,5.9156,5.8961,5.9056,5.9458,6.001,6.0512,6.1059,6.1441,6.2074,6.2501,6.2676,6.2701,6.2752,6.2701,6.2425,6.2044,6.1818,6.1542,6.1285,6.1185,6.1341,6.1723,6.2124,6.2425,6.2375,6.2225,6.1793,6.114,6.0738,6.0261,5.9809,5.9633,5.9608,5.9558,5.9527,5.9527,5.9527,5.9527,5.9527,5.9527,5.9527,5.9527,5.9527,5.9527,5.9527,5.9527,5.9527,5.9527,5.9527,5.9527,5.9527,5.9527,5.9527,5.9527,5.9527,5.9527,5.9527,5.9527,5.9508,5.9533,5.9734,5.9991,6.0367,6.0713,6.117,6.1773,6.2199,6.235,6.1848,6.104,6.0356,5.9527,5.9527,5.9527,5.9527,5.9527,5.9527,5.9527,5.9527,5.9527,5.9527,5.9527,5.9527,5.9527,5.9527,5.9527,5.9527,5.9527,5.9527,5.9527,5.9527,5.9527,5.9527,5.9527,5.9527,5.9527,5.9527,5.9527,5.9527,5.9527,5.9527,5.9527,5.6219,5.6219,5.6219,5.6219,5.6219,5.6219,5.6401,5.6784,5.7204,5.7851,5.8472,5.8704,5.8956,5.9458,5.9332,5.9382,5.9508,5.9709,6.0041,6.0493,6.0889,6.1466,6.1943,6.225,6.245,6.2526,6.24,6.2119,6.1793,6.1366,6.0794,6.0568,6.0563,6.0693,6.0995,6.1391,6.2024,6.2501,6.245,6.2149,6.1843,6.1466,6.0864,6.0337,6.0035,5.991,5.9709,5.9552,5.9527,5.9533,5.9527,5.9527,5.9527,5.9527,5.9527,5.9527,5.9527,5.9527,5.9527,5.9527,5.9527,5.9527,5.9527,5.9527,5.9527,5.9527,5.9527,5.9527,5.9527,5.9527,5.9558,5.9583,5.9734,6.001,6.0342,6.0769,6.112,6.1597,6.2149,6.23,6.245,6.1793,6.104,6.0231,5.9527,5.9527,5.9527,5.9527,5.9527,5.9527,5.9527,5.9527,5.9527,5.9527,5.9527,5.9527,5.9527,5.9527,5.9527,5.9527,5.9527,5.9527,5.9527,5.9527,5.9527,5.9527,5.9527,5.9527,5.9527,5.9527,5.9527,5.9527,5.9527,5.9527,5.9527,5.6219,5.6219,5.6219,5.6219,5.6244,5.6426,5.6828,5.733,5.7506,5.7932,5.8704,5.8981,5.9307,5.9483,5.9502,5.9502,5.9502,5.9558,5.9834,6.0242,6.0267,6.0939,6.1441,6.1692,6.1843,6.1969,6.1868,6.1517,6.1215,6.0588,5.9985,5.9985,5.9985,6.0161,6.0392,6.0769,6.1296,6.1898,6.2225,6.2225,6.2144,6.1994,6.1416,6.0839,6.0537,6.0236,6.0085,5.9904,5.9633,5.9709,5.9709,5.9527,5.9527,5.9527,5.9527,5.9527,5.9527,5.9527,5.9527,5.9527,5.9527,5.9527,5.9527,5.9527,5.9527,5.9527,5.9527,5.9527,5.9527,5.9527,5.9583,5.9709,5.9985,6.0261,6.0788,6.1291,6.1718,6.2124,6.235,6.2526,6.2169,6.1517,6.0763,6.0004,5.9527,5.9527,5.9527,5.9527,5.9527,5.9527,5.9527,5.9527,5.9527,5.9527,5.9527,5.9527,5.9527,5.9527,5.9527,5.9527,5.9527,5.9527,5.9527,5.9527,5.9527,5.9527,5.9527,5.9527,5.9527,5.9527,5.9527,5.9527,5.9527,5.9527,5.9527,5.6219,5.6219,5.6219,5.6226,5.6326,5.6803,5.7336,5.7876,5.7487,5.7763,5.8685,5.8805,5.9112,5.9458,5.9527,5.9527,5.9527,5.9508,5.9684,6.0217,6.0136,6.0537,6.0934,6.1135,6.1311,6.1235,6.1085,6.0864,6.0267,5.9859,5.9633,5.9527,5.9578,5.9759,6.0111,6.0211,6.0613,6.1165,6.1592,6.1743,6.2019,6.1969,6.1818,6.1291,6.0914,6.0638,6.0758,6.0431,5.9834,5.9966,5.9935,5.9633,5.9527,5.9527,5.9527,5.9527,5.9527,5.9527,5.9527,5.9527,5.9527,5.9527,5.9527,5.9527,5.9527,5.9527,5.9527,5.9527,5.9527,5.9659,5.9784,6.001,6.0267,6.0744,6.1296,6.1748,6.2124,6.245,6.2576,6.2601,6.2169,6.1517,6.1004,6.0295,5.968,5.9591,5.9527,5.9527,5.9527,5.9527,5.9527,5.9527,5.9527,5.9527,5.9527,5.9527,5.9527,5.9527,5.9527,5.9527,5.9527,5.9527,5.9527,5.9527,5.9527,5.9527,5.9527,5.9527,5.9527,5.9527,5.9527,5.9527,5.9527,5.9527,5.9527,5.6219,5.6219,5.6219,5.6426,5.6803,5.6953,5.7587,5.8459,5.8384,5.8635,5.9207,5.9326,5.9332,5.9477,5.9527,5.9527,5.9527,5.9527,5.9583,5.9709,5.9759,6.006,6.0437,6.0537,6.0738,6.0914,6.0738,6.0261,5.9834,5.9583,5.9527,5.9527,5.9527,5.9633,5.9759,5.9784,6.006,6.0613,6.0889,6.1441,6.1969,6.2325,6.235,6.1943,6.1592,6.1341,6.1311,6.1009,6.0537,6.0342,6.0217,5.991,5.9533,5.9527,5.9502,5.9527,5.9527,5.9527,5.9527,5.9527,5.9527,5.9527,5.9527,5.9527,5.9527,5.9527,5.9527,5.9527,5.9608,5.9809,6.006,6.0317,6.0593,6.1195,6.1773,6.2149,6.2526,6.2676,6.2802,6.2501,6.2144,6.1662,6.1174,6.063,6.006,5.9719,5.9591,5.9527,5.9527,5.9527,5.9527,5.9527,5.9527,5.9527,5.9527,5.9527,5.9527,5.9527,5.9527,5.9527,5.9527,5.9527,5.9527,5.9527,5.9527,5.9527,5.9527,5.9527,5.9527,5.9527,5.9527,5.9527,5.9527,5.9527,5.9527,5.6219,5.6244,5.6451,5.6709,5.706,5.7537,5.8133,5.866,5.8956,5.9232,5.9458,5.9527,5.9527,5.9527,5.9527,5.9527,5.9527,5.9527,5.9552,5.9527,5.9552,5.9684,5.9859,5.9991,6.0085,6.0261,6.0136,5.9759,5.9552,5.9527,5.9527,5.9527,5.9527,5.9527,5.9527,5.9533,5.9759,6.0292,6.0468,6.114,6.1918,6.225,6.2526,6.225,6.2119,6.1943,6.1843,6.1567,6.119,6.0713,6.0387,6.0085,5.9684,5.9408,5.9307,5.9408,5.9527,5.9527,5.9527,5.9527,5.9527,5.9527,5.9527,5.9527,5.9527,5.9552,5.9734,5.9784,5.9935,6.0116,6.0537,6.0839,6.0914,6.1291,6.1748,6.2174,6.2501,6.2752,6.2802,6.2701,6.227,6.1743,6.1239,6.0661,6.0106,5.9655,5.9527,5.9508,5.9508,5.9527,5.9527,5.9527,5.9527,5.9527,5.9527,5.9527,5.9527,5.9527,5.9527,5.9527,5.9527,5.9527,5.9527,5.9527,5.9527,5.9527,5.9527,5.9527,5.9527,5.9527,5.9527,5.9527,5.9527,5.9527,5.9527,5.6251,5.6376,5.6803,5.7111,5.7355,5.8259,5.8736,5.8886,5.9282,5.9502,5.9483,5.9527,5.9527,5.9527,5.9527,5.9527,5.9527,5.9527,5.9527,5.9527,5.9527,5.9583,5.9558,5.9578,5.9678,5.9703,5.9608,5.9583,5.9527,5.9527,5.9527,5.9527,5.9527,5.9527,5.9527,5.9552,5.9734,6.0136,6.0563,6.1215,6.1692,6.2069,6.24,6.2501,6.2425,6.24,6.2345,6.2169,6.1793,6.1115,6.0487,5.9985,5.9659,5.9282,5.9156,5.9207,5.9458,5.9477,5.9527,5.9527,5.9527,5.9527,5.9527,5.9527,5.9527,5.9608,5.9834,6.0161,6.0317,6.0543,6.0964,6.124,6.1291,6.1291,6.1743,6.1999,6.23,6.2601,6.2651,6.2676,6.2345,6.1793,6.1259,6.07,6.0294,5.9837,5.9558,5.9533,5.9533,5.9527,5.9527,5.9527,5.9527,5.9527,5.9527,5.9527,5.9527,5.9527,5.9527,5.9527,5.9527,5.9527,5.9527,5.9527,5.9527,5.9527,5.9527,5.9527,5.9527,5.9527,5.9527,5.9527,5.9527,5.9527,5.9527,5.6451,5.6835,5.696,5.7512,5.8309,5.8635,5.8956,5.9332,5.9433,5.9527,5.9527,5.9527,5.9527,5.9527,5.9527,5.9527,5.9527,5.9527,5.9527,5.9527,5.9527,5.9527,5.9527,5.9527,5.9527,5.9527,5.9527,5.9527,5.9527,5.9527,5.9527,5.9527,5.9527,5.9527,5.9527,5.9552,5.9608,5.9985,6.0337,6.0864,6.1542,6.1999,6.2601,6.2727,6.2727,6.2727,6.2681,6.2626,6.23,6.1617,6.0588,5.9935,5.9508,5.9162,5.8905,5.888,5.9131,5.9357,5.9357,5.9458,5.9483,5.9527,5.9527,5.9527,5.9527,5.9527,5.9935,6.0663,6.0839,6.1014,6.1341,6.1567,6.1667,6.1441,6.1617,6.1517,6.1592,6.1918,6.2144,6.2295,6.23,6.1793,6.1305,6.0932,6.0812,6.0367,5.9991,5.9915,5.9659,5.9583,5.9527,5.9527,5.9527,5.9527,5.9527,5.9527,5.9527,5.9527,5.9527,5.9527,5.9527,5.9527,5.9527,5.9527,5.9527,5.9527,5.9527,5.9527,5.9527,5.9527,5.9527,5.9527,5.9527,5.9527,5.9527]},{"header":{"parameterUnit":"m.s-1","parameterCategory":1,"la1":31.0,"la2":29.5877,"lo1":-88.7671,"lo2":-86.6584,"dx":0.0162,"dy":0.0185,"nx":115,"ny":88,"refTime":"2022-11-17T18:00:00:Z","depth":0,"parameterNumber":3,"parameterNumberName":"V-component_of_WINDS"},"data":[0.0,0.0,0.0,0.0,0.0,0.0,0.0,0.0,0.0,0.0,0.0,0.0,0.0,0.0,0.0,0.0,0.0,0.0,0.0,0.0,0.0,0.0,0.0,0.0,0.0,0.0,0.0,0.0,0.0,0.0,0.0,0.0,0.0,0.0,0.0,0.0,0.0,0.0,0.0,0.0,0.0,0.0,0.0,0.0,0.0,0.0,0.0,0.0,0.0,0.0,0.0,0.0,0.0,0.0,0.0,0.0,0.0,0.0,0.0,0.0,0.0,0.0,0.0,0.0,0.0,0.0,0.0,0.0,0.0,0.0,0.0,0.0,0.0,0.0,0.0,0.0,0.0,0.0,0.0,0.0,0.0,0.0,0.0,0.0,0.0,0.0,0.0,0.0,0.0,0.0,0.0,0.0,0.0,0.0,0.0,0.0,0.0,0.0,0.0,0.0,0.0,0.0,0.0,0.0,0.0,0.0,0.0,0.0,0.0,0.0,0.0,0.0,0.0,0.0,0.0,0.0,0.0,0.0,0.0,0.0,0.0,0.0,0.0,0.0,0.0,0.0,0.0,0.0,0.0,0.0,0.0,0.0,0.0,0.0,0.0,0.0,0.0,0.0,0.0,0.0,0.0,0.0,0.0,0.0,0.0,0.0,0.0,0.0,0.0,0.0,0.0,0.0,0.0,0.0,0.0,0.0,0.0,0.0,0.0,0.0,0.0,0.0,0.0,0.0,0.0,0.0,0.0,0.0,0.0,0.0,0.0,0.0,0.0,0.0,0.0,0.0,0.0,0.0,0.0,0.0,0.0,0.0,0.0,0.0,0.0,0.0,0.0,0.0,0.0,0.0,0.0,0.0,0.0,0.0,0.0,0.0,0.0,0.0,0.0,0.0,0.0,0.0,0.0,0.0,0.0,0.0,0.0,0.0,0.0,0.0,0.0,0.0,0.0,0.0,0.0,0.0,0.0,0.0,0.0,0.0,0.0,0.0,0.0,0.0,0.0,0.0,0.0,0.0,0.0,0.0,0.0,0.0,0.0,0.0,0.0,0.0,0.0,0.0,0.0,0.0,0.0,0.0,0.0,0.0,0.0,0.0,0.0,0.0,0.0,0.0,0.0,0.0,0.0,0.0,0.0,0.0,0.0,0.0,0.0,0.0,0.0,0.0,0.0,0.0,0.0,0.0,0.0,0.0,0.0,0.0,0.0,0.0,0.0,0.0,0.0,0.0,0.0,0.0,0.0,0.0,0.0,0.0,0.0,0.0,0.0,0.0,0.0,0.0,0.0,0.0,0.0,0.0,0.0,0.0,0.0,0.0,0.0,0.0,0.0,0.0,0.0,0.0,0.0,0.0,0.0,0.0,0.0,0.0,0.0,0.0,0.0,0.0,0.0,0.0,0.0,0.0,0.0,0.0,0.0,0.0,0.0,0.0,0.0,0.0,0.0,0.0,0.0,0.0,0.0,0.0,0.0,0.0,0.0,0.0,0.0,0.0,0.0,0.0,0.0,0.0,0.0,0.0,0.0,0.0,0.0,0.0,0.0,0.0,0.0,0.0,0.0,0.0,0.0,0.0,0.0,0.0,0.0,0.0,0.0,0.0,0.0,0.0,0.0,0.0,0.0,0.0,0.0,0.0,0.0,0.0,0.0,0.0,0.0,0.0,0.0,0.0,0.0,0.0,0.0,0.0,0.0,0.0,0.0,0.0,0.0,0.0,0.0,0.0,0.0,0.0,0.0,0.0,0.0,0.0,0.0,0.0,0.0,0.0,0.0,0.0,0.0,0.0,0.0,0.0,0.0,0.0,0.0,0.0,0.0,0.0,0.0,0.0,0.0,0.0,0.0,0.0,0.0,0.0,0.0,0.0,0.0,0.0,0.0,0.0,0.0,0.0,0.0,0.0,0.0,0.0,0.0,0.0,0.0,0.0,0.0,0.0,0.0,0.0,0.0,0.0,0.0,0.0,0.0,0.0,0.0,0.0,0.0,0.0,0.0,0.0,0.0,0.0,0.0,0.0,0.0,0.0,0.0,0.0,0.0,0.0,0.0,0.0,0.0,0.0,0.0,0.0,0.0,0.0,0.0,0.0,0.0,0.0,0.0,0.0,0.0,0.0,0.0,0.0,0.0,0.0,0.0,0.0,0.0,0.0,0.0,0.0,0.0,0.0,0.0,0.0,0.0,0.0,0.0,0.0,0.0,0.0,0.0,0.0,0.0,0.0,0.0,0.0,0.0,0.0,0.0,0.0,0.0,0.0,0.0,0.0,0.0,0.0,0.0,0.0,0.0,0.0,0.0,0.0,0.0,0.0,0.0,0.0,0.0,0.0,0.0,0.0,0.0,0.0,0.0,0.0,0.0,0.0,0.0,0.0,0.0,0.0,0.0,0.0,0.0,0.0,0.0,0.0,0.0,0.0,0.0,0.0,0.0,0.0,0.0,0.0,0.0,0.0,0.0,0.0,0.0,0.0,0.0,0.0,0.0,0.0,0.0,0.0,0.0,0.0,0.0,0.0,0.0,0.0,0.0,0.0,0.0,0.0,0.0,0.0,0.0,0.0,0.0,0.0,0.0,0.0,0.0,0.0,0.0,0.0,0.0,0.0,0.0,0.0,0.0,0.0,0.0,0.0,0.0,0.0,0.0,0.0,0.0,0.0,0.0,0.0,0.0,0.0,0.0,0.0,0.0,0.0,0.0,0.0,0.0,0.0,0.0,0.0,0.0,0.0,0.0,0.0,0.0,0.0,0.0,0.0,0.0,0.0,0.0,0.0,0.0,0.0,0.0,0.0,0.0,0.0,0.0,0.0,0.0,0.0,0.0,0.0,0.0,0.0,0.0,0.0,0.0,0.0,0.0,0.0,0.0,0.0,0.0,0.0,0.0,0.0,0.0,0.0,0.0,0.0,0.0,0.0,0.0,0.0,0.0,0.0,0.0,0.0,0.0,0.0,0.0,0.0,0.0,0.0,0.0,0.0,0.0,0.0,0.0,0.0,0.0,0.0,0.0,0.0,0.0,0.0,0.0,0.0,0.0,0.0,0.0,0.0,0.0,0.0,0.0,0.0,0.0,0.0,0.0,0.0,0.0,0.0,0.0,0.0,0.0,0.0,0.0,0.0,0.0,0.0,0.0,0.0,0.0,0.0,0.0,0.0,0.0,0.0,0.0,0.0,0.0,0.0,0.0,0.0,0.0,0.0,0.0,0.0,0.0,0.0,0.0,0.0,0.0,0.0,0.0,0.0,0.0,0.0,0.0,0.0,0.0,0.0,0.0,0.0,0.0,0.0,0.0,0.0,0.0,0.0,0.0,0.0,0.0,0.0,0.0,0.0,0.0,0.0,0.0,0.0,0.0,0.0,0.0,0.0,0.0,0.0,0.0,0.0,0.0,0.0,0.0,0.0,0.0,0.0,0.0,0.0,0.0,0.0,0.0,0.0,0.0,0.0,0.0,0.0,0.0,0.0,0.0,0.0,0.0,0.0,0.0,0.0,0.0,0.0,0.0,0.0,0.0,0.0,0.0,0.0,0.0,0.0,0.0,0.0,0.0,0.0,0.0,0.0,0.0,0.0,0.0,0.0,0.0,0.0,0.0,0.0,0.0,0.0,0.0,0.0,0.0,0.0,0.0,0.0,0.0,0.0,0.0,0.0,0.0,0.0,0.0,0.0,0.0,0.0,0.0,0.0,0.0,0.0,0.0,0.0,0.0,0.0,0.0,0.0,0.0,0.0,0.0,0.0,0.0,0.0,0.0,0.0,0.0,0.0,0.0,0.0,0.0,0.0,0.0,0.0,0.0,0.0,0.0,0.0,0.0,0.0,0.0,0.0,0.0,0.0,0.0,0.0,0.0,0.0,0.0,0.0,0.0,0.0,0.0,0.0,0.0,0.0,0.0,0.0,0.0,0.0,0.0,0.0,0.0,0.0,0.0,0.0,0.0,0.0,0.0,0.0,0.0,0.0,0.0,0.0,0.0,0.0,0.0,0.0,0.0,0.0,0.0,0.0,0.0,0.0,0.0,0.0,0.0,0.0,0.0,0.0,0.0,0.0,0.0,0.0,0.0,0.0,0.0,0.0,0.0,0.0,0.0,0.0,0.0,0.0,0.0,0.0,0.0,0.0,0.0,0.0,0.0,0.0,0.0,0.0,0.0,0.0,0.0,0.0,0.0,0.0,0.0,0.0,0.0,0.0,0.0,0.0,0.0,0.0,0.0,0.0,0.0,0.0,0.0,0.0,0.0,0.0,0.0,0.0,0.0,0.0,0.0,0.0,0.3548,0.0,0.0,0.0,0.3728,0.0,0.0,0.0,0.0,0.0,0.0,0.0,0.0,0.0,0.0,0.0,0.0,0.0,0.0,0.0,0.0,0.0,0.0,0.0,0.0,0.0,0.0,0.0,0.0,0.0,0.0,0.0,0.0,0.0,0.0,0.0,0.0,0.0,0.0,0.0,0.0,0.0,0.0,0.0,0.0,0.0,0.0,0.0,0.0,0.0,0.0,0.0,0.0,0.0,0.0,0.0,0.0,0.0,0.0,0.0,0.0,0.0,0.0,0.0,0.0,0.0,0.0,0.0,0.0,0.0,0.0,0.0,0.0,0.0,0.0,0.0,0.0,0.0,0.0,0.0,0.0,0.0,0.0,0.0,0.0,0.0,0.0,0.0,0.0,0.0,0.0,0.0,0.0,0.0,0.0,0.0,0.0,0.0,0.0,0.0,0.0,0.0,0.0,0.0,0.0,0.0,0.0,0.0,0.0,0.0,0.0,0.0,0.0,0.0,0.0,0.3696,0.3512,0.4334,0.46,0.4146,0.0,0.0,0.0,0.0,0.0,0.0,0.0,0.0,0.0,0.0,0.0,0.0,0.0,0.0,0.0,0.0,0.0,0.0,0.0,0.0,0.0,0.0,0.0,0.0,0.0,0.0,0.0,0.0,0.0,0.0,0.0,0.0,0.0,0.0,0.0,0.0,0.0,0.0,0.0,0.0,0.0,0.0,0.0,0.0,0.0,0.0,0.0,0.0,0.0,0.0,0.0,0.0,0.0,0.0,0.0,0.0,0.0,0.0,0.0,0.0,0.0,0.0,0.0,0.0,0.0,0.0,0.0,0.0,0.0,0.0,0.0,0.0,0.0,0.0,0.0,0.0,0.0,0.0,0.0,0.0,0.0,0.0,0.0,0.0,0.0,0.0,0.0,0.0,0.0,0.0,0.0,0.0,0.0,0.0,0.0,0.0,0.0,0.0,0.0,0.0,0.0,0.0,0.0,0.0,0.0,0.0,0.0,0.0,0.0,0.0,0.0,0.0,0.5015,0.5515,0.5282,0.0,0.0,0.0,0.0,0.0,0.0,0.0,0.0,0.0,0.0,0.0,0.0,0.0,0.0,0.0,0.0,0.0,0.0,0.0,0.0,0.0,0.0,0.0,0.0,0.0,0.0,0.0,0.0,0.0,0.0,0.0,0.0,0.0,0.0,0.0,0.0,0.0,0.0,0.0,0.0,0.0,0.0,0.0,0.0,0.0,0.0,0.0,0.0,0.0,0.0,0.0,0.0,0.0,0.0,0.0,0.0,0.0,0.0,0.0,0.0,0.0,0.0,0.0,0.0,0.0,0.0,0.0,0.0,0.0,0.0,0.0,0.0,0.0,0.0,0.0,0.0,0.0,0.0,0.0,0.0,0.0,0.0,0.0,0.0,0.0,0.0,0.0,0.0,0.0,0.0,0.0,0.0,0.0,0.0,0.0,0.0,0.0,0.0,0.0,0.0,0.0,0.0,0.0,0.0,0.0,0.0,0.0,0.0,0.0,0.0,0.4111,0.3995,0.5381,0.0,0.7116,0.0,0.0,0.0,0.0,0.0,0.0,0.0,0.0,0.0,0.0,0.0,0.0,0.0,0.0,0.0,0.0,0.0,0.0,0.0,0.0,0.0,0.0,0.0,0.0,0.0,0.0,0.0,0.0,0.0,0.0,0.0,0.0,0.0,0.0,0.0,0.0,0.0,0.0,0.0,0.0,0.0,0.0,0.0,0.0,0.0,0.0,0.0,0.0,0.0,0.0,0.0,0.0,0.0,0.0,0.0,0.0,0.0,0.0,0.0,0.0,0.0,0.0,0.0,0.0,0.0,0.0,0.0,0.0,0.0,0.0,0.0,0.0,0.0,0.0,0.0,0.0,0.0,0.0,0.0,0.0,0.0,0.0,0.0,0.0,0.0,0.0,0.0,0.0,0.0,0.0,0.0,0.0,0.0,0.0,0.0,0.0,0.0,0.0,0.0,0.0,0.0,0.0,0.0,0.0,0.0,0.0,0.0,0.0,0.0,0.0,0.4819,0.4989,0.5789,0.6664,0.0,0.0,0.0,0.0,0.0,0.0,0.0,0.0,0.0,0.0,0.0,0.0,0.0,0.0,0.0,0.0,0.0,0.0,0.0,0.0,0.0,0.0,0.0,0.0,0.0,0.0,0.0,0.0,0.0,0.0,0.0,0.0,0.0,0.0,0.0,0.0,0.0,0.0,0.0,0.0,0.0,0.0,0.0,0.0,0.0,0.0,0.0,0.0,0.0,0.0,0.0,0.0,0.0,0.0,0.0,0.0,0.0,0.0,0.0,0.0,0.0,0.0,0.0,0.0,0.0,0.0,0.0,0.0,0.0,0.0,0.0,0.0,0.0,0.0,0.0,0.0,0.0,0.0,0.0,0.0,0.0,0.0,0.0,0.0,0.0,0.0,0.0,0.0,0.0,0.0,0.0,0.0,0.0,0.0,0.0,0.0,0.0,0.0,0.0,0.0,0.0,0.0,0.0,0.0,0.0,0.0,0.0,0.0,0.0,0.0,0.488,0.5598,0.6268,0.6572,0.6956,0.7471,0.0,0.0,0.0,0.0,0.0,0.0,0.0,0.0,0.0,0.0,0.0,0.0,0.0,0.0,0.0,0.0,0.0,0.0,0.0,0.0,0.0,0.0,0.0,0.0,0.0,0.0,0.0,0.0,0.0,0.0,0.0,0.0,0.0,0.0,0.0,0.0,0.0,0.0,0.0,0.0,0.0,0.0,0.0,0.0,0.0,0.0,0.0,0.0,0.0,0.0,0.0,0.0,0.0,0.0,0.0,0.0,0.0,0.0,0.0,0.0,0.0,0.0,0.0,0.0,0.0,0.0,0.0,0.0,0.0,0.0,0.0,0.0,0.0,0.0,0.0,0.0,0.0,0.0,0.0,0.0,0.0,0.0,0.0,0.0,0.0,0.0,0.0,0.0,0.0,0.0,0.0,0.0,0.0,0.0,0.0,0.0,0.0,0.0,0.0,0.0,0.0,0.0,0.0,0.0,0.0,0.0,0.0,0.0,0.4968,0.5453,0.6358,0.7717,0.7941,0.7622,0.0,0.0,0.0,0.0,0.0,0.0,0.0,0.0,0.0,0.0,0.0,0.0,0.0,0.0,0.0,0.0,0.0,0.0,0.0,0.0,0.0,0.0,0.0,0.0,0.0,0.0,0.0,0.0,0.0,0.0,0.0,0.0,0.0,0.0,0.0,0.0,0.0,0.0,0.0,0.0,0.0,0.0,0.0,0.0,0.0,0.0,0.0,0.0,0.0,0.0,0.0,0.0,0.0,0.0,0.0,0.0,0.0,0.0,0.0,0.0,0.0,0.0,0.0,0.0,0.0,0.0,0.0,0.0,0.0,0.0,0.0,0.0,0.0,0.0,0.0,0.0,0.0,0.0,0.0,0.0,0.0,0.0,0.0,0.0,0.0,0.0,0.0,0.0,0.0,0.0,0.0,0.0,0.0,0.0,0.0,0.0,0.0,0.0,0.0,0.0,0.0,0.0,0.0,0.0,0.0,0.0,0.0,0.0,0.0,0.4393,0.545,0.6887,0.8598,0.7783,0.7451,0.0,0.0,0.0,0.0,0.0,0.0,0.0,0.0,0.0,0.0,0.0,0.0,0.0,0.0,0.0,0.0,0.0,0.0,0.0,0.0,0.0,0.0,0.0,0.0,0.0,0.0,0.0,0.0,0.0,0.0,0.0,0.0,0.0,0.0,0.0,0.0,0.0,0.0,0.0,0.0,0.0,0.0,0.0,0.0,0.0,0.0,0.0,0.0,0.0,0.0,0.0,0.0,0.0,0.0,0.0,0.0,0.0,0.0,0.0,0.0,0.0,0.0,0.0,0.0,0.0,0.0,0.0,0.0,0.0,0.0,0.0,0.0,0.0,0.0,0.0,0.0,0.0,0.0,0.0,0.0,0.0,0.0,0.0,0.0,0.0,0.0,0.0,0.0,0.0,0.0,0.0,0.0,0.0,0.0,0.0,0.0,0.0,0.0,0.0,0.0,0.0,0.0,0.0,0.0,0.0,0.0,0.0,0.0,0.0,0.4996,0.6615,0.8013,0.9009,0.7979,0.7514,0.0,0.0,0.0,0.0,0.0,0.0,0.0,0.0,0.0,0.0,0.0,0.0,0.0,0.0,0.0,0.0,0.0,0.0,0.0,0.0,0.0,0.0,0.0,0.0,0.0,0.0,0.0,0.0,0.0,0.0,0.0,0.0,0.0,0.0,0.0,0.0,0.0,0.0,0.0,0.0,0.0,0.0,0.0,0.0,0.0,0.0,0.0,0.0,0.0,0.0,0.0,0.0,0.0,0.0,0.0,0.0,0.0,0.0,0.0,0.0,0.0,0.0,0.0,0.0,0.0,0.0,0.0,0.0,0.0,0.0,0.0,0.0,0.0,0.0,0.0,0.0,0.0,0.0,0.0,0.0,0.0,0.0,0.0,0.0,0.0,0.0,0.0,0.0,0.0,0.0,0.0,0.0,0.0,0.0,0.0,0.0,0.0,0.0,0.0,0.0,0.0,0.0,0.0,0.0,0.0,0.0,0.0,0.0,0.4211,0.698,0.9004,0.9721,0.9063,0.872,0.7942,0.0,0.0,0.0,0.0,0.0,0.0,0.0,0.0,0.0,0.0,0.0,0.0,0.0,0.0,0.0,0.0,0.0,0.0,0.0,0.0,0.0,0.0,0.0,0.0,0.0,0.0,0.0,0.0,0.0,0.0,0.0,0.0,0.0,0.0,0.0,0.0,0.0,0.0,0.0,0.0,0.0,0.0,0.0,0.0,0.0,0.0,0.0,0.0,0.0,0.0,0.0,0.0,0.0,0.0,0.0,0.0,0.0,0.0,0.0,0.0,0.0,0.0,0.0,0.0,0.0,0.0,0.0,0.0,0.0,0.0,0.0,0.0,0.0,0.0,0.0,0.0,0.0,0.0,0.0,0.0,0.0,0.0,0.0,0.0,0.0,0.0,0.0,0.0,0.0,0.0,0.0,0.0,0.0,0.0,0.0,0.0,0.0,0.0,0.0,0.0,0.0,0.0,0.0,0.0,0.0,0.0,0.0,0.0,0.0,0.7075,0.9565,1.0776,1.0465,1.03,0.9889,0.0,0.0,0.0,0.0,0.0,0.0,0.0,0.0,0.0,0.0,0.0,0.0,0.0,0.0,0.0,0.0,0.0,0.0,0.0,0.0,0.0,0.0,0.0,0.0,0.0,0.0,0.0,0.0,0.0,0.0,0.0,0.0,0.0,0.0,0.0,0.0,0.0,0.0,0.0,0.0,0.0,0.0,0.0,0.0,0.0,0.0,0.0,0.0,0.0,0.0,0.0,0.0,0.0,0.0,0.0,0.0,0.0,0.0,0.0,0.0,0.0,0.0,0.0,0.0,0.0,0.0,0.0,0.0,0.0,0.0,0.0,0.0,0.0,0.0,0.0,0.0,0.0,0.0,0.0,0.0,0.0,0.0,0.0,0.0,0.0,0.0,0.0,0.0,0.0,0.0,0.0,0.0,0.0,0.0,0.0,0.0,0.0,0.0,0.0,0.0,0.0,0.0,0.0,0.0,0.0,0.0,0.0,0.0,0.0,1.0085,1.1965,1.298,1.2896,1.2389,1.1719,1.0849,0.0,0.0,0.0,0.0,0.0,0.0,0.0,0.0,0.0,0.0,0.0,0.0,0.0,0.0,0.0,0.0,0.0,0.0,0.0,0.0,0.0,0.0,0.0,0.0,0.0,0.0,0.0,0.0,0.0,0.0,0.0,0.0,0.0,0.0,0.0,0.0,0.0,0.0,0.0,0.0,0.0,0.0,0.0,0.0,0.0,0.0,0.0,0.0,0.0,0.0,0.0,0.0,0.0,0.0,0.0,0.0,0.0,0.0,0.0,0.0,0.0,0.0,0.0,0.0,0.0,0.0,0.0,0.0,0.0,0.0,0.0,0.0,0.0,0.0,0.0,0.0,0.0,0.0,0.0,0.0,0.0,0.0,0.0,0.0,0.0,0.0,0.0,0.0,0.0,0.0,0.0,0.0,0.0,0.0,0.0,0.0,0.0,0.0,0.0,0.0,0.0,0.0,0.0,0.0,0.0,0.0,0.0,0.0,1.5318,1.5992,1.6276,1.6096,1.4882,1.3435,0.0,0.0,0.0,0.0,0.0,0.0,0.0,0.0,0.0,0.0,0.0,0.0,0.0,0.0,0.0,0.0,0.0,0.0,0.0,0.0,0.0,0.0,0.0,0.0,0.0,0.0,0.0,0.0,0.0,0.0,0.0,0.0,0.0,0.0,0.0,0.0,0.0,0.0,0.0,0.0,0.0,0.0,0.0,0.0,0.0,0.0,0.0,0.0,0.0,0.0,0.0,0.0,0.0,0.0,0.0,0.0,0.0,0.0,0.0,0.0,0.0,0.0,0.0,0.0,0.0,0.0,0.0,0.0,0.0,0.0,0.0,0.0,0.0,0.0,0.0,0.0,0.0,0.0,0.0,0.0,0.0,0.0,0.0,0.0,0.0,0.0,0.0,0.0,0.0,0.0,0.0,0.0,0.0,0.0,0.0,0.0,0.0,0.0,0.0,0.0,0.0,0.0,0.0,0.0,0.0,0.0,0.0,0.0,0.0,1.9184,2.093,2.0889,1.8989,1.7358,1.5711,0.0,0.0,0.0,0.0,0.0,0.0,0.0,0.0,0.0,0.0,0.0,0.0,0.0,0.0,0.0,0.0,0.0,0.0,0.0,0.0,0.0,0.0,0.0,0.0,0.0,0.0,0.0,0.0,0.0,0.0,0.0,0.0,0.0,0.0,0.0,0.0,0.0,0.0,0.0,0.0,0.0,0.0,0.0,0.0,0.0,0.0,0.0,0.0,0.0,0.0,0.0,0.0,0.0,0.0,0.0,0.0,0.0,0.0,0.0,0.0,0.0,0.0,0.0,0.0,0.0,0.0,0.0,0.0,0.0,0.0,0.0,0.0,0.0,0.0,0.0,0.0,0.0,0.0,0.0,0.0,0.0,0.0,0.0,0.0,0.0,0.0,0.0,0.0,0.0,0.0,0.0,0.0,0.0,0.0,0.0,0.0,0.0,0.0,0.0,0.0,0.0,0.0,0.0,0.0,0.0,0.0,0.0,0.0,1.8383,2.1891,2.426,2.4604,2.274,2.0284,1.7921,0.0,0.0,0.0,0.0,0.0,0.0,0.0,0.0,0.0,0.0,0.0,0.0,0.0,0.0,0.0,0.0,0.0,0.0,0.0,0.0,0.0,0.0,0.0,0.0,0.0,0.0,0.0,0.0,0.0,0.0,0.0,0.0,0.0,0.0,0.0,0.0,0.0,0.0,0.0,0.0,0.0,0.0,0.0,0.0,0.0,0.0,0.0,0.0,0.0,0.0,0.0,0.0,0.0,0.0,0.0,0.0,0.0,0.0,0.0,0.0,0.0,0.0,0.0,0.0,0.0,0.0,0.0,0.0,0.0,0.0,0.0,0.0,0.0,0.0,0.0,0.0,0.0,0.0,0.0,0.0,0.0,0.0,0.0,0.0,0.0,0.0,0.0,0.0,0.0,0.0,0.0,0.0,0.0,0.0,0.0,0.0,0.0,0.0,0.0,0.0,0.0,0.0,0.0,0.0,0.0,0.0,0.0,0.0,2.0799,2.3808,2.6429,2.7337,2.6419,2.3123,1.9933,0.0,0.0,0.0,0.0,0.0,0.0,0.0,0.0,0.0,0.0,0.0,0.0,0.0,0.0,0.0,0.0,0.0,0.0,0.0,0.0,0.0,0.0,0.0,0.0,0.0,0.0,0.0,0.0,0.0,0.0,0.0,0.0,0.0,0.0,0.0,0.0,0.0,0.0,0.0,0.0,0.0,0.0,0.0,0.0,0.0,0.0,0.0,0.0,0.0,0.0,0.0,0.0,0.0,0.0,0.0,0.0,0.0,0.0,0.0,0.0,0.0,0.0,0.0,0.0,0.0,0.0,0.0,0.0,0.0,0.0,0.0,0.0,0.0,0.0,0.0,0.0,0.0,0.0,0.0,0.0,0.0,0.0,0.0,0.0,0.0,0.0,0.0,0.0,0.0,0.0,0.0,0.0,0.0,0.0,0.0,0.0,0.0,0.0,0.0,0.0,0.0,0.0,0.0,0.0,0.0,0.0,0.0,0.0,2.3008,2.6172,2.7513,2.7767,2.6894,2.3845,2.0801,0.0,0.0,0.0,0.0,0.0,0.0,0.0,0.0,0.0,0.0,0.0,0.0,0.0,0.0,0.0,0.0,0.0,0.0,0.0,0.0,0.0,0.0,0.0,0.0,0.0,0.0,0.0,0.0,0.0,0.0,0.0,0.0,0.0,0.0,0.0,0.0,0.0,0.0,0.0,0.0,0.0,0.0,0.0,0.0,0.0,0.0,0.0,0.0,0.8276,0.0,0.0,0.0,0.0,0.0,0.0,0.0,0.0,0.0,0.0,0.0,0.0,0.0,0.0,0.0,0.0,0.0,0.0,0.0,0.0,0.0,0.0,0.0,0.0,0.0,0.0,0.0,0.0,0.0,0.0,0.0,0.0,0.0,0.0,0.0,0.0,0.0,0.0,0.0,0.0,0.0,0.0,0.0,0.0,0.0,0.0,0.0,0.0,0.0,0.0,0.0,0.0,0.0,0.0,0.0,0.0,0.0,0.0,0.0,2.4317,2.748,2.847,2.8897,2.8786,2.6482,2.3114,0.0,0.0,0.0,0.0,0.0,0.0,0.0,0.0,0.0,0.0,0.0,0.0,0.0,0.0,0.0,0.0,0.0,0.0,0.0,0.0,0.0,0.0,0.0,0.0,0.0,0.0,0.0,0.0,0.0,0.0,0.0,0.0,0.0,0.0,0.0,0.0,0.0,0.0,0.0,0.0,0.0,0.0,0.0,0.0,0.0,0.0,0.0,0.0,0.0,0.0,0.0,0.0,0.0,0.0,0.0,0.0,0.0,0.0,0.0,0.0,0.0,0.0,0.0,0.0,0.0,0.0,0.0,0.0,0.0,0.0,0.0,0.0,0.0,0.0,0.0,0.0,0.0,0.0,0.0,0.0,0.0,0.0,0.0,0.0,0.0,0.0,0.0,0.0,0.0,0.0,0.0,0.0,0.0,0.0,0.0,0.0,0.0,0.0,0.0,0.0,0.0,0.0,0.0,0.0,0.0,0.0,0.0,2.1616,2.5308,2.8547,2.9364,3.014,3.1032,2.9102,2.5477,2.0166,0.0,0.0,0.0,0.0,0.0,0.0,0.0,0.0,0.0,0.0,0.0,0.0,0.0,0.0,0.0,0.0,0.0,0.0,0.0,0.0,0.0,0.0,0.0,0.0,0.0,0.0,0.0,0.0,0.0,0.0,0.0,0.0,0.0,0.0,0.0,0.0,0.0,0.0,0.5009,0.8542,0.0,0.0,0.0,0.0,0.0,0.0,0.0,0.0,1.0027,0.0,0.0,0.0,0.0,0.0,0.0,0.0,0.0,0.0,0.0,0.0,0.0,0.0,0.0,0.0,0.0,0.0,0.0,0.0,0.0,0.0,0.0,0.0,0.0,0.0,0.0,0.0,0.0,0.0,0.0,0.0,0.0,0.0,0.0,0.0,0.0,0.0,0.0,0.0,0.0,0.0,0.0,0.0,0.0,0.0,0.0,0.0,0.0,0.0,0.0,0.0,0.0,0.0,0.0,0.0,0.0,2.1251,2.3625,2.665,3.0332,3.0229,3.0552,3.137,2.8712,2.5817,2.2911,0.0,0.0,0.0,0.0,0.0,0.0,0.0,0.0,0.0,0.0,0.0,0.0,0.0,0.0,0.0,0.0,0.0,0.0,0.0,0.0,0.0,0.0,0.0,0.0,0.0,0.0,0.0,0.0,0.0,0.0,0.0,0.0,0.0,0.0,0.0,0.0,0.0,0.0,0.0,1.1563,1.2806,0.0,0.0,0.0,0.0,0.0,0.0,0.0,0.0,1.2296,0.0,0.0,0.0,0.0,0.0,0.0,0.0,0.0,0.0,0.0,0.0,0.0,0.0,0.0,0.0,0.0,0.0,0.0,0.0,0.0,0.0,0.0,0.0,0.0,0.0,0.0,0.0,0.0,0.0,0.0,0.0,0.0,0.0,0.0,0.0,0.0,0.0,0.0,0.0,0.0,0.0,0.0,0.0,0.0,0.0,0.0,0.0,0.0,0.0,0.0,0.0,0.0,0.0,0.0,0.0,2.1799,2.5955,2.9639,3.2609,3.1969,3.2647,3.4771,3.0639,2.7103,0.0,0.0,0.0,0.0,0.0,0.0,0.0,0.0,0.0,0.0,0.0,0.0,0.0,0.0,0.0,0.0,0.0,0.0,0.0,0.0,0.0,0.0,0.0,0.0,0.0,0.0,0.0,0.0,0.0,0.0,0.0,0.0,0.0,0.0,0.0,0.0,0.0,0.0,0.0,0.0,1.228,1.3489,1.3796,0.0,0.0,0.0,0.0,0.0,0.0,1.47,1.3573,0.0,0.0,0.0,0.0,0.0,0.0,0.0,0.0,0.0,0.0,0.0,0.0,0.0,0.0,0.0,0.0,0.0,0.0,0.0,0.0,0.0,0.0,0.0,0.0,0.0,0.0,0.0,0.0,0.0,0.0,0.0,0.0,0.0,0.0,0.0,0.0,0.0,0.0,0.0,0.0,0.0,0.0,0.0,0.0,0.0,0.0,0.0,0.0,0.0,0.0,0.0,0.0,0.0,0.0,0.0,2.2661,2.818,3.2505,3.538,3.4517,3.531,3.8042,3.296,2.8741,0.0,0.0,0.0,0.0,0.0,0.0,0.0,0.0,0.0,0.0,0.0,0.0,0.0,0.0,0.0,0.0,0.0,0.0,0.0,0.0,0.0,0.0,0.0,0.0,0.0,0.0,0.0,0.0,0.0,0.0,0.0,0.0,0.0,0.0,0.0,0.0,0.0,0.0,0.0,0.0,0.0,1.4206,1.5904,1.3878,0.0,0.0,0.0,0.0,2.0116,1.796,0.0,0.0,0.0,0.0,0.0,0.0,0.0,0.0,0.0,0.0,0.0,0.0,0.0,0.0,0.0,0.0,0.0,0.0,0.0,0.0,0.0,0.0,0.0,0.0,0.0,0.0,0.0,0.0,0.0,0.0,0.0,0.0,0.0,0.0,0.0,0.0,0.0,0.0,0.0,0.0,0.0,0.0,0.0,0.0,0.0,0.0,0.0,0.0,0.0,0.0,0.0,0.0,0.0,0.0,0.0,0.0,2.6211,2.9715,3.3985,3.8915,3.8266,3.8094,3.8737,3.4471,3.0571,0.0,0.0,0.0,0.0,0.0,0.0,0.0,0.0,0.0,0.0,0.0,0.0,0.0,0.0,0.0,0.0,0.0,0.0,0.0,0.0,0.0,0.0,0.0,0.0,0.0,0.0,0.0,0.0,0.0,0.0,0.0,0.0,0.0,0.0,0.0,0.0,0.0,0.0,0.0,0.0,0.0,1.5954,1.6304,1.566,1.4003,0.0,0.0,1.9278,2.4199,2.2762,0.0,0.0,0.0,0.0,0.0,0.0,0.0,0.0,0.0,0.0,0.0,0.0,0.0,0.0,0.0,0.0,0.0,0.0,0.0,0.0,0.0,0.0,0.0,0.0,0.0,0.0,0.0,0.0,0.0,0.0,0.0,0.0,0.0,0.0,0.0,0.0,0.0,0.0,0.0,0.0,0.0,0.0,0.0,0.0,0.0,0.0,0.0,0.0,0.0,0.0,0.0,0.0,0.0,0.0,0.0,2.3061,2.7729,3.3042,3.7535,4.1057,3.9871,3.9666,4.073,3.5652,3.1124,0.0,0.0,0.0,0.0,0.0,0.0,0.0,0.0,0.0,0.0,0.0,0.0,0.0,0.0,0.0,0.0,0.0,0.0,0.0,0.0,0.0,0.0,0.0,0.0,0.0,0.0,0.0,0.0,0.0,0.0,0.0,0.0,0.0,0.0,0.0,0.0,0.0,0.0,0.0,0.0,0.0,0.0,1.9447,1.7792,0.0,0.0,0.0,2.0847,2.5048,0.0,0.0,0.0,0.0,0.0,0.0,0.0,0.0,0.0,0.0,0.0,0.0,0.0,0.0,0.0,0.0,0.0,0.0,0.0,0.0,0.0,0.0,0.0,0.0,0.0,0.0,0.0,0.0,0.0,0.0,0.0,0.0,0.0,0.0,0.0,0.0,0.0,0.0,0.0,0.0,0.0,0.0,0.0,0.0,0.0,0.0,0.0,0.0,0.0,0.0,0.0,0.0,0.0,0.0,0.0,0.0,0.0,2.9345,3.6259,4.1094,4.3545,4.2167,4.1831,4.2663,3.774,0.0,0.0,0.0,0.0,0.0,0.0,0.0,0.0,0.0,0.0,0.0,0.0,0.0,0.0,0.0,0.0,0.0,0.0,0.0,0.0,0.0,0.0,0.0,0.0,0.0,0.0,0.0,0.5072,0.0,0.0,0.0,0.0,0.0,0.0,0.0,0.0,0.0,0.0,0.0,0.0,0.0,0.0,1.685,2.217,2.0041,1.8809,0.0,0.0,2.2387,2.5622,2.4729,2.2695,0.0,0.0,0.0,0.0,0.0,0.0,0.0,0.0,0.0,0.0,0.0,0.0,0.0,0.0,0.0,0.0,0.0,0.0,0.0,0.0,0.0,0.0,0.0,0.0,0.0,0.0,0.0,0.0,0.0,0.0,0.0,0.0,0.0,0.0,0.0,0.0,0.0,0.0,0.0,0.0,0.0,0.0,0.0,0.0,0.0,0.0,0.0,0.0,0.0,0.0,0.0,0.0,0.0,0.0,0.0,3.2077,3.8728,4.3902,4.7314,4.6444,4.54,4.4414,4.1554,3.6192,0.0,0.0,0.0,0.0,0.0,0.0,0.0,0.0,0.0,0.0,0.0,0.0,0.0,0.0,0.0,0.0,0.0,0.0,0.0,0.0,0.0,0.0,0.0,0.0,0.0,0.0,0.0,0.0,0.0,0.0,0.0,0.0,0.0,0.0,0.0,0.0,0.0,0.0,0.0,0.0,0.0,1.8759,2.3117,2.2482,2.2267,0.0,0.0,2.402,2.6854,2.6948,2.5144,2.0615,0.0,0.0,0.0,0.0,0.0,0.0,0.0,0.0,0.0,0.0,0.0,0.0,0.0,0.0,0.0,0.0,0.0,0.0,0.0,0.0,0.0,0.0,0.0,0.0,0.0,0.0,0.0,0.0,0.0,0.0,0.0,0.0,0.0,0.0,0.0,0.0,0.0,0.0,0.0,0.0,0.0,0.0,0.0,0.0,0.0,0.0,0.0,0.0,0.0,0.0,0.0,0.0,0.0,2.9174,3.2991,4.0758,4.5657,4.7309,4.6687,4.5744,4.4614,4.1943,3.7184,0.0,0.0,0.0,0.0,0.0,0.0,0.0,0.0,0.0,0.0,0.0,0.0,0.0,0.0,0.0,0.0,0.0,0.0,0.0,0.0,0.0,0.0,0.0,0.0,0.0,0.0,0.0,0.0,1.2,1.2498,1.1716,0.0,0.0,0.0,0.0,0.0,0.0,0.0,0.0,0.0,0.0,2.1584,2.5953,2.4569,0.0,0.0,2.733,2.7444,2.8366,2.6994,2.4922,2.2293,2.1006,0.0,0.0,0.0,0.0,0.0,0.0,0.0,0.0,0.0,0.0,0.0,0.0,0.0,0.0,0.0,0.0,0.0,0.0,0.0,0.0,0.0,0.0,0.0,0.0,0.0,0.0,0.0,0.0,0.0,0.0,0.0,0.0,0.0,0.0,0.0,0.0,0.0,0.0,0.0,0.0,0.0,0.0,0.0,0.0,0.0,0.0,0.0,0.0,0.0,0.0,0.0,0.0,3.0483,3.3915,4.2253,4.6888,4.7591,4.7064,4.6311,4.5317,4.2671,3.8498,0.0,0.0,0.0,0.0,0.0,0.0,0.0,0.0,0.0,0.0,0.0,0.0,0.0,0.0,0.0,0.0,0.0,0.0,0.0,0.0,0.0,0.0,0.0,0.0,0.0,0.0,0.0,0.0,1.394,1.4086,1.2491,0.0,0.0,0.0,0.0,0.0,0.0,0.0,0.0,0.0,0.0,2.4579,2.8162,2.7309,2.694,2.8685,2.9073,2.9018,2.8435,2.6946,2.5324,2.3736,0.0,0.0,0.0,0.0,0.0,0.0,0.0,0.0,0.0,0.0,0.0,0.0,0.0,0.0,0.0,0.0,0.0,0.0,0.0,0.0,0.0,0.0,0.0,0.0,0.0,0.0,0.0,0.0,0.0,0.0,0.9036,0.0,0.0,0.0,0.0,0.0,0.0,0.0,0.0,0.0,0.0,0.0,0.0,0.0,0.0,0.0,0.0,0.0,0.0,0.0,0.0,0.0,0.0,3.0885,3.509,4.2988,4.7616,4.8677,4.8184,4.7566,4.6973,4.4392,4.0536,3.5475,0.0,0.0,0.0,0.0,0.0,0.0,0.0,0.0,0.0,0.0,0.0,0.0,0.0,0.0,0.0,0.0,0.0,0.0,0.0,0.0,0.0,0.0,0.0,0.0,0.0,0.0,1.1182,1.2852,1.3804,0.0,0.0,0.0,0.0,0.0,0.0,0.0,0.0,0.0,0.0,2.5419,2.7595,2.935,3.0941,3.096,2.8762,2.8396,2.7914,2.6824,2.7167,2.692,0.0,0.0,0.0,0.0,0.0,0.0,0.0,0.0,0.0,0.0,0.0,0.0,0.0,0.0,0.0,0.0,0.0,0.0,0.0,0.0,0.0,0.0,0.0,0.0,0.0,0.0,0.0,1.4363,1.3894,0.0,0.0,0.0,0.0,0.0,0.0,0.0,0.0,0.0,0.0,0.0,2.1802,2.507,0.0,0.0,0.0,0.0,0.0,0.0,0.0,0.0,0.0,0.0,0.0,0.0,3.1958,3.66,4.3862,4.8008,4.8768,4.8209,4.7641,4.7099,4.5131,4.1185,3.5083,0.0,0.0,0.0,0.0,0.0,0.0,0.0,0.0,0.0,0.0,0.0,0.0,0.0,0.0,0.0,0.0,0.0,0.0,0.0,0.0,0.0,0.0,0.0,0.0,0.0,1.2595,0.0,0.0,0.0,0.0,0.0,0.0,0.0,0.0,0.0,0.0,0.0,2.1791,2.4609,2.7172,2.9285,3.0674,3.1142,3.1397,0.0,0.0,0.0,0.0,0.0,0.0,0.0,0.0,0.0,0.0,0.0,0.0,0.0,0.0,2.1968,2.3579,1.9656,1.6286,1.679,0.0,0.0,0.0,0.0,0.0,0.0,0.0,0.0,0.0,0.0,0.0,0.0,0.0,0.0,1.942,0.0,1.9403,0.0,0.0,0.0,0.0,0.0,0.0,0.0,0.0,2.5242,2.6887,2.6699,2.9907,3.0327,0.0,2.8746,2.6175,0.0,0.0,0.0,0.0,0.0,0.0,0.0,0.0,3.3529,3.8392,4.4644,4.8083,4.8451,4.8109,4.7641,4.7099,4.5307,4.2104,3.7382,3.3428,2.9816,0.0,0.0,0.0,0.0,0.0,0.0,0.0,0.0,0.0,0.0,0.0,0.0,0.0,0.0,0.0,0.0,0.0,0.0,0.0,0.0,0.0,0.0,0.0,1.4895,0.0,0.0,0.0,0.0,0.0,0.0,0.0,0.0,0.0,1.7047,2.1346,2.5252,2.7484,2.9591,3.1113,3.166,0.0,0.0,0.0,0.0,0.0,0.0,0.0,2.7604,2.7923,2.5263,2.3864,2.6272,2.7172,2.644,2.2945,0.0,0.0,2.855,2.6205,2.3445,2.1539,2.0976,2.0929,2.1327,2.1043,2.1394,0.0,0.0,0.0,0.0,0.0,0.0,0.0,0.0,2.5432,2.4205,0.0,2.4635,0.0,0.0,0.0,0.0,0.0,2.1362,0.0,0.0,3.0083,3.2327,3.4067,3.3928,3.425,3.5017,3.3795,3.2586,3.1263,2.8196,0.0,0.0,0.0,0.0,0.0,0.0,3.5626,4.0586,4.5508,4.8008,4.8018,4.7967,4.7691,4.7074,4.5006,4.3352,4.2121,3.7369,3.423,3.3126,2.521,0.0,0.0,0.0,0.0,0.0,0.0,0.0,0.0,0.0,0.0,0.0,0.0,0.0,0.0,0.0,0.0,0.0,0.0,0.0,0.0,1.6214,0.0,0.0,0.0,0.0,0.0,0.0,0.0,0.0,0.0,0.0,2.2464,2.4815,2.7749,3.0961,0.0,0.0,0.0,0.0,3.1914,3.1172,3.3092,3.3218,2.9243,2.9863,3.0874,3.0952,0.0,0.0,3.314,3.2754,3.0261,2.4593,2.701,2.9753,2.9863,3.0394,2.9471,2.5724,2.4099,2.3525,2.4581,2.6607,2.8006,2.782,0.0,0.0,0.0,0.0,2.5421,2.7619,3.0895,3.105,3.0556,2.9708,3.0512,0.0,0.0,0.0,0.0,0.0,0.0,2.8679,3.154,3.4303,3.5653,3.579,3.8434,3.9104,3.7964,3.8586,3.8924,3.9008,3.8452,3.3077,2.3401,0.0,0.0,0.0,0.0,3.9109,4.3368,4.7566,4.9674,4.9674,4.9314,4.8444,4.7149,4.5733,4.4468,4.3363,4.1529,3.851,3.4266,3.1417,0.0,0.0,0.0,0.0,0.0,0.0,0.0,0.0,0.0,0.0,0.0,0.0,0.0,0.0,0.0,0.0,0.0,0.0,0.0,1.4966,1.8013,1.9415,0.0,0.0,0.0,0.0,0.0,0.0,0.0,0.0,0.0,2.7702,2.8881,2.9841,0.0,0.0,3.2242,3.1401,3.1806,3.2409,3.309,3.4048,0.0,0.0,3.2012,3.1626,3.2543,3.2695,3.3246,3.4943,3.4045,3.2494,3.0656,3.1438,3.2672,3.3846,3.3314,3.2275,3.1069,3.0571,3.0443,3.0808,3.1788,3.2339,3.4438,3.0799,2.8578,2.8516,2.9979,3.0578,3.2753,3.5915,3.6136,3.5599,3.4665,3.5804,3.3753,2.9413,2.8743,0.0,0.0,0.0,3.271,3.5554,3.7271,3.8274,3.8811,4.1095,4.1673,4.0724,4.1336,4.2057,4.2838,4.2131,3.8126,3.0999,0.0,0.0,3.2716,3.7773,4.2193,4.5869,4.8871,5.0302,5.0092,4.9323,4.836,4.7149,4.6261,4.5296,4.4152,4.3402,4.1318,3.7653,3.5499,3.2295,0.0,0.0,0.0,0.0,0.0,0.0,0.0,0.0,0.0,0.0,0.0,1.2733,0.0,0.0,0.0,0.0,1.6692,1.7709,1.9411,2.1493,0.0,0.0,0.0,0.0,0.0,0.0,0.0,2.5257,2.8259,3.1023,3.3493,3.4265,3.417,3.3158,3.4676,3.5549,3.4637,0.0,3.4168,3.6933,3.7671,3.78,3.7517,3.6514,3.55,3.4522,3.521,3.5662,3.5831,3.5082,3.4463,3.4426,3.4435,3.4867,3.6268,3.5656,3.4638,3.3908,3.3707,3.3789,3.4105,3.4471,3.4664,4.0412,3.9505,3.4244,3.3338,3.5405,3.5938,3.7562,3.9885,4.0362,3.9359,3.7661,4.021,3.8146,3.2684,3.1903,0.0,3.4511,3.4968,3.6778,3.9597,3.9597,4.0658,4.2473,4.2551,4.2788,4.3251,4.2763,4.3039,4.3858,4.1716,4.0947,4.1663,4.1252,4.0242,3.8938,4.1776,4.4869,4.8008,4.9624,5.0243,4.9741,4.8586,4.7716,4.7249,4.6712,4.5884,4.4765,4.3779,4.2914,4.2185,3.8149,3.5575,3.4745,0.0,0.0,0.0,0.0,0.0,0.0,0.0,0.0,0.0,0.0,0.0,0.0,0.0,0.0,0.0,2.3725,0.0,2.636,2.5766,0.0,0.0,0.0,2.2446,2.3454,2.5806,2.8303,3.0734,0.0,0.0,3.925,4.0083,3.9873,3.8225,4.0068,4.1194,4.0231,3.7298,3.6981,4.1492,4.3092,4.3163,4.1798,4.1614,4.0612,3.7723,3.8389,3.8883,3.7462,3.6784,3.6638,3.5915,3.6202,3.704,3.8092,3.8505,3.7341,3.5786,3.4856,3.4662,3.5368,3.5782,3.597,4.2322,4.2144,4.1169,4.0379,3.9783,3.992,4.0589,4.1557,4.1266,4.1054,4.1004,4.1686,4.1364,4.0348,4.0537,4.0928,4.1396,4.1506,4.2432,4.3925,4.3974,4.4463,4.5307,4.5321,4.5397,4.5482,4.5397,4.5472,4.5668,4.5505,4.5306,4.5141,4.5367,4.4116,4.1536,4.4531,4.7139,4.9188,5.046,5.1038,5.0862,4.938,4.8526,4.8385,4.7832,4.7014,4.5934,4.5246,4.4256,4.2864,4.1358,3.9694,3.7746,3.0374,0.0,0.0,0.0,0.0,0.0,0.0,0.0,0.0,0.0,1.7732,1.4224,0.0,1.9902,0.0,2.6985,2.8666,2.6602,2.707,0.0,0.0,2.715,2.8039,3.1443,3.2966,3.4676,3.6962,3.8533,3.9817,4.0885,4.252,4.3734,4.4003,4.2944,4.181,4.0928,4.0361,4.0688,4.3392,4.7432,4.8674,4.428,4.2857,4.2829,4.2943,4.2443,4.2171,4.2811,4.196,4.0111,3.7068,3.8336,4.1509,4.5664,4.4863,4.3186,4.2369,3.9378,3.6582,3.6834,3.7952,3.8412,4.4482,4.4493,4.4794,4.4503,4.3837,4.3109,4.2947,4.3226,4.2908,4.2947,4.3263,4.3251,4.3578,4.4145,4.4432,4.4679,4.4905,4.4905,4.5246,4.5849,4.5849,4.6024,4.6286,4.6311,4.6311,4.6311,4.6311,4.6411,4.6687,4.7214,4.7566,4.7782,4.8319,4.7641,4.5989,4.7205,4.8335,4.9254,5.0611,5.1414,5.1615,5.0243,4.8928,4.7732,4.7606,4.6562,4.4558,4.4658,4.374,4.1669,4.1255,4.0082,3.7841,3.2487,2.8913,0.0,0.0,0.0,0.0,0.0,0.0,0.0,0.0,0.0,0.0,0.0,2.3194,0.0,2.932,3.1524,2.9117,3.0896,3.2454,3.3078,3.338,3.4651,3.7433,3.8335,3.9557,4.153,4.2372,4.3377,4.4895,4.6126,4.7376,4.8623,4.778,4.6676,4.5979,4.6576,4.7562,4.8304,5.1169,5.2216,4.8199,4.7485,4.7146,4.6705,4.5992,4.5373,4.4919,4.4158,4.252,3.9931,4.1511,4.4964,4.9227,4.763,4.5427,4.5057,4.341,4.1361,4.0034,4.0571,4.0735,4.6512,4.6512,4.6512,4.6788,4.7074,4.5658,4.498,4.4916,4.4855,4.483,4.4815,4.489,4.5206,4.5713,4.5788,4.6075,4.6502,4.6486,4.6537,4.6612,4.6627,4.6687,4.6813,4.6828,4.6863,4.6954,4.6954,4.7189,4.7626,4.8118,4.8812,4.969,5.0176,5.0327,5.0151,4.9405,4.9019,4.9003,5.0385,5.1272,5.1649,5.0553,4.8796,4.6461,4.6888,4.5834,4.3014,4.3603,4.29,4.0501,4.0212,3.9352,3.7643,3.4541,3.1885,0.0,2.6731,0.0,0.0,0.0,0.0,0.0,0.0,0.0,0.0,2.7037,2.7681,2.6665,3.1912,3.4743,3.3348,3.5914,3.815,3.9356,4.0211,4.101,4.1822,4.2514,4.3541,4.5158,4.5686,4.6932,4.9258,4.9816,5.0419,5.1581,5.2097,5.197,5.1933,5.2975,5.3873,5.3901,5.3896,5.3439,5.2671,5.264,5.1745,4.9637,4.9057,4.8263,4.6037,4.5569,4.5114,4.4376,4.5519,4.7799,5.0848,4.8662,4.6643,4.6668,4.7004,4.6392,4.3878,4.3421,4.3471,4.7606,4.7606,4.7591,4.7641,4.7716,4.7415,4.7039,4.6597,4.616,4.5959,4.601,4.6446,4.6682,4.6838,4.7255,4.7506,4.7591,4.7606,4.7857,4.8341,4.8325,4.8786,4.9615,4.9624,4.9891,5.0334,5.0343,5.041,5.0494,5.0594,5.0519,5.0252,5.0336,4.9967,4.9179,0.0,0.0,0.0,4.9992,4.9741,4.938,4.8319,4.729,4.6361,4.7239,0.0,4.6235,4.5547,4.4733,4.3725,4.285,0.0,0.0,0.0,0.0,0.0,0.0,0.0,0.0,0.0,0.0,0.0,3.1169,3.0126,2.7105,3.112,3.414,3.4619,3.7716,3.9701,3.9723,4.0232,4.078,4.1067,4.2738,4.3892,4.4136,4.568,4.7311,4.8508,4.8755,4.9334,5.0654,5.0987,5.1264,5.2051,5.2586,5.3188,5.3876,5.4545,5.4832,5.4482,5.417,5.3775,5.3582,5.3239,5.2784,5.1634,5.1443,5.1033,5.011,4.9887,5.0046,4.9834,4.9978,5.0159,5.1505,5.0844,5.0063,5.0233,5.055,4.9725,4.6023,4.6381,4.7188,4.9581,0.0,4.9565,4.9581,0.0,4.9565,4.943,4.9072,4.7707,4.7089,4.7089,4.7365,4.7817,4.8344,4.862,4.9038,4.9581,4.959,4.9732,5.0008,5.0049,5.0334,5.0829,5.0845,5.0996,5.1289,5.1289,5.1289,5.1314,5.1565,5.1548,5.1247,5.2329,5.232,5.1297,5.2068,5.2051,5.123,5.0971,5.0845,5.0795,5.0001,4.8896,4.7631,0.0,0.0,0.0,0.0,0.0,0.0,0.0,0.0,0.0,0.0,0.0,3.6985,3.485,3.3503,3.3453,3.3695,3.4487,3.5982,3.6809,3.6161,3.36,3.6785,3.8951,3.9159,4.1322,4.2815,4.3079,4.4018,4.4872,4.5478,4.6706,4.7611,4.8002,4.8897,4.9791,5.0293,5.046,5.0761,5.159,5.1674,5.2026,5.2779,5.3381,5.411,5.5114,5.52,5.5117,5.5358,5.5164,5.4963,5.4913,5.4745,5.421,5.3557,5.3331,5.3097,5.2595,5.2495,5.2476,5.2388,5.231,5.2388,5.2291,5.2199,5.2106,5.2117,5.2219,5.1928,4.9911,4.9818,4.9786,5.1472,5.1712,5.1422,5.1289,5.1289,5.1289,5.1289,5.1147,0.0,0.0,0.0,4.851,4.9012,4.9866,4.9891,5.0435,5.1289,5.1289,5.1289,5.1289,5.1289,5.1356,5.144,5.144,5.149,5.1574,5.159,5.159,5.1632,5.2304,5.2768,5.3055,5.4987,5.5451,5.4418,5.4504,5.3926,5.2603,5.2151,5.2059,5.231,5.18,5.0594,4.8693,4.9254,4.8535,4.6326,4.6963,4.6326,4.4005,4.3266,4.2123,4.0336,3.9709,3.928,3.9062,3.9399,3.96,3.9512,3.9895,4.0462,4.1115,4.1837,4.1999,4.1438,4.2344,4.2983,4.3053,4.4736,4.5805,4.5893,4.7428,4.8862,4.9816,5.0293,5.0728,5.1172,5.1289,5.1239,5.1414,5.1414,5.1666,5.2151,5.2352,5.2678,5.3532,5.4127,5.4949,5.5749,5.5719,5.5744,5.6157,5.6118,5.6118,5.6168,5.6093,5.581,5.4805,5.4655,5.4504,5.4052,5.3858,5.3656,5.3183,5.3672,5.376,5.341,5.3466,5.339,5.3246,5.3273,5.3374,5.3607,5.2829,5.1999,5.2165,5.3345,5.1901,5.1289,5.1289,5.1289,5.1289,5.1264,5.0979,5.0812,5.0812,5.0812,5.0912,5.1063,5.1063,5.1138,5.1289,5.1289,5.1289,5.1289,5.1289,5.154,5.1975,5.1975,5.2209,5.2661,5.2703,5.2686,5.2857,5.4185,5.5229,5.595,5.7608,5.7894,5.6757,5.5341,5.4496,5.422,5.2394,5.0987,5.0092,4.9531,4.8878,4.8134,4.9088,4.9439,4.9053,4.8727,4.8134,4.7255,4.625,4.5369,4.4656,4.401,4.3689,4.3639,4.3724,4.3759,4.3719,4.3794,4.4487,4.5988,4.748,4.7917,4.6879,4.6174,4.6728,4.8837,4.9669,5.0356,5.0389,5.0538,5.0812,5.1038,5.1113,5.1239,5.1414,5.1389,5.159,5.2,5.1983,5.2209,5.2762,5.3188,5.3482,5.3758,5.4378,5.4881,5.5591,5.6207,5.6709,5.6784,5.6477,5.6244,5.6219,5.6219,5.5917,5.5408,5.5239,5.5056,5.4554,5.4471,5.4347,5.3957,5.4298,5.4561,5.4678,5.5345,5.5062,5.4451,5.4409,5.4587,5.4489,5.4195,5.4094,5.5382,5.5979,5.5253,5.5132,5.5407,5.4462,5.3494,5.2587,5.2285,5.1825,5.1314,5.1289,5.1465,5.1724,5.1724,5.19,5.2176,5.2159,5.2159,5.2176,5.2176,5.2285,5.2613,5.3434,5.4238,5.4796,5.5389,5.6011,5.6751,5.7194,5.7678,5.8395,5.9445,5.9676,5.9035,5.7651,5.6309,5.5024,5.3768,5.2838,5.2319,5.2068,5.1666,5.1055,5.1574,5.1548,5.0971,5.072,5.0334,4.9782,4.8686,4.7983,4.7732,4.7195,4.6602,4.602,4.6552,4.6728,4.6411,4.6963,4.7767,4.8805,4.9599,5.0117,5.0176,4.9496,4.957,5.0738,5.1163,5.1414,5.1674,5.1724,5.195,5.257,5.2352,5.2427,5.2922,5.2771,5.2829,5.3348,5.3449,5.3549,5.3801,5.4052,5.4177,5.4253,5.4906,5.5659,5.615,5.6652,5.6885,5.6584,5.6351,5.6244,5.6219,5.6219,5.5968,5.5509,5.539,5.5308,5.5056,5.5031,5.5096,5.5189,5.5361,5.5498,5.5681,5.5598,5.5314,5.4865,5.47,5.4819,5.4949,5.5257,5.5257,5.8242,5.8571,5.8317,5.8522,5.8873,5.7557,5.5885,5.414,5.4065,5.3241,5.1942,5.1741,5.19,5.2251,5.226,5.2707,5.3393,5.3436,5.3674,5.403,5.4209,5.426,5.4413,5.5779,5.6706,5.7253,5.8066,5.8985,5.9873,5.9846,6.033,6.1236,6.1503,6.1549,6.1401,6.0158,5.8412,5.6305,5.5774,5.5249,5.4622,5.4597,5.4396,5.3934,5.3884,5.3507,5.2729,5.267,5.2352,5.1674,5.0711,5.0042,4.9791,4.928,4.8586,4.7867,4.8501,4.8777,4.841,4.9339,5.0142,5.0578,5.0954,5.1523,5.2302,5.2201,5.1984,5.1867,5.2042,5.2294,5.2628,5.2703,5.3005,5.3758,5.3532,5.3607,5.4371,5.4177,5.4059,5.4522,5.4597,5.4572,5.4622,5.4697,5.4848,5.5082,5.5691,5.6351,5.6728,5.6809,5.6627,5.6351,5.6219,5.6219,5.6219,5.6219,5.6043,5.5616,5.5591,5.5616,5.5566,5.5566,5.5691,5.6025,5.6125,5.6116,5.6114,5.5811,5.5397,5.5114,5.5125,5.5157,5.5534,5.5842,5.5942,5.893,6.0034,5.9422,5.8957,5.9116,5.8896,5.7504,5.5654,5.6849,5.5948,5.3694,5.298,5.2847,5.2837,5.294,5.3835,5.5184,5.5181,5.5988,5.743,5.8168,5.842,5.834,5.918,5.9613,5.9701,5.985,6.012,6.0468,6.1611,6.3289,6.5087,6.4492,6.3909,6.3728,6.2203,6.0416,5.8622,5.8534,5.723,5.4754,5.4597,5.4572,5.4522,5.4522,5.4496,5.427,5.4371,5.3858,5.2837,5.2201,5.1381,5.0469,4.9841,4.949,4.9389,4.9531,4.949,4.954,5.051,5.1214,5.1314,5.2553,5.3356,5.3532,5.3976,5.4027,5.365,5.3951,5.4127,5.4371,5.4278,5.4295,5.4429,5.4421,5.4479,5.4604,5.4572,5.4529,5.4572,5.4723,5.4622,5.4755,5.5082,5.5509,5.5842,5.6043,5.6244,5.6344,5.6351,5.6369,5.6244,5.6219,5.6219,5.6219,5.6219,5.6143,5.6093,5.6118,5.6068,5.6043,5.6068,5.615,5.6143,5.6219,5.6205,5.6205,5.61,5.6075,5.6,5.5993,5.6075,5.6143,5.6269,5.62,6.253,6.3161,6.314,6.2721,6.2182,6.2222,6.086,5.8745,5.901,5.8505,5.7494,5.7191,5.6509,5.5579,5.6593,5.7499,5.8113,5.8129,5.8472,5.9179,5.9476,5.9769,6.0183,6.1055,6.1869,6.2639,6.2846,6.3388,6.4139,6.4831,6.567,6.6473,6.6081,6.5374,6.4329,6.3558,6.2297,6.0538,5.9418,5.8306,5.7185,5.6083,5.5408,5.5125,5.5082,5.4924,5.4647,5.4597,5.4378,5.3926,5.3356,5.2837,5.2377,5.2151,5.1875,5.1607,5.185,5.2026,5.2026,5.2796,5.3265,5.3265,5.3826,5.4228,5.4253,5.4748,5.4956,5.478,5.4655,5.4597,5.4622,5.4597,5.4723,5.4974,5.4798,5.483,5.5465,5.5257,5.5182,5.5483,5.5541,5.5516,5.5566,5.5742,5.5968,5.6168,5.6219,5.6219,5.6219,5.6219,5.6219,5.6219,5.6219,5.6219,5.6219,5.6219,5.6219,5.6219,5.6219,5.6219,5.6244,5.6219,5.6219,5.62,5.6294,5.6294,5.6212,5.6244,5.6269,5.6527,5.7047,5.7198,5.7198,5.7198,5.7223,6.4994,6.5114,6.5727,6.5534,6.4811,6.4872,6.353,6.1477,6.132,6.0979,6.0359,6.1184,6.0747,5.9448,5.9835,6.0206,6.0642,6.069,6.0947,6.1354,6.1559,6.1903,6.2368,6.3258,6.4233,6.5092,6.5374,6.6011,6.6909,6.6999,6.6999,6.6999,6.6999,6.6353,6.5184,6.5042,6.4136,6.2396,6.0988,5.992,5.8885,5.7618,5.6537,5.5713,5.5616,5.5433,5.5074,5.5031,5.4956,5.4823,5.4403,5.4084,5.3959,5.3951,5.3783,5.3457,5.3708,5.3951,5.3951,5.4353,5.4597,5.4622,5.4723,5.4823,5.4906,5.5308,5.5609,5.5566,5.5257,5.5056,5.5049,5.5031,5.5232,5.5541,5.5257,5.539,5.6025,5.5817,5.5767,5.6143,5.6118,5.6219,5.6194,5.6194,5.6194,5.6194,5.6219,5.6219,5.6219,5.6219,5.6219,5.6219,5.6319,5.6351,5.6269,5.6219,5.6219,5.6219,5.6219,5.6269,5.6351,5.6426,5.6268,5.6313,5.643,5.6677,5.6897,5.6821,5.6746,5.7154,5.7581,5.7901,5.775,5.7876,5.7876,6.4994,6.5129,6.5712,6.601,6.5935,6.5949,6.465,6.2731,6.4031,6.3312,6.1629,6.4177,6.5039,6.3685,6.1473,6.0959,6.2297,6.2496,6.3252,6.4559,6.523,6.5679,6.5829,6.6503,6.6771,6.6736,6.6711,6.6819,6.6999,6.6999,6.6999,6.6999,6.6999,6.6953,6.6723,6.6662,6.5966,6.4313,6.3846,6.233,5.9409,5.8833,5.7842,5.63,5.615,5.6118,5.6093,5.61,5.5892,5.5383,5.5333,5.5082,5.4647,5.4572,5.4572,5.4529,5.4554,5.4572,5.4579,5.4655,5.4697,5.4723,5.5107,5.5358,5.5408,5.5792,5.6068,5.6143,5.6043,5.6018,5.6018,5.5942,5.6018,5.6093,5.6118,5.6118,5.6194,5.6143,5.6168,5.6219,5.6219,5.6219,5.6219,5.6219,5.6219,5.6219,5.6219,5.6244,5.6276,5.6269,5.6251,5.6339,5.6565,5.6828,5.6413,5.647,5.642,5.6445,5.662,5.6451,5.6734,5.6886,5.6638,5.6651,5.7212,5.7556,5.7732,5.7782,5.775,5.7901,5.7976,5.8127,5.8303,5.8045,5.8096,6.655,6.6924,6.7194,6.7284,6.7284,6.7284,6.6527,6.5472,6.5992,6.5729,6.5101,6.6105,6.6408,6.5968,6.4952,6.4794,6.535,6.5366,6.5703,6.6295,6.652,6.6864,6.7254,6.7104,6.7254,6.7523,6.7224,6.6999,6.6999,6.6999,6.6999,6.6999,6.6999,6.6999,6.6999,6.6999,6.6616,6.5997,6.4962,6.3084,6.0767,5.9514,5.8037,5.634,5.6219,5.6219,5.6219,5.6219,5.61,5.5917,5.5917,5.5817,5.5641,5.5616,5.5616,5.5616,5.5616,5.5634,5.5616,5.5634,5.5634,5.5616,5.5792,5.5892,5.5924,5.6093,5.6219,5.6219,5.6219,5.6219,5.6219,5.6219,5.6219,5.6219,5.6219,5.6219,5.6219,5.6219,5.6219,5.6219,5.6219,5.6219,5.6219,5.6219,5.6219,5.6219,5.6219,5.6376,5.6627,5.6709,5.6598,5.647,5.6969,5.7774,5.8381,5.7679,5.7298,5.7298,5.7349,5.7374,5.7531,5.7325,5.7087,5.7443,5.8008,5.8353,5.8486,5.8454,5.846,5.8434,5.8529,5.8698,5.893,5.8724,5.8774,6.7254,6.7658,6.7673,6.7673,6.7673,6.7673,6.7419,6.6999,6.6999,6.6999,6.6999,6.6999,6.6999,6.6999,6.6999,6.6999,6.6999,6.6954,6.6999,6.6999,6.6999,6.7238,6.7523,6.7224,6.7224,6.7553,6.7254,6.6999,6.6999,6.6999,6.6999,6.6999,6.6999,6.6999,6.6999,6.6999,6.6999,6.6723,6.5764,6.4297,6.2496,6.0682,5.8903,5.7259,5.654,5.6219,5.6219,5.6219,5.6219,5.6219,5.6219,5.6219,5.6219,5.6219,5.6219,5.6219,5.6194,5.6219,5.6219,5.6219,5.6194,5.6219,5.6219,5.6219,5.6219,5.6219,5.6219,5.6219,5.6219,5.6219,5.6219,5.6219,5.6219,5.6219,5.6219,5.6219,5.6219,5.6219,5.6219,5.6219,5.6219,5.6219,5.6244,5.6438,5.6413,5.6269,5.6557,5.7002,5.6997,5.7186,5.7193,5.6906,5.7562,5.8423,5.8933,5.8624,5.797,5.7876,5.7826,5.7951,5.8089,5.7838,5.7869,5.8265,5.863,5.8997,5.9123,5.9097,5.9051,5.8981,5.9056,5.9201,5.9351,5.9427,5.9326,6.6999,6.7059,6.6999,6.7059,6.7089,6.7089,6.7044,6.6999,6.6999,6.6999,6.6999,6.6999,6.6999,6.6999,6.6999,6.6999,6.6999,6.6999,6.6999,6.6999,6.6999,6.6999,6.7059,6.7029,6.6999,6.7104,6.7029,6.6999,6.6999,6.6999,6.6999,6.6999,6.7059,6.7089,6.6999,6.7074,6.7029,6.6953,6.6829,6.5964,6.4326,6.2386,6.0558,5.8771,5.7105,5.6219,5.6219,5.6219,5.6219,5.6219,5.6219,5.6219,5.6219,5.6219,5.6219,5.6219,5.6219,5.6219,5.6219,5.6219,5.6219,5.6219,5.6219,5.6219,5.6219,5.6219,5.6219,5.6219,5.6219,5.6219,5.6219,5.6269,5.6269,5.6219,5.6219,5.6219,5.6269,5.6269,5.6244,5.6344,5.642,5.6269,5.6369,5.679,5.6915,5.6783,5.7372,5.7938,5.7443,5.7631,5.7832,5.7995,5.8321,5.8939,5.9267,5.9437,5.88,5.8322,5.8227,5.8252,5.856,5.8515,5.8596,5.893,5.9025,5.9348,5.9342,5.9334,5.934,5.9332,5.9502,5.9527,5.9527,5.9527,5.9527,6.6999,6.6999,6.6999,6.6999,6.6999,6.6999,6.6999,6.6999,6.6999,6.6999,6.6999,6.6999,6.6999,6.6999,6.6999,6.6999,6.6999,6.6999,6.6999,6.6999,6.6999,6.6999,6.6999,6.6999,6.6999,6.6999,6.6999,6.6999,6.6999,6.6999,6.6999,6.7059,6.7463,6.7403,6.7074,6.7433,6.7493,6.7104,6.7463,6.6595,6.4445,6.3028,6.1237,5.8991,5.7159,5.6219,5.6219,5.6219,5.6219,5.6219,5.6219,5.6219,5.6219,5.6219,5.6219,5.6219,5.6219,5.6219,5.6219,5.6219,5.6219,5.6219,5.6219,5.6219,5.6219,5.6219,5.6219,5.6219,5.6219,5.6219,5.6269,5.6552,5.6577,5.6269,5.6219,5.6401,5.6728,5.7079,5.7349,5.7355,5.7374,5.7374,5.7311,5.7468,5.7356,5.7374,5.7995,5.8259,5.824,5.8259,5.861,5.8956,5.9182,5.9226,5.9384,5.9517,5.9208,5.8874,5.8774,5.8679,5.8961,5.9112,5.9243,5.9338,5.9458,5.9527,5.9527,5.9527,5.9527,5.9527,5.9527,5.9527,5.9527,5.9527,5.9527,6.6999,6.6999,6.6999,6.6999,6.6999,6.6999,6.6999,6.6999,6.6999,6.6999,6.6999,6.6999,6.6999,6.6999,6.6999,6.6999,6.6999,6.6999,6.6999,6.6999,6.6999,6.6999,6.6999,6.6999,6.6999,6.6999,6.6999,6.6999,6.6999,6.6999,6.6999,6.7089,6.7433,6.7583,6.7403,6.7778,6.7822,6.7792,6.8151,6.762,6.6121,6.4702,6.2895,6.0661,5.8632,5.7291,5.6605,5.6319,5.6219,5.6219,5.6219,5.6219,5.6219,5.6219,5.6219,5.6219,5.6219,5.6219,5.6219,5.6219,5.6219,5.6219,5.6219,5.6219,5.6219,5.6219,5.6219,5.6219,5.6219,5.6219,5.6294,5.6677,5.6803,5.6552,5.6771,5.6953,5.733,5.7675,5.7851,5.7826,5.7851,5.7901,5.7838,5.7957,5.7782,5.7976,5.8423,5.8681,5.8799,5.8836,5.9182,5.9408,5.9408,5.9452,5.9477,5.9502,5.9502,5.9427,5.9351,5.9276,5.9357,5.9357,5.9433,5.9433,5.9527,5.9527,5.9527,5.9527,5.9527,5.9527,5.9527,5.9527,5.9527,5.9527,5.9527,6.6999,6.6999,6.6999,6.6999,6.6999,6.6999,6.6999,6.6999,6.6999,6.6999,6.6999,6.6999,6.6999,6.6999,6.6999,6.6999,6.6999,6.6999,6.6999,6.6999,6.6999,6.6999,6.6999,6.6999,6.6999,6.6999,6.6999,6.6999,6.6999,6.6999,6.6999,6.6999,6.7164,6.7373,6.7838,6.8002,6.8331,6.8615,6.8914,6.8895,6.8496,6.7107,6.5388,6.3453,6.1277,5.9281,5.7728,5.6779,5.6294,5.6219,5.6219,5.6219,5.6219,5.6219,5.6219,5.6219,5.6219,5.6219,5.6219,5.6219,5.6219,5.6219,5.6219,5.6219,5.6219,5.6219,5.6219,5.6219,5.6219,5.6285,5.6531,5.6852,5.7116,5.7236,5.7606,5.7876,5.7926,5.8001,5.8196,5.8127,5.8001,5.8027,5.8152,5.8466,5.8434,5.8403,5.8874,5.9056,5.9031,5.9131,5.9408,5.9527,5.9527,5.9527,5.9527,5.9527,5.9527,5.9527,5.9527,5.9527,5.9527,5.9527,5.9527,5.9527,5.9527,5.9527,5.9527,5.9527,5.9527,5.9527,5.9527,5.9527,5.9527,5.9527,5.9527,6.6999,6.6999,6.6999,6.6999,6.6999,6.6999,6.6999,6.6999,6.6999,6.6999,6.6999,6.6999,6.6999,6.6999,6.6999,6.6999,6.7029,6.6999,6.6999,6.6999,6.6999,6.6999,6.6999,6.6999,6.6999,6.6999,6.6999,6.6999,6.6999,6.6999,6.6999,6.6999,6.7463,6.7808,6.8047,6.8481,6.8511,6.8451,6.9319,6.9229,6.8349,6.7624,6.6605,6.55,6.3625,6.1671,5.9749,5.7804,5.662,5.6244,5.6219,5.6219,5.6219,5.6219,5.6219,5.6219,5.6219,5.6219,5.6219,5.6219,5.6219,5.6219,5.6219,5.6219,5.6219,5.6219,5.6219,5.6219,5.6237,5.6823,5.779,5.798,5.8114,5.866,5.8959,5.8744,5.8573,5.8855,5.91,5.9081,5.9031,5.8981,5.9006,5.9081,5.9182,5.9125,5.9232,5.9458,5.9307,5.9282,5.9527,5.9527,5.9527,5.9527,5.9527,5.9527,5.9527,5.9527,5.9527,5.9527,5.9527,5.9527,5.9527,5.9527,5.9527,5.9527,5.9527,5.9527,5.9527,5.9527,5.9527,5.9527,5.9527,5.9527,5.9527,6.6999,6.6999,6.6999,6.6999,6.6999,6.6999,6.6999,6.6999,6.6999,6.6999,6.6999,6.6999,6.6999,6.6999,6.6999,6.7194,6.7373,6.7134,6.7164,6.7373,6.7134,6.6999,6.6999,6.6999,6.6999,6.6999,6.6999,6.6999,6.6999,6.6999,6.6999,6.7119,6.7673,6.8137,6.8481,6.8734,6.9123,6.9289,6.9798,6.9648,6.9222,6.8955,6.7899,6.6838,6.5289,6.3659,6.1275,5.9669,5.8214,5.6754,5.6219,5.6219,5.6219,5.6219,5.6219,5.6219,5.6219,5.6219,5.6219,5.6219,5.6219,5.6219,5.6219,5.6219,5.6219,5.6237,5.6303,5.7303,5.732,5.826,5.9613,6.0101,6.0737,6.1713,6.1614,6.0767,5.9356,5.9301,5.9477,5.9527,5.9527,5.9527,5.9527,5.9527,5.9527,5.9502,5.9427,5.9502,5.9477,5.9527,5.9527,5.9527,5.9527,5.9527,5.9527,5.9527,5.9527,5.9527,5.9926,5.9849,5.9836,5.9778,5.9527,5.9527,5.9527,5.9668,5.997,5.9925,5.9527,5.9527,5.9527,5.9676,5.9792,6.0062,5.9991,6.6999,6.6999,6.6999,6.6999,6.6999,6.6999,6.6999,6.6999,6.6999,6.6999,6.6999,6.6999,6.6999,6.7014,6.7298,6.7553,6.7958,6.7567,6.7508,6.7523,6.7284,6.6999,6.6999,6.6999,6.6999,6.6999,6.6999,6.6999,6.6999,6.6999,6.6999,6.7148,6.7673,6.8241,6.863,6.8884,6.9572,6.9977,7.0007,6.9947,6.9991,7.0019,6.9283,6.762,6.6412,6.4775,6.2794,6.1502,6.0185,5.7062,5.6707,5.6881,5.679,5.668,5.6319,5.6294,5.6294,5.6219,5.6219,5.6219,5.6219,5.6219,5.6219,5.6376,5.6613,5.6823,5.7438,5.9043,5.9139,6.0027,6.1463,6.2763,6.3679,6.4349,6.4784,6.3375,6.1082,5.992,5.9734,5.9527,5.9527,5.9527,5.9527,5.9527,5.9527,5.9527,5.9527,5.9527,5.9527,5.9527,5.9527,5.9527,5.9527,5.9527,5.9527,5.9527,5.9527,5.956,6.0265,6.0495,6.0495,6.0303,5.9759,5.9527,5.9527,6.0188,6.1171,6.0833,6.0501,6.0767,6.1621,6.1045,6.0463,6.0881,6.0983,6.6999,6.6999,6.6999,6.6999,6.6999,6.6999,6.6999,6.6999,6.6999,6.6999,6.6999,6.6999,6.6999,6.7029,6.7882,6.8391,6.8137,6.8226,6.8181,6.7164,6.7134,6.6999,6.6999,6.7029,6.6999,6.6999,6.6999,6.6999,6.7044,6.7119,6.6999,6.7134,6.7732,6.8062,6.8271,6.872,6.881,6.8886,6.9468,6.9468,6.9139,6.9768,6.9633,6.8356,6.6996,6.5729,6.4486,6.3023,6.1922,6.1044,5.9952,5.9434,5.9301,5.8039,5.7307,5.7187,5.6738,5.6426,5.6353,5.6659,5.631,5.6645,5.6914,5.6805,5.8233,5.8391,5.9253,6.059,6.1066,6.1722,6.3109,6.46,6.5391,6.5597,6.5521,6.5105,6.3939,6.2564,6.1108,6.0055,5.956,5.9527,5.9527,5.9527,5.9527,5.9527,5.9547,5.9527,5.9527,5.9527,5.9772,5.9926,6.0303,6.0533,6.0938,6.0759,6.0371,6.0435,6.0989,6.2768,6.2734,6.1165,6.0721,6.0087,5.9527,6.0552,6.2081,6.3361,6.3311,6.3603,6.3612,6.32,6.2753,6.2597,6.245,6.6999,6.6999,6.6999,6.6999,6.6999,6.6999,6.6999,6.6999,6.6999,6.6999,6.6999,6.6999,6.6999,6.7029,6.7747,6.8076,6.8495,6.8794,6.8645,6.7897,6.7418,6.6999,6.7104,6.7254,6.7343,6.7148,6.7687,6.7762,6.7613,6.7717,6.7837,6.7568,6.8122,6.8271,6.8032,6.8361,6.8541,6.8571,6.878,6.878,6.869,6.9109,6.9199,6.8508,6.7284,6.6454,6.6374,6.5686,6.5544,6.5393,6.4193,6.2701,6.2036,6.0856,6.0169,6.0036,5.9869,5.9676,5.9694,5.965,5.9677,5.9113,5.9456,5.9934,6.0607,6.0895,6.1973,6.3191,6.368,6.3902,6.536,6.6224,6.6879,6.7478,6.7419,6.7199,6.6303,6.4147,6.2115,6.0888,6.0112,5.9695,5.9527,6.0016,5.9792,5.9882,5.9792,5.9753,5.9502,5.9637,6.0399,6.0761,6.1263,6.1747,6.2394,6.226,6.1543,6.17,6.2121,6.48,6.688,6.4414,6.1821,6.1074,6.0357,6.1676,6.3169,6.4527,6.5637,6.4917,6.4732,6.5062,6.5052,6.4415,6.4543,6.6999,6.6999,6.6999,6.6999,6.6999,6.6999,6.6999,6.6999,6.6999,6.6999,6.6999,6.6999,6.6999,6.7089,6.7537,6.8256,6.9213,6.9482,6.9512,6.8704,6.7926,6.7358,6.7313,6.7643,6.7852,6.7373,6.8256,6.8541,6.8421,6.863,6.8405,6.8197,6.8645,6.8421,6.7972,6.7972,6.8122,6.8361,6.8241,6.8211,6.8465,6.869,6.8481,6.7836,6.7355,6.723,6.7573,6.7657,6.8321,6.9762,6.8432,6.6701,6.5221,6.3844,6.3723,6.3539,6.3044,6.2785,6.2616,6.2876,6.2681,6.2637,6.2894,6.3199,6.3075,6.357,6.4707,6.5634,6.6173,6.6124,6.7754,6.7796,6.8426,6.9273,6.9789,6.9475,6.8128,6.5293,6.3812,6.2712,6.21,6.1621,6.1252,6.1321,6.0748,6.0316,6.0278,6.024,6.0163,6.0272,6.1304,6.2556,6.33,6.3275,6.3774,6.393,6.319,6.3495,6.3771,6.6393,6.9463,6.7886,6.5059,6.2212,6.1746,6.3304,6.5346,6.7538,6.7782,6.637,6.6394,6.7341,6.6985,6.6185,6.6654,6.6999,6.6999,6.6999,6.6999,6.6999,6.6999,6.6999,6.6999,6.6999,6.6999,6.6999,6.6999,6.6999,6.7358,6.8794,7.0065,7.0739,7.0935,7.0366,6.9333,6.8585,6.8106,6.7313,6.8151,6.8361,6.8181,6.8734,6.9034,6.8884,6.8914,6.8734,6.8301,6.8615,6.8391,6.7673,6.7643,6.7703,6.7657,6.7732,6.7792,6.7673,6.7882,6.7956,6.7403,6.7194,6.7523,6.7958,6.8107,6.86,6.9796,6.9659,6.9527,6.8609,6.6231,6.4888,6.4673,6.4525,6.4546,6.4321,6.3533,6.295,6.2637,6.3289,6.3998,6.4733,6.5568,6.6797,6.7629,6.7882,6.772,6.791,6.8092,6.8377,6.9079,6.966,6.9877,6.9296,6.8065,6.6353,6.5303,6.4606,6.3794,6.3247,6.2972,6.2906,6.2777,6.2814,6.2906,6.298,6.285,6.31,6.4417,6.5711,6.542,6.5164,6.5241,6.5091,6.5663,6.6285,6.7696,6.9931,7.0374,6.8569,6.5587,6.4715,6.6041,6.8193,7.0145,7.0052,6.8697,6.9182,6.9718,6.9073,6.8376,6.8973,6.6999,6.6999,6.6999,6.6999,6.6999,6.6999,6.6999,6.6999,6.6999,6.6999,6.6999,6.6999,6.7224,6.7613,6.7956,6.9453,7.1038,7.1368,7.0799,6.9961,6.9303,6.8286,6.7313,6.8375,6.8704,6.887,6.9453,6.9722,6.9512,6.9512,6.9109,6.863,6.8555,6.7972,6.7268,6.7284,6.7313,6.7119,6.7284,6.7343,6.7029,6.7373,6.7358,6.7553,6.7583,6.8032,6.8856,6.9035,6.9498,7.026,7.0454,7.0649,7.0146,6.9222,6.7678,6.7557,6.7327,6.7122,6.704,6.6785,6.6826,6.6169,6.6327,6.7012,6.7708,6.8389,6.8823,6.915,6.9319,6.8886,6.86,6.8511,6.869,6.9004,6.9572,6.9917,6.992,6.9654,6.881,6.7604,6.615,6.5186,6.483,6.4758,6.5026,6.5186,6.5311,6.5452,6.5612,6.5228,6.4958,6.6348,6.7677,6.7885,6.7461,6.7347,6.7203,6.7679,6.8163,6.9571,7.0227,7.066,7.0394,6.8744,6.8808,6.8609,6.9374,7.0709,7.0825,7.0892,7.059,7.0387,7.0661,7.084,7.0903,6.6999,6.6999,6.6999,6.6999,6.6999,6.6999,6.6999,6.6999,6.6999,6.6999,6.6999,6.7029,6.7343,6.7868,6.8241,6.9183,7.1248,7.1517,7.1381,7.0649,6.9931,6.8704,6.7912,6.8286,6.9064,6.9363,6.9931,7.047,7.0007,6.9917,6.9528,6.878,6.8167,6.7673,6.7164,6.7059,6.6999,6.6999,6.6999,6.6999,6.6999,6.7029,6.7313,6.7928,6.8002,6.8571,6.9678,6.9844,7.0157,7.062,7.0843,7.0873,7.0873,7.0903,7.0873,7.0903,7.0903,7.062,7.0313,7.0021,6.9371,6.8685,6.995,7.0166,7.0134,6.9913,7.0463,7.0157,6.9933,6.9588,6.9019,6.8974,6.8974,6.9064,6.9439,6.9858,7.0067,7.0111,7.0374,6.909,6.7484,6.6968,6.7002,6.7227,6.7667,6.7667,6.7787,6.7667,6.769,6.6936,6.6982,6.8366,6.9474,7.0117,7.0058,6.9781,6.9602,6.9553,6.9685,7.0371,7.0666,7.0838,7.0436,7.0111,7.0255,7.0097,7.074,7.0903,7.09,7.0884,7.0886,7.0903,7.0903,7.0903,7.0903,6.6999,6.6999,6.6999,6.6999,6.6999,6.6999,6.6999,6.6999,6.6999,6.6999,6.6999,6.7029,6.7373,6.8167,6.9738,7.1128,7.2295,7.2864,7.2295,7.1128,7.0739,6.9662,6.8227,6.8645,6.9273,6.9572,6.9917,7.0067,7.0037,7.0053,6.9349,6.8421,6.8137,6.7703,6.7208,6.7029,6.6999,6.6999,6.6999,6.6999,6.6999,6.6999,6.7373,6.7852,6.8151,6.872,6.9887,7.0127,7.0366,7.0799,7.0903,7.0903,7.0903,7.0903,7.0903,7.0903,7.0873,7.0843,7.0649,7.047,7.0217,6.9858,7.0127,7.0067,7.0247,7.05,7.0649,7.0083,7.0053,6.9858,6.9393,6.9123,6.9034,6.9123,6.9393,6.9708,6.9917,7.0366,7.062,7.0688,6.9094,6.9486,6.9768,7.0061,7.0321,7.0272,7.0144,6.9913,6.959,6.8773,6.8439,6.9597,7.0124,7.0694,7.0903,7.0903,7.0903,7.0903,7.0903,7.0903,7.0903,7.0903,7.0903,7.071,7.0903,7.0903,7.0903,7.0903,7.0903,7.0903,7.0903,7.0903,7.0903,7.0903,7.0903,6.6999,6.6999,6.6999,6.6999,6.6999,6.6999,6.6999,6.6999,6.6999,6.6999,6.6999,6.6999,6.7373,6.8347,7.0021,7.1158,7.1936,7.2864,7.2714,7.1816,7.1577,7.0723,6.9199,6.9199,6.9662,6.9572,6.9558,6.9991,7.0067,6.9798,6.9019,6.863,6.8181,6.7928,6.7403,6.7148,6.7029,6.6999,6.6999,6.6999,6.6999,6.7059,6.7508,6.8465,6.8571,6.9273,7.0141,7.0546,7.0636,7.0889,7.0903,7.0903,7.0903,7.0903,7.0903,7.0903,7.0903,7.0739,7.0426,7.047,7.0336,7.0187,7.0277,7.0546,7.056,7.0709,7.0829,7.056,7.0516,7.032,7.0111,7.0081,6.9842,6.9752,6.9752,6.9828,7.0097,7.0396,7.0709,7.0799,7.0903,7.0932,7.0932,7.0791,7.0678,7.0629,7.058,7.0436,7.0403,7.0183,7.012,7.0488,7.071,7.084,7.0903,7.0903,7.0903,7.0903,7.0903,7.0903,7.0903,7.0903,7.0903,7.0903,7.0903,7.0903,7.0903,7.0903,7.0903,7.0903,7.0903,7.0903,7.0903,7.0903,7.0903,6.6999,6.6999,6.6999,6.6999,6.6999,6.6999,6.6999,6.6999,6.6999,6.7104,6.7343,6.7643,6.8032,6.8541,7.0021,7.1068,7.1278,7.2189,7.2265,7.2252,7.2146,7.1457,7.047,7.0306,7.0396,6.9931,7.0171,7.047,7.062,7.035,6.9752,6.9004,6.8032,6.7732,6.7598,6.7284,6.7059,6.7343,6.7343,6.7313,6.7313,6.7284,6.7926,6.8645,6.9259,6.9752,7.0693,7.0889,7.0889,7.0889,7.0903,7.0903,7.0903,7.0903,7.0903,7.0903,7.0903,7.0739,7.0606,7.059,7.059,7.053,7.053,7.0799,7.0843,7.0903,7.0873,7.0829,7.0829,7.0859,7.0873,7.0829,7.059,7.044,7.05,7.044,7.0456,7.0815,7.0949,7.0919,7.1009,7.1068,7.1038,7.0932,7.0886,7.0903,7.0903,7.0903,7.0903,7.0903,7.0903,7.0903,7.0903,7.0903,7.0903,7.0903,7.0903,7.0903,7.0903,7.0903,7.0903,7.0903,7.0903,7.0903,7.0903,7.0903,7.0903,7.0903,7.0903,7.0903,7.0903,7.0903,7.0903,7.0903,7.0903,6.6999,6.6999,6.6999,6.6999,6.6999,6.6999,6.6999,6.6999,6.6999,6.7313,6.7868,6.896,6.9079,6.9303,7.0111,7.1128,7.1743,7.1923,7.2042,7.2042,7.1923,7.2013,7.1593,7.1623,7.1863,7.2056,7.1427,7.1308,7.1713,7.1368,7.035,6.9169,6.8645,6.7613,6.7463,6.7882,6.7687,6.7942,6.8017,6.7958,6.7898,6.7958,6.8286,6.8944,6.9618,7.0247,7.0843,7.0903,7.0903,7.0903,7.0903,7.0903,7.0903,7.0903,7.0903,7.0903,7.0903,7.0799,7.0799,7.0769,7.0843,7.0843,7.0843,7.0903,7.0903,7.0903,7.0903,7.0903,7.0903,7.0903,7.0903,7.0873,7.0829,7.0799,7.0799,7.0889,7.0995,7.1384,7.1444,7.1158,7.1158,7.1308,7.1158,7.1068,7.0903,7.0903,7.0903,7.0903,7.0903,7.0903,7.0903,7.0903,7.0903,7.0903,7.0903,7.0903,7.0903,7.0903,7.0903,7.0903,7.0903,7.0903,7.0903,7.0903,7.0903,7.0903,7.0903,7.0903,7.0903,7.0903,7.0903,7.0903,7.0903,7.0903,7.0903,6.6999,6.6999,6.6999,6.6999,6.6999,6.6999,6.6999,6.6999,6.6999,6.7134,6.7463,6.8347,6.887,6.9229,6.9842,7.0679,7.1368,7.2235,7.2385,7.2864,7.3163,7.3163,7.2924,7.2505,7.2445,7.2295,7.1757,7.2146,7.3013,7.2206,7.1787,7.0919,7.029,7.0217,6.9977,6.9289,6.9109,6.8734,6.8916,6.8945,6.8137,6.8451,6.8734,6.9004,6.9632,7.0277,7.0799,7.0873,7.0903,7.0903,7.0903,7.0903,7.0903,7.0903,7.0903,7.0903,7.0903,7.0903,7.0903,7.0903,7.0903,7.0903,7.0873,7.0903,7.0903,7.0903,7.0903,7.0903,7.0903,7.0903,7.0903,7.0903,7.0873,7.0873,7.0992,7.1158,7.1427,7.1803,7.1983,7.1743,7.1683,7.1713,7.1474,7.1188,7.1038,7.0903,7.0903,7.0903,7.0903,7.0903,7.0903,7.0903,7.0903,7.0903,7.0903,7.0903,7.0903,7.0903,7.0903,7.0903,7.0903,7.0903,7.0903,7.0903,7.0903,7.0903,7.0903,7.0903,7.0903,7.0903,7.0903,7.0903,7.0903,7.0903,7.0903,6.6999,6.6999,6.6999,6.6999,6.6999,6.6999,6.6999,6.6999,6.6999,6.7119,6.7343,6.8002,6.866,6.9273,6.9752,7.035,7.1098,7.1966,7.2595,7.3163,7.3672,7.4031,7.3732,7.3492,7.3402,7.2701,7.2521,7.3073,7.4018,7.2714,7.2804,7.3073,7.2984,7.2432,7.1324,7.1354,7.0726,7.0201,6.9931,6.9947,6.9049,6.9093,6.9273,6.9423,7.0007,7.044,7.0799,7.0903,7.0903,7.0903,7.0903,7.0903,7.0903,7.0903,7.0903,7.0903,7.0903,7.0903,7.0903,7.0903,7.0903,7.0903,7.0903,7.0903,7.0903,7.0903,7.0903,7.0903,7.0903,7.0903,7.0903,7.0903,7.0903,7.0903,7.1278,7.1487,7.1727,7.2042,7.2252,7.2312,7.2372,7.2461,7.1623,7.1294,7.1009,7.0903,7.0903,7.0903,7.0903,7.0903,7.0903,7.0903,7.0903,7.0903,7.0903,7.0903,7.0903,7.0903,7.0903,7.0903,7.0903,7.0903,7.0903,7.0903,7.0903,7.0903,7.0903,7.0903,7.0903,7.0903,7.0903,7.0903,7.0903,7.0903,7.0903,6.6999,6.6999,6.6999,6.6999,6.6999,6.6999,6.6999,6.6999,6.7059,6.7373,6.7928,6.86,6.9289,6.9798,6.9977,7.0336,7.0949,7.1667,7.2325,7.3043,7.3702,7.4197,7.4527,7.4557,7.4347,7.4736,7.4377,7.4257,7.4766,7.4287,7.4467,7.4437,7.4048,7.3359,7.1278,7.1637,7.1863,7.1743,7.1218,7.0979,7.044,7.0141,7.0081,6.9931,7.041,7.0799,7.0859,7.0903,7.0903,7.0903,7.0903,7.0903,7.0903,7.0903,7.0903,7.0903,7.0903,7.0903,7.0903,7.0903,7.0903,7.0903,7.0903,7.0903,7.0903,7.0903,7.0903,7.0903,7.0903,7.0903,7.0903,7.0903,7.0903,7.0992,7.1338,7.1757,7.1996,7.2342,7.2565,7.306,7.3373,7.3373,7.2252,7.1414,7.1038,7.0903,7.0903,7.0903,7.0903,7.0903,7.0903,7.0903,7.0903,7.0903,7.0903,7.0903,7.0903,7.0903,7.0903,7.0903,7.0903,7.0903,7.0903,7.0903,7.0903,7.0903,7.0903,7.0903,7.0903,7.0903,7.0903,7.0903,7.0903,7.0903,7.0903,6.6999,6.6999,6.6999,6.6999,6.6999,6.6999,6.6999,6.7059,6.7463,6.7792,6.8092,6.8704,6.9363,6.9828,7.0083,7.0336,7.0949,7.1577,7.2265,7.2954,7.3582,7.4257,7.4706,7.4886,7.4886,7.4886,7.4886,7.4886,7.4856,7.4826,7.4527,7.4377,7.418,7.3762,7.3313,7.3419,7.3552,7.2804,7.2595,7.2355,7.1128,7.1038,7.0799,7.0127,7.062,7.0873,7.0903,7.0903,7.0903,7.0903,7.0903,7.0903,7.0903,7.0903,7.0903,7.0903,7.0903,7.0903,7.0903,7.0903,7.0903,7.0903,7.0903,7.0903,7.0903,7.0903,7.0903,7.0903,7.0903,7.0903,7.0903,7.0903,7.0903,7.0903,7.1248,7.18,7.2176,7.2654,7.3073,7.3778,7.4227,7.3343,7.2312,7.1427,7.1009,7.0903,7.0903,7.0903,7.0903,7.0903,7.0903,7.0903,7.0903,7.0903,7.0903,7.0903,7.0903,7.0903,7.0903,7.0903,7.0903,7.0903,7.0903,7.0903,7.0903,7.0903,7.0903,7.0903,7.0903,7.0903,7.0903,7.0903,7.0903,7.0903,7.0903,6.6999,6.6999,6.6999,6.6999,6.6999,6.6999,6.6999,6.7074,6.7493,6.7898,6.8331,6.863,6.9319,6.9961,7.0141,7.0336,7.0949,7.1577,7.2265,7.2907,7.3612,7.4257,7.4706,7.4886,7.4886,7.4886,7.4856,7.4826,7.4497,7.4527,7.4151,7.3702,7.3582,7.3642,7.3821,7.4197,7.4437,7.3762,7.3659,7.3073,7.2116,7.1637,7.1324,7.0755,7.0679,7.0903,7.0903,7.0903,7.0903,7.0903,7.0903,7.0903,7.0903,7.0903,7.0903,7.0903,7.0903,7.0903,7.0903,7.0903,7.0903,7.0903,7.0903,7.0903,7.0903,7.0903,7.0903,7.0903,7.0903,7.0903,7.0903,7.0903,7.0903,7.0903,7.1338,7.1906,7.2325,7.2774,7.3462,7.4168,7.4347,7.3389,7.2432,7.1577,7.0903,7.0903,7.0903,7.0903,7.0903,7.0903,7.0903,7.0903,7.0903,7.0903,7.0903,7.0903,7.0903,7.0903,7.0903,7.0903,7.0903,7.0903,7.0903,7.0903,7.0903,7.0903,7.0903,7.0903,7.0903,7.0903,7.0903,7.0903,7.0903,7.0903,7.0903,6.6999,6.6999,6.6999,6.6999,6.6999,6.6999,6.6999,6.7059,6.7134,6.7897,6.8988,6.8511,6.9319,7.05,7.0306,7.038,7.0859,7.1517,7.2116,7.2727,7.3223,7.4018,7.4527,7.4736,7.4766,7.4826,7.4766,7.4437,7.3941,7.3672,7.3343,7.2997,7.2877,7.3103,7.3599,7.4078,7.4437,7.4377,7.4197,7.3642,7.2864,7.2385,7.1816,7.1278,7.1068,7.1038,7.0979,7.0903,7.0903,7.0903,7.0903,7.0903,7.0903,7.0903,7.0903,7.0903,7.0903,7.0903,7.0903,7.0903,7.0903,7.0903,7.0903,7.0903,7.0903,7.0903,7.0903,7.0903,7.0903,7.0903,7.0903,7.0919,7.0949,7.1188,7.1534,7.1983,7.2355,7.294,7.3659,7.4168,7.4347,7.3748,7.2744,7.189,7.0903,7.0903,7.0903,7.0903,7.0903,7.0903,7.0903,7.0903,7.0903,7.0903,7.0903,7.0903,7.0903,7.0903,7.0903,7.0903,7.0903,7.0903,7.0903,7.0903,7.0903,7.0903,7.0903,7.0903,7.0903,7.0903,7.0903,7.0903,7.0903,7.0903,7.0903,6.6999,6.6999,6.6999,6.6999,6.6999,6.6999,6.7254,6.7748,6.8211,6.8944,6.9646,6.9961,7.026,7.0859,7.0709,7.0769,7.0919,7.1158,7.1593,7.2132,7.2565,7.3253,7.3821,7.4227,7.4467,7.4557,7.4407,7.4031,7.3642,7.3133,7.2491,7.2222,7.2176,7.2372,7.2731,7.3163,7.3958,7.4527,7.4467,7.4108,7.3702,7.3253,7.2535,7.1906,7.1547,7.1398,7.1158,7.0932,7.0903,7.0949,7.0903,7.0903,7.0903,7.0903,7.0903,7.0903,7.0903,7.0903,7.0903,7.0903,7.0903,7.0903,7.0903,7.0903,7.0903,7.0903,7.0903,7.0903,7.0903,7.0903,7.0979,7.1009,7.1188,7.1517,7.1953,7.2461,7.288,7.3449,7.4108,7.4287,7.4467,7.3642,7.2744,7.174,7.0903,7.0903,7.0903,7.0903,7.0903,7.0903,7.0903,7.0903,7.0903,7.0903,7.0903,7.0903,7.0903,7.0903,7.0903,7.0903,7.0903,7.0903,7.0903,7.0903,7.0903,7.0903,7.0903,7.0903,7.0903,7.0903,7.0903,7.0903,7.0903,7.0903,7.0903,6.6999,6.6999,6.6999,6.6999,6.7029,6.7284,6.7762,6.8361,6.8571,6.9079,6.9961,7.029,7.0679,7.0889,7.0873,7.0873,7.0873,7.0979,7.1308,7.1833,7.1863,7.2624,7.3223,7.3522,7.3702,7.3851,7.3732,7.3313,7.2954,7.2206,7.1487,7.1487,7.1487,7.1697,7.2013,7.2461,7.309,7.3808,7.4197,7.4197,7.4061,7.3881,7.3193,7.2505,7.2146,7.1787,7.1607,7.1351,7.1068,7.1158,7.1158,7.0903,7.0903,7.0903,7.0903,7.0903,7.0903,7.0903,7.0903,7.0903,7.0903,7.0903,7.0903,7.0903,7.0903,7.0903,7.0903,7.0903,7.0903,7.0903,7.1009,7.1158,7.1487,7.1816,7.2445,7.3043,7.3552,7.4078,7.4347,7.4557,7.4091,7.3313,7.2415,7.1471,7.0903,7.0903,7.0903,7.0903,7.0903,7.0903,7.0903,7.0903,7.0903,7.0903,7.0903,7.0903,7.0903,7.0903,7.0903,7.0903,7.0903,7.0903,7.0903,7.0903,7.0903,7.0903,7.0903,7.0903,7.0903,7.0903,7.0903,7.0903,7.0903,7.0903,7.0903,6.6999,6.6999,6.6999,6.7044,6.7164,6.7732,6.8407,6.8974,6.8586,6.8916,6.9977,7.0081,7.0486,7.0859,7.0903,7.0903,7.0903,7.0919,7.1128,7.1803,7.1667,7.2146,7.2578,7.2817,7.3027,7.2937,7.2757,7.2535,7.1863,7.1338,7.1068,7.0903,7.0962,7.1218,7.1637,7.1757,7.2235,7.2894,7.3402,7.3582,7.3911,7.3851,7.3672,7.3043,7.2595,7.2265,7.2368,7.198,7.1308,7.1504,7.1427,7.1068,7.0903,7.0903,7.0903,7.0903,7.0903,7.0903,7.0903,7.0903,7.0903,7.0903,7.0903,7.0903,7.0903,7.0903,7.0903,7.0903,7.0903,7.1098,7.1248,7.1517,7.1863,7.2432,7.309,7.3629,7.4078,7.4467,7.4616,7.4646,7.4091,7.3313,7.2621,7.1737,7.0927,7.09,7.0903,7.0903,7.0903,7.0903,7.0903,7.0903,7.0903,7.0903,7.0903,7.0903,7.0903,7.0903,7.0903,7.0903,7.0903,7.0903,7.0903,7.0903,7.0903,7.0903,7.0903,7.0903,7.0903,7.0903,7.0903,7.0903,7.0903,7.0903,7.0903,6.6999,6.6999,6.6999,6.7284,6.7732,6.7912,6.8706,6.9708,6.9618,6.9917,7.056,7.0663,7.0709,7.0843,7.0903,7.0903,7.0903,7.0903,7.1009,7.1158,7.1218,7.1577,7.2026,7.2146,7.2385,7.2595,7.2385,7.1816,7.1308,7.1009,7.0903,7.0903,7.0903,7.1068,7.1218,7.1248,7.1577,7.2235,7.2565,7.3223,7.3851,7.4317,7.4347,7.3821,7.3402,7.3103,7.3027,7.2668,7.2146,7.1953,7.1803,7.1398,7.0949,7.0903,7.0873,7.0903,7.0903,7.0903,7.0903,7.0903,7.0903,7.0903,7.0903,7.0903,7.0903,7.0903,7.0903,7.0903,7.1038,7.1278,7.1577,7.1923,7.2252,7.297,7.3659,7.4108,7.4557,7.4736,7.4886,7.4527,7.4061,7.3445,7.2784,7.2017,7.122,7.0895,7.09,7.0903,7.0903,7.0903,7.0903,7.0903,7.0903,7.0903,7.0903,7.0903,7.0903,7.0903,7.0903,7.0903,7.0903,7.0903,7.0903,7.0903,7.0903,7.0903,7.0903,7.0903,7.0903,7.0903,7.0903,7.0903,7.0903,7.0903,7.0903,6.6999,6.7029,6.7313,6.7658,6.8077,6.8646,6.9319,6.9947,7.026,7.059,7.0859,7.0903,7.0903,7.0903,7.0903,7.0903,7.0903,7.0903,7.0932,7.0903,7.0932,7.1128,7.1338,7.1534,7.1607,7.1816,7.1667,7.1218,7.0932,7.0903,7.0903,7.0903,7.0903,7.0903,7.0903,7.0949,7.1218,7.1893,7.2102,7.2864,7.3791,7.4227,7.4557,7.4227,7.4031,7.3821,7.3702,7.3373,7.2924,7.2355,7.1966,7.1607,7.1128,7.0799,7.0679,7.0799,7.0903,7.0903,7.0903,7.0903,7.0903,7.0903,7.0903,7.0903,7.0903,7.0932,7.1188,7.1248,7.1427,7.1683,7.2146,7.2505,7.2595,7.3043,7.3629,7.4138,7.4527,7.4826,7.4886,7.4766,7.421,7.3582,7.278,7.1735,7.1079,7.0897,7.0903,7.0919,7.0919,7.0903,7.0903,7.0903,7.0903,7.0903,7.0903,7.0903,7.0903,7.0903,7.0903,7.0903,7.0903,7.0903,7.0903,7.0903,7.0903,7.0903,7.0903,7.0903,7.0903,7.0903,7.0903,7.0903,7.0903,7.0903,7.0903,6.7074,6.7224,6.7732,6.8137,6.8391,6.9468,7.0037,7.0217,7.0649,7.0873,7.0889,7.0903,7.0903,7.0903,7.0903,7.0903,7.0903,7.0903,7.0903,7.0903,7.0903,7.1009,7.0979,7.0962,7.1082,7.1112,7.1038,7.1009,7.0903,7.0903,7.0903,7.0903,7.0903,7.0903,7.0903,7.0932,7.1188,7.1667,7.2176,7.2954,7.3522,7.3971,7.4407,7.4527,7.4437,7.4407,7.43,7.4091,7.3642,7.2834,7.2086,7.1487,7.1098,7.0649,7.05,7.056,7.0859,7.0843,7.0903,7.0903,7.0903,7.0903,7.0903,7.0903,7.0903,7.1038,7.1308,7.1697,7.1923,7.2192,7.2654,7.2984,7.3043,7.3043,7.3582,7.3928,7.4287,7.4646,7.4706,7.4736,7.43,7.3642,7.2764,7.1702,7.138,7.1153,7.0979,7.0949,7.0949,7.0903,7.0903,7.0903,7.0903,7.0903,7.0903,7.0903,7.0903,7.0903,7.0903,7.0903,7.0903,7.0903,7.0903,7.0903,7.0903,7.0903,7.0903,7.0903,7.0903,7.0903,7.0903,7.0903,7.0903,7.0903,7.0903,6.7313,6.7808,6.7958,6.8616,6.9528,6.9917,7.026,7.0709,7.0829,7.0903,7.0903,7.0903,7.0903,7.0903,7.0903,7.0903,7.0903,7.0903,7.0903,7.0903,7.0903,7.0903,7.0903,7.0903,7.0903,7.0903,7.0903,7.0903,7.0903,7.0903,7.0903,7.0903,7.0903,7.0903,7.0903,7.0932,7.1038,7.1487,7.1906,7.2535,7.3343,7.3928,7.4646,7.4796,7.4796,7.4796,7.4783,7.4676,7.4287,7.3432,7.2206,7.1427,7.0919,7.0546,7.0201,7.0171,7.047,7.0739,7.0739,7.0859,7.0889,7.0903,7.0903,7.0903,7.0903,7.0903,7.1427,7.2295,7.2505,7.2714,7.3103,7.3373,7.3492,7.3223,7.3432,7.3313,7.3402,7.3791,7.4061,7.424,7.4287,7.3642,7.298,7.2375,7.2272,7.1983,7.1534,7.1444,7.1098,7.1009,7.0903,7.0903,7.0903,7.0903,7.0903,7.0903,7.0903,7.0903,7.0903,7.0903,7.0903,7.0903,7.0903,7.0903,7.0903,7.0903,7.0903,7.0903,7.0903,7.0903,7.0903,7.0903,7.0903,7.0903,7.0903]}]]